
Distance (Route):
Temperature : 0°C
Humidity : 0%
Pressure : 0hPa| Receiver | Frames | First received | Last received |
|---|---|---|---|
| MIELECB | 645 | 2026-08-30 11:23:46 | 2026-08-30 13:09:32 |
| SQ9PSP-11 | 237 | 2026-08-30 11:21:59 | 2026-08-30 13:09:05 |
| AKAW68 | 187 | 2026-08-30 11:23:48 | 2026-08-30 13:09:09 |
| SQ9EZE-12 | 91 | 2026-08-30 11:24:59 | 2026-08-30 12:53:04 |
| SQ9EZE-15 | 4 | 2026-08-30 11:45:40 | 2026-08-30 12:17:35 |
| SQ9EZE-14 | 3 | 2026-08-30 11:42:24 | 2026-08-30 12:10:37 |
| GYPAP8-17 | 2 | 2026-08-30 11:44:41 | 2026-08-30 11:45:12 |
| OE3JTB-15 | 1 | 2026-08-30 11:52:57 | 2026-08-30 11:52:57 |
| SP9KGR-15 | 1 | 2026-08-30 13:00:30 | 2026-08-30 13:00:30 |
| Receiver | Date | Latitude | Longitude | Direction | Speed | Altitude | Climb | Temperature | Humidity | Pressure | Voltage | Killtimer | Uptime | BKT | XDATA |
|---|---|---|---|---|---|---|---|---|---|---|---|---|---|---|---|
| MIELECB | 2026-08-30 13:09:32 | -12.04300 | -77.05798 | 337° | 199km/h | 994m | 0.0m/s | 0°C | 0% | 0hPa | 0V | 00:00:00 | 00:00:00 | 00:00:00 | |
| MIELECB | 2026-08-30 13:09:26 | -12.04553 | -77.05630 | 318° | 199km/h | 992m | 0.1m/s | 0°C | 0% | 0hPa | 0V | 00:00:00 | 00:00:00 | 00:00:00 | |
| MIELECB | 2026-08-30 13:09:21 | -12.04711 | -77.05432 | 302° | 199km/h | 991m | 0.2m/s | 0°C | 0% | 0hPa | 0V | 00:00:00 | 00:00:00 | 00:00:00 | |
| MIELECB | 2026-08-30 13:09:16 | -12.04810 | -77.05195 | 286° | 199km/h | 992m | -0.0m/s | 0°C | 0% | 0hPa | 0V | 00:00:00 | 00:00:00 | 00:00:00 | |
| MIELECB | 2026-08-30 13:09:10 | -12.04838 | -77.04890 | 267° | 199km/h | 992m | -0.0m/s | 0°C | 0% | 0hPa | 0V | 00:00:00 | 00:00:00 | 00:00:00 | |
| AKAW68 | 2026-08-30 13:09:09 | -12.04834 | -77.04839 | 264° | 199km/h | 992m | -0.1m/s | 0°C | 0% | 0hPa | 0V | 00:00:00 | 00:00:00 | 00:00:00 | |
| SQ9PSP-11 | 2026-08-30 13:09:05 | -12.04786 | -77.04639 | 251° | 199km/h | 993m | -0.2m/s | 0°C | 0% | 0hPa | 0V | 00:00:00 | 00:00:00 | 00:00:00 | |
| MIELECB | 2026-08-30 13:09:04 | -12.04767 | -77.04590 | 247° | 197km/h | 993m | 0.2m/s | 0°C | 0% | 0hPa | 0V | 00:00:00 | 00:00:00 | 00:00:00 | |
| MIELECB | 2026-08-30 13:08:58 | -12.04602 | -77.04332 | 228° | 199km/h | 995m | -0.0m/s | 0°C | 0% | 0hPa | 0V | 00:00:00 | 00:00:00 | 00:00:00 | |
| MIELECB | 2026-08-30 13:08:52 | -12.04362 | -77.04146 | 208° | 195km/h | 992m | -0.2m/s | 0°C | 0% | 0hPa | 0V | 00:00:00 | 00:00:00 | 00:00:00 | |
| SQ9PSP-11 | 2026-08-30 13:08:49 | -12.04223 | -77.04086 | 200° | 199km/h | 993m | -0.4m/s | 0°C | 0% | 0hPa | 0V | 00:00:00 | 00:00:00 | 00:00:00 | |
| AKAW68 | 2026-08-30 13:08:48 | -12.04175 | -77.04070 | 196° | 199km/h | 994m | -0.2m/s | 0°C | 0% | 0hPa | 0V | 00:00:00 | 00:00:00 | 00:00:00 | |
| MIELECB | 2026-08-30 13:08:45 | -12.04025 | -77.04042 | 186° | 199km/h | 993m | 0.6m/s | 0°C | 0% | 0hPa | 0V | 00:00:00 | 00:00:00 | 00:00:00 | |
| MIELECB | 2026-08-30 13:08:39 | -12.03724 | -77.04065 | 167° | 199km/h | 993m | 0.0m/s | 0°C | 0% | 0hPa | 0V | 00:00:00 | 00:00:00 | 00:00:00 | |
| MIELECB | 2026-08-30 13:08:33 | -12.03446 | -77.04187 | 148° | 199km/h | 992m | 0.3m/s | 0°C | 0% | 0hPa | 0V | 00:00:00 | 00:00:00 | 00:00:00 | |
| MIELECB | 2026-08-30 13:08:28 | -12.03256 | -77.04355 | 132° | 199km/h | 992m | 0.0m/s | 0°C | 0% | 0hPa | 0V | 00:00:00 | 00:00:00 | 00:00:00 | |
| SQ9PSP-11 | 2026-08-30 13:08:27 | -12.03223 | -77.04395 | 129° | 201km/h | 992m | 1.0m/s | 0°C | 0% | 0hPa | 0V | 00:00:00 | 00:00:00 | 00:00:00 | |
| AKAW68 | 2026-08-30 13:08:26 | -12.03193 | -77.04436 | 126° | 199km/h | 991m | 0.0m/s | 0°C | 0% | 0hPa | 0V | 00:00:00 | 00:00:00 | 00:00:00 | |
| MIELECB | 2026-08-30 13:08:23 | -12.03117 | -77.04571 | 116° | 199km/h | 990m | -0.1m/s | 0°C | 0% | 0hPa | 0V | 00:00:00 | 00:00:00 | 00:00:00 | |
| MIELECB | 2026-08-30 13:08:16 | -12.03034 | -77.04917 | 93° | 199km/h | 990m | -0.0m/s | 0°C | 0% | 0hPa | 0V | 00:00:00 | 00:00:00 | 00:00:00 | |
| MIELECB | 2026-08-30 13:08:11 | -12.03059 | -77.05173 | 77° | 199km/h | 992m | -0.2m/s | 0°C | 0% | 0hPa | 0V | 00:00:00 | 00:00:00 | 00:00:00 | |
| SQ9PSP-11 | 2026-08-30 13:08:09 | -12.03087 | -77.05271 | 71° | 199km/h | 993m | -0.1m/s | 0°C | 0% | 0hPa | 0V | 00:00:00 | 00:00:00 | 00:00:00 | |
| MIELECB | 2026-08-30 13:08:05 | -12.03176 | -77.05454 | 58° | 199km/h | 991m | 0.3m/s | 0°C | 0% | 0hPa | 0V | 00:00:00 | 00:00:00 | 00:00:00 | |
| AKAW68 | 2026-08-30 13:08:05 | -12.03176 | -77.05454 | 58° | 199km/h | 991m | 0.3m/s | 0°C | 0% | 0hPa | 0V | 00:00:00 | 00:00:00 | 00:00:00 | |
| MIELECB | 2026-08-30 13:07:59 | -12.03381 | -77.05682 | 39° | 199km/h | 992m | 0.0m/s | 0°C | 0% | 0hPa | 0V | 00:00:00 | 00:00:00 | 00:00:00 | |
| MIELECB | 2026-08-30 13:07:54 | -12.03600 | -77.05809 | 23° | 199km/h | 992m | 0.1m/s | 0°C | 0% | 0hPa | 0V | 00:00:00 | 00:00:00 | 00:00:00 | |
| SQ9PSP-11 | 2026-08-30 13:07:50 | -12.03794 | -77.05864 | 10° | 199km/h | 992m | 0.0m/s | 0°C | 0% | 0hPa | 0V | 00:00:00 | 00:00:00 | 00:00:00 | |
| MIELECB | 2026-08-30 13:07:48 | -12.03895 | -77.05875 | 4° | 199km/h | 992m | 0.0m/s | 0°C | 0% | 0hPa | 0V | 00:00:00 | 00:00:00 | 00:00:00 | |
| MIELECB | 2026-08-30 13:07:43 | -12.04146 | -77.05851 | 348° | 199km/h | 992m | 0.0m/s | 0°C | 0% | 0hPa | 0V | 00:00:00 | 00:00:00 | 00:00:00 | |
| AKAW68 | 2026-08-30 13:07:39 | -12.04336 | -77.05782 | 335° | 199km/h | 991m | -0.1m/s | 0°C | 0% | 0hPa | 0V | 00:00:00 | 00:00:00 | 00:00:00 | |
| MIELECB | 2026-08-30 13:07:38 | -12.04381 | -77.05758 | 332° | 199km/h | 992m | -0.0m/s | 0°C | 0% | 0hPa | 0V | 00:00:00 | 00:00:00 | 00:00:00 | |
| MIELECB | 2026-08-30 13:07:33 | -12.04584 | -77.05604 | 316° | 199km/h | 995m | 0.1m/s | 0°C | 0% | 0hPa | 0V | 00:00:00 | 00:00:00 | 00:00:00 | |
| MIELECB | 2026-08-30 13:07:26 | -12.04776 | -77.05302 | 293° | 199km/h | 994m | -0.2m/s | 0°C | 0% | 0hPa | 0V | 00:00:00 | 00:00:00 | 00:00:00 | |
| SQ9PSP-11 | 2026-08-30 13:07:21 | -12.04838 | -77.05054 | 277° | 199km/h | 996m | 0.0m/s | 0°C | 0% | 0hPa | 0V | 00:00:00 | 00:00:00 | 00:00:00 | |
| MIELECB | 2026-08-30 13:07:19 | -12.04842 | -77.04951 | 271° | 199km/h | 996m | -0.1m/s | 0°C | 0% | 0hPa | 0V | 00:00:00 | 00:00:00 | 00:00:00 | |
| AKAW68 | 2026-08-30 13:07:19 | -12.04842 | -77.04951 | 271° | 199km/h | 996m | -0.1m/s | 0°C | 0% | 0hPa | 0V | 00:00:00 | 00:00:00 | 00:00:00 | |
| MIELECB | 2026-08-30 13:07:10 | -12.04727 | -77.04508 | 242° | 199km/h | 995m | 0.2m/s | 0°C | 0% | 0hPa | 0V | 00:00:00 | 00:00:00 | 00:00:00 | |
| SQ9PSP-11 | 2026-08-30 13:07:05 | -12.04575 | -77.04304 | 226° | 199km/h | 994m | 0.2m/s | 0°C | 0% | 0hPa | 0V | 00:00:00 | 00:00:00 | 00:00:00 | |
| AKAW68 | 2026-08-30 13:06:54 | -12.04087 | -77.04050 | 190° | 199km/h | 995m | -0.0m/s | 0°C | 0% | 0hPa | 0V | 00:00:00 | 00:00:00 | 00:00:00 | |
| MIELECB | 2026-08-30 13:06:54 | -12.04087 | -77.04050 | 190° | 199km/h | 995m | -0.0m/s | 0°C | 0% | 0hPa | 0V | 00:00:00 | 00:00:00 | 00:00:00 | |
| MIELECB | 2026-08-30 13:06:47 | -12.03734 | -77.04061 | 168° | 199km/h | 995m | -0.2m/s | 0°C | 0% | 0hPa | 0V | 00:00:00 | 00:00:00 | 00:00:00 | |
| SQ9PSP-11 | 2026-08-30 13:06:46 | -12.03685 | -77.04074 | 165° | 199km/h | 995m | -0.1m/s | 0°C | 0% | 0hPa | 0V | 00:00:00 | 00:00:00 | 00:00:00 | |
| MIELECB | 2026-08-30 13:06:40 | -12.03413 | -77.04207 | 145° | 199km/h | 995m | 0.4m/s | 0°C | 0% | 0hPa | 0V | 00:00:00 | 00:00:00 | 00:00:00 | |
| AKAW68 | 2026-08-30 13:06:33 | -12.03171 | -77.04468 | 123° | 199km/h | 989m | 0.1m/s | 0°C | 0% | 0hPa | 0V | 00:00:00 | 00:00:00 | 00:00:00 | |
| MIELECB | 2026-08-30 13:06:33 | -12.03171 | -77.04468 | 123° | 199km/h | 989m | 0.1m/s | 0°C | 0% | 0hPa | 0V | 00:00:00 | 00:00:00 | 00:00:00 | |
| SQ9PSP-11 | 2026-08-30 13:06:28 | -12.03066 | -77.04703 | 105° | 199km/h | 992m | -2.6m/s | 0°C | 0% | 0hPa | 0V | 00:00:00 | 00:00:00 | 00:00:00 | |
| MIELECB | 2026-08-30 13:06:27 | -12.03055 | -77.04753 | 104° | 199km/h | 993m | 0.1m/s | 0°C | 0% | 0hPa | 0V | 00:00:00 | 00:00:00 | 00:00:00 | |
| MIELECB | 2026-08-30 13:06:19 | -12.03056 | -77.05162 | 78° | 199km/h | 993m | 0.0m/s | 0°C | 0% | 0hPa | 0V | 00:00:00 | 00:00:00 | 00:00:00 | |
| SQ9PSP-11 | 2026-08-30 13:06:12 | -12.03201 | -77.05488 | 56° | 199km/h | 994m | -0.2m/s | 0°C | 0% | 0hPa | 0V | 00:00:00 | 00:00:00 | 00:00:00 | |
| AKAW68 | 2026-08-30 13:06:12 | -12.03201 | -77.05488 | 56° | 199km/h | 994m | -0.2m/s | 0°C | 0% | 0hPa | 0V | 00:00:00 | 00:00:00 | 00:00:00 | |
| MIELECB | 2026-08-30 13:06:11 | -12.03231 | -77.05528 | 52° | 199km/h | 994m | 0.1m/s | 0°C | 0% | 0hPa | 0V | 00:00:00 | 00:00:00 | 00:00:00 | |
| MIELECB | 2026-08-30 13:06:04 | -12.03499 | -77.05759 | 30° | 199km/h | 991m | -0.1m/s | 0°C | 0% | 0hPa | 0V | 00:00:00 | 00:00:00 | 00:00:00 | |
| MIELECB | 2026-08-30 13:05:57 | -12.03836 | -77.05869 | 8° | 199km/h | 989m | -0.1m/s | 0°C | 0% | 0hPa | 0V | 00:00:00 | 00:00:00 | 00:00:00 | |
| SQ9PSP-11 | 2026-08-30 13:05:56 | -12.03886 | -77.05874 | 4° | 199km/h | 989m | 0.0m/s | 0°C | 0% | 0hPa | 0V | 00:00:00 | 00:00:00 | 00:00:00 | |
| AKAW68 | 2026-08-30 13:05:52 | -12.04087 | -77.05863 | 351° | 199km/h | 992m | -0.2m/s | 0°C | 0% | 0hPa | 0V | 00:00:00 | 00:00:00 | 00:00:00 | |
| MIELECB | 2026-08-30 13:05:51 | -12.04138 | -77.05853 | 348° | 201km/h | 993m | -1.1m/s | 0°C | 0% | 0hPa | 0V | 00:00:00 | 00:00:00 | 00:00:00 | |
| MIELECB | 2026-08-30 13:05:45 | -12.04417 | -77.05736 | 329° | 197km/h | 999m | 0.4m/s | 0°C | 0% | 0hPa | 0V | 00:00:00 | 00:00:00 | 00:00:00 | |
| SQ9PSP-11 | 2026-08-30 13:05:40 | -12.04610 | -77.05570 | 312° | 199km/h | 999m | -0.2m/s | 0°C | 0% | 0hPa | 0V | 00:00:00 | 00:00:00 | 00:00:00 | |
| MIELECB | 2026-08-30 13:05:39 | -12.04643 | -77.05531 | 310° | 199km/h | 999m | -0.1m/s | 0°C | 0% | 0hPa | 0V | 00:00:00 | 00:00:00 | 00:00:00 | |
| MIELECB | 2026-08-30 13:05:34 | -12.04773 | -77.05311 | 293° | 199km/h | 997m | 1.5m/s | 0°C | 0% | 0hPa | 0V | 00:00:00 | 00:00:00 | 00:00:00 | |
| AKAW68 | 2026-08-30 13:05:32 | -12.04806 | -77.05214 | 287° | 199km/h | 995m | 0.4m/s | 0°C | 0% | 0hPa | 0V | 00:00:00 | 00:00:00 | 00:00:00 | |
| MIELECB | 2026-08-30 13:05:28 | -12.04842 | -77.05012 | 275° | 199km/h | 995m | -0.2m/s | 0°C | 0% | 0hPa | 0V | 00:00:00 | 00:00:00 | 00:00:00 | |
| SQ9PSP-11 | 2026-08-30 13:05:24 | -12.04831 | -77.04806 | 262° | 199km/h | 998m | 0.1m/s | 0°C | 0% | 0hPa | 0V | 00:00:00 | 00:00:00 | 00:00:00 | |
| MIELECB | 2026-08-30 13:05:22 | -12.04809 | -77.04706 | 255° | 199km/h | 998m | -0.4m/s | 0°C | 0% | 0hPa | 0V | 00:00:00 | 00:00:00 | 00:00:00 | |
| MIELECB | 2026-08-30 13:05:16 | -12.04679 | -77.04427 | 236° | 199km/h | 997m | -0.1m/s | 0°C | 0% | 0hPa | 0V | 00:00:00 | 00:00:00 | 00:00:00 | |
| AKAW68 | 2026-08-30 13:05:11 | -12.04507 | -77.04241 | 220° | 199km/h | 999m | 0.1m/s | 0°C | 0% | 0hPa | 0V | 00:00:00 | 00:00:00 | 00:00:00 | |
| MIELECB | 2026-08-30 13:05:10 | -12.04467 | -77.04210 | 216° | 201km/h | 999m | 0.6m/s | 0°C | 0% | 0hPa | 0V | 00:00:00 | 00:00:00 | 00:00:00 | |
| SQ9PSP-11 | 2026-08-30 13:05:10 | -12.04425 | -77.04182 | 213° | 199km/h | 999m | -0.0m/s | 0°C | 0% | 0hPa | 0V | 00:00:00 | 00:00:00 | 00:00:00 | |
| MIELECB | 2026-08-30 13:05:04 | -12.04195 | -77.04075 | 197° | 199km/h | 996m | -0.1m/s | 0°C | 0% | 0hPa | 0V | 00:00:00 | 00:00:00 | 00:00:00 | |
| MIELECB | 2026-08-30 13:04:57 | -12.03845 | -77.04042 | 175° | 199km/h | 994m | 0.1m/s | 0°C | 0% | 0hPa | 0V | 00:00:00 | 00:00:00 | 00:00:00 | |
| SQ9PSP-11 | 2026-08-30 13:04:53 | -12.03647 | -77.04087 | 162° | 199km/h | 995m | 0.0m/s | 0°C | 0% | 0hPa | 0V | 00:00:00 | 00:00:00 | 00:00:00 | |
| AKAW68 | 2026-08-30 13:04:51 | -12.03553 | -77.04125 | 156° | 199km/h | 994m | -0.1m/s | 0°C | 0% | 0hPa | 0V | 00:00:00 | 00:00:00 | 00:00:00 | |
| MIELECB | 2026-08-30 13:04:49 | -12.03463 | -77.04174 | 150° | 197km/h | 994m | -0.5m/s | 0°C | 0% | 0hPa | 0V | 00:00:00 | 00:00:00 | 00:00:00 | |
| MIELECB | 2026-08-30 13:04:43 | -12.03236 | -77.04377 | 130° | 199km/h | 994m | 0.0m/s | 0°C | 0% | 0hPa | 0V | 00:00:00 | 00:00:00 | 00:00:00 | |
| SQ9PSP-11 | 2026-08-30 13:04:39 | -12.03105 | -77.04596 | 113° | 199km/h | 993m | 1.7m/s | 0°C | 0% | 0hPa | 0V | 00:00:00 | 00:00:00 | 00:00:00 | |
| MIELECB | 2026-08-30 13:04:37 | -12.03087 | -77.04644 | 111° | 199km/h | 993m | -0.2m/s | 0°C | 0% | 0hPa | 0V | 00:00:00 | 00:00:00 | 00:00:00 | |
| MIELECB | 2026-08-30 13:04:31 | -12.03034 | -77.04945 | 92° | 199km/h | 996m | 0.0m/s | 0°C | 0% | 0hPa | 0V | 00:00:00 | 00:00:00 | 00:00:00 | |
| AKAW68 | 2026-08-30 13:04:30 | -12.03034 | -77.04996 | 88° | 199km/h | 997m | -0.1m/s | 0°C | 0% | 0hPa | 0V | 00:00:00 | 00:00:00 | 00:00:00 | |
| MIELECB | 2026-08-30 13:04:25 | -12.03088 | -77.05244 | 72° | 199km/h | 1000m | 0.1m/s | 0°C | 0% | 0hPa | 0V | 00:00:00 | 00:00:00 | 00:00:00 | |
| MIELECB | 2026-08-30 13:03:52 | -12.03945 | -77.04040 | 181° | 199km/h | 991m | -0.3m/s | 0°C | 0% | 0hPa | 0V | 00:00:00 | 00:00:00 | 00:00:00 | |
| AKAW68 | 2026-08-30 13:03:50 | -12.03844 | -77.04044 | 175° | 199km/h | 992m | 0.1m/s | 0°C | 0% | 0hPa | 0V | 00:00:00 | 00:00:00 | 00:00:00 | |
| SQ9PSP-11 | 2026-08-30 13:03:47 | -12.03695 | -77.04073 | 165° | 199km/h | 992m | -0.1m/s | 0°C | 0% | 0hPa | 0V | 00:00:00 | 00:00:00 | 00:00:00 | |
| MIELECB | 2026-08-30 13:03:42 | -12.03464 | -77.04175 | 149° | 199km/h | 992m | -0.2m/s | 0°C | 0% | 0hPa | 0V | 00:00:00 | 00:00:00 | 00:00:00 | |
| MIELECB | 2026-08-30 13:03:34 | -12.03177 | -77.04461 | 124° | 199km/h | 992m | 0.1m/s | 0°C | 0% | 0hPa | 0V | 00:00:00 | 00:00:00 | 00:00:00 | |
| SQ9PSP-11 | 2026-08-30 13:03:30 | -12.03087 | -77.04645 | 111° | 203km/h | 993m | -1.1m/s | 0°C | 0% | 0hPa | 0V | 00:00:00 | 00:00:00 | 00:00:00 | |
| AKAW68 | 2026-08-30 13:03:29 | -12.03071 | -77.04694 | 108° | 199km/h | 994m | -0.1m/s | 0°C | 0% | 0hPa | 0V | 00:00:00 | 00:00:00 | 00:00:00 | |
| MIELECB | 2026-08-30 13:03:29 | -12.03071 | -77.04694 | 108° | 199km/h | 994m | -0.1m/s | 0°C | 0% | 0hPa | 0V | 00:00:00 | 00:00:00 | 00:00:00 | |
| MIELECB | 2026-08-30 13:03:24 | -12.03034 | -77.04947 | 92° | 199km/h | 995m | -0.1m/s | 0°C | 0% | 0hPa | 0V | 00:00:00 | 00:00:00 | 00:00:00 | |
| MIELECB | 2026-08-30 13:03:18 | -12.03081 | -77.05251 | 72° | 199km/h | 994m | -0.0m/s | 0°C | 0% | 0hPa | 0V | 00:00:00 | 00:00:00 | 00:00:00 | |
| SQ9PSP-11 | 2026-08-30 13:03:14 | -12.03167 | -77.05437 | 60° | 199km/h | 993m | 0.1m/s | 0°C | 0% | 0hPa | 0V | 00:00:00 | 00:00:00 | 00:00:00 | |
| MIELECB | 2026-08-30 13:03:12 | -12.03224 | -77.05521 | 53° | 199km/h | 993m | 0.1m/s | 0°C | 0% | 0hPa | 0V | 00:00:00 | 00:00:00 | 00:00:00 | |
| AKAW68 | 2026-08-30 13:03:09 | -12.03327 | -77.05634 | 44° | 199km/h | 995m | 0.0m/s | 0°C | 0% | 0hPa | 0V | 00:00:00 | 00:00:00 | 00:00:00 | |
| MIELECB | 2026-08-30 13:03:06 | -12.03447 | -77.05729 | 34° | 199km/h | 993m | -0.1m/s | 0°C | 0% | 0hPa | 0V | 00:00:00 | 00:00:00 | 00:00:00 | |
| MIELECB | 2026-08-30 13:03:00 | -12.03724 | -77.05851 | 15° | 199km/h | 991m | -0.0m/s | 0°C | 0% | 0hPa | 0V | 00:00:00 | 00:00:00 | 00:00:00 | |
| SQ9PSP-11 | 2026-08-30 13:02:58 | -12.03824 | -77.05869 | 8° | 199km/h | 991m | -0.8m/s | 0°C | 0% | 0hPa | 0V | 00:00:00 | 00:00:00 | 00:00:00 | |
| MIELECB | 2026-08-30 13:02:54 | -12.04026 | -77.05871 | 355° | 199km/h | 991m | -0.0m/s | 0°C | 0% | 0hPa | 0V | 00:00:00 | 00:00:00 | 00:00:00 | |
| AKAW68 | 2026-08-30 13:02:48 | -12.04318 | -77.05790 | 336° | 199km/h | 994m | 0.0m/s | 0°C | 0% | 0hPa | 0V | 00:00:00 | 00:00:00 | 00:00:00 | |
| MIELECB | 2026-08-30 13:02:47 | -12.04363 | -77.05767 | 333° | 199km/h | 995m | 0.1m/s | 0°C | 0% | 0hPa | 0V | 00:00:00 | 00:00:00 | 00:00:00 | |
| SQ9PSP-11 | 2026-08-30 13:02:42 | -12.04568 | -77.05615 | 317° | 199km/h | 997m | -0.6m/s | 0°C | 0% | 0hPa | 0V | 00:00:00 | 00:00:00 | 00:00:00 | |
| MIELECB | 2026-08-30 13:02:40 | -12.04636 | -77.05540 | 310° | 199km/h | 998m | 0.0m/s | 0°C | 0% | 0hPa | 0V | 00:00:00 | 00:00:00 | 00:00:00 | |
| MIELECB | 2026-08-30 13:02:34 | -12.04787 | -77.05272 | 291° | 199km/h | 995m | 0.0m/s | 0°C | 0% | 0hPa | 0V | 00:00:00 | 00:00:00 | 00:00:00 | |
| AKAW68 | 2026-08-30 13:02:27 | -12.04841 | -77.04920 | 269° | 199km/h | 996m | -0.1m/s | 0°C | 0% | 0hPa | 0V | 00:00:00 | 00:00:00 | 00:00:00 | |
| MIELECB | 2026-08-30 13:02:27 | -12.04841 | -77.04920 | 269° | 199km/h | 996m | -0.1m/s | 0°C | 0% | 0hPa | 0V | 00:00:00 | 00:00:00 | 00:00:00 | |
| SQ9PSP-11 | 2026-08-30 13:02:26 | -12.04837 | -77.04869 | 265° | 199km/h | 995m | -0.4m/s | 0°C | 0% | 0hPa | 0V | 00:00:00 | 00:00:00 | 00:00:00 | |
| MIELECB | 2026-08-30 13:02:21 | -12.04778 | -77.04620 | 249° | 199km/h | 994m | -0.2m/s | 0°C | 0% | 0hPa | 0V | 00:00:00 | 00:00:00 | 00:00:00 | |
| MIELECB | 2026-08-30 13:02:15 | -12.04622 | -77.04358 | 230° | 199km/h | 993m | 0.0m/s | 0°C | 0% | 0hPa | 0V | 00:00:00 | 00:00:00 | 00:00:00 | |
| SQ9PSP-11 | 2026-08-30 13:02:10 | -12.04432 | -77.04189 | 214° | 199km/h | 995m | 0.1m/s | 0°C | 0% | 0hPa | 0V | 00:00:00 | 00:00:00 | 00:00:00 | |
| MIELECB | 2026-08-30 13:02:08 | -12.04344 | -77.04137 | 208° | 199km/h | 996m | -0.4m/s | 0°C | 0% | 0hPa | 0V | 00:00:00 | 00:00:00 | 00:00:00 | |
| AKAW68 | 2026-08-30 13:02:06 | -12.04251 | -77.04096 | 201° | 199km/h | 996m | 0.0m/s | 0°C | 0% | 0hPa | 0V | 00:00:00 | 00:00:00 | 00:00:00 | |
| MIELECB | 2026-08-30 13:02:03 | -12.04105 | -77.04056 | 192° | 199km/h | 992m | 0.1m/s | 0°C | 0% | 0hPa | 0V | 00:00:00 | 00:00:00 | 00:00:00 | |
| MIELECB | 2026-08-30 13:01:57 | -12.03803 | -77.04049 | 173° | 199km/h | 993m | -0.1m/s | 0°C | 0% | 0hPa | 0V | 00:00:00 | 00:00:00 | 00:00:00 | |
| SQ9PSP-11 | 2026-08-30 13:01:55 | -12.03703 | -77.04070 | 165° | 201km/h | 994m | 0.8m/s | 0°C | 0% | 0hPa | 0V | 00:00:00 | 00:00:00 | 00:00:00 | |
| MIELECB | 2026-08-30 13:01:49 | -12.03428 | -77.04199 | 147° | 199km/h | 993m | -0.0m/s | 0°C | 0% | 0hPa | 0V | 00:00:00 | 00:00:00 | 00:00:00 | |
| AKAW68 | 2026-08-30 13:01:46 | -12.03311 | -77.04295 | 138° | 199km/h | 992m | 0.7m/s | 0°C | 0% | 0hPa | 0V | 00:00:00 | 00:00:00 | 00:00:00 | |
| MIELECB | 2026-08-30 13:01:44 | -12.03242 | -77.04370 | 131° | 199km/h | 991m | 0.0m/s | 0°C | 0% | 0hPa | 0V | 00:00:00 | 00:00:00 | 00:00:00 | |
| SQ9PSP-11 | 2026-08-30 13:01:39 | -12.03109 | -77.04588 | 115° | 199km/h | 993m | 0.0m/s | 0°C | 0% | 0hPa | 0V | 00:00:00 | 00:00:00 | 00:00:00 | |
| MIELECB | 2026-08-30 13:01:38 | -12.03090 | -77.04636 | 111° | 199km/h | 992m | -0.0m/s | 0°C | 0% | 0hPa | 0V | 00:00:00 | 00:00:00 | 00:00:00 | |
| MIELECB | 2026-08-30 13:01:31 | -12.03033 | -77.04989 | 89° | 199km/h | 992m | 0.1m/s | 0°C | 0% | 0hPa | 0V | 00:00:00 | 00:00:00 | 00:00:00 | |
| AKAW68 | 2026-08-30 13:01:25 | -12.03094 | -77.05290 | 70° | 199km/h | 992m | -0.0m/s | 0°C | 0% | 0hPa | 0V | 00:00:00 | 00:00:00 | 00:00:00 | |
| MIELECB | 2026-08-30 13:01:25 | -12.03094 | -77.05290 | 70° | 199km/h | 992m | -0.0m/s | 0°C | 0% | 0hPa | 0V | 00:00:00 | 00:00:00 | 00:00:00 | |
| SQ9PSP-11 | 2026-08-30 13:01:23 | -12.03136 | -77.05383 | 63° | 199km/h | 992m | -0.1m/s | 0°C | 0% | 0hPa | 0V | 00:00:00 | 00:00:00 | 00:00:00 | |
| MIELECB | 2026-08-30 13:01:20 | -12.03217 | -77.05514 | 54° | 199km/h | 991m | 0.3m/s | 0°C | 0% | 0hPa | 0V | 00:00:00 | 00:00:00 | 00:00:00 | |
| MIELECB | 2026-08-30 13:01:14 | -12.03438 | -77.05723 | 35° | 199km/h | 993m | 0.0m/s | 0°C | 0% | 0hPa | 0V | 00:00:00 | 00:00:00 | 00:00:00 | |
| MIELECB | 2026-08-30 13:01:08 | -12.03714 | -77.05849 | 15° | 199km/h | 993m | 0.1m/s | 0°C | 0% | 0hPa | 0V | 00:00:00 | 00:00:00 | 00:00:00 | |
| SQ9PSP-11 | 2026-08-30 13:01:06 | -12.03813 | -77.05868 | 9° | 199km/h | 994m | -0.1m/s | 0°C | 0% | 0hPa | 0V | 00:00:00 | 00:00:00 | 00:00:00 | |
| AKAW68 | 2026-08-30 13:01:05 | -12.03863 | -77.05873 | 6° | 199km/h | 993m | 0.1m/s | 0°C | 0% | 0hPa | 0V | 00:00:00 | 00:00:00 | 00:00:00 | |
| MIELECB | 2026-08-30 13:01:02 | -12.04015 | -77.05873 | 356° | 199km/h | 994m | 0.1m/s | 0°C | 0% | 0hPa | 0V | 00:00:00 | 00:00:00 | 00:00:00 | |
| MIELECB | 2026-08-30 13:00:56 | -12.04308 | -77.05795 | 337° | 199km/h | 992m | -0.1m/s | 0°C | 0% | 0hPa | 0V | 00:00:00 | 00:00:00 | 00:00:00 | |
| MIELECB | 2026-08-30 13:00:51 | -12.04521 | -77.05658 | 321° | 199km/h | 993m | 0.0m/s | 0°C | 0% | 0hPa | 0V | 00:00:00 | 00:00:00 | 00:00:00 | |
| SQ9PSP-11 | 2026-08-30 13:00:49 | -12.04595 | -77.05588 | 314° | 199km/h | 991m | -0.2m/s | 0°C | 0% | 0hPa | 0V | 00:00:00 | 00:00:00 | 00:00:00 | |
| MIELECB | 2026-08-30 13:00:45 | -12.04716 | -77.05423 | 301° | 199km/h | 994m | 0.5m/s | 0°C | 0% | 0hPa | 0V | 00:00:00 | 00:00:00 | 00:00:00 | |
| AKAW68 | 2026-08-30 13:00:45 | -12.04716 | -77.05423 | 301° | 199km/h | 994m | 0.5m/s | 0°C | 0% | 0hPa | 0V | 00:00:00 | 00:00:00 | 00:00:00 | |
| MIELECB | 2026-08-30 13:00:40 | -12.04812 | -77.05186 | 285° | 199km/h | 992m | -0.2m/s | 0°C | 0% | 0hPa | 0V | 00:00:00 | 00:00:00 | 00:00:00 | |
| MIELECB | 2026-08-30 13:00:34 | -12.04840 | -77.04879 | 266° | 199km/h | 996m | -0.1m/s | 0°C | 0% | 0hPa | 0V | 00:00:00 | 00:00:00 | 00:00:00 | |
| SQ9PSP-11 | 2026-08-30 13:00:31 | -12.04815 | -77.04727 | 256° | 199km/h | 999m | -0.1m/s | 0°C | 0% | 0hPa | 0V | 00:00:00 | 00:00:00 | 00:00:00 | |
| SP9KGR-15 | 2026-08-30 13:00:30 | -12.04801 | -77.04677 | 253° | 199km/h | 999m | 0.0m/s | 0°C | 0% | 0hPa | 0V | 00:00:00 | 00:00:00 | 00:00:00 | |
| MIELECB | 2026-08-30 13:00:25 | -12.04692 | -77.04444 | 238° | 201km/h | 1002m | 0.6m/s | 0°C | 0% | 0hPa | 0V | 00:00:00 | 00:00:00 | 00:00:00 | |
| AKAW68 | 2026-08-30 13:00:24 | -12.04663 | -77.04402 | 233° | 201km/h | 1001m | 2.1m/s | 0°C | 0% | 0hPa | 0V | 00:00:00 | 00:00:00 | 00:00:00 | |
| MIELECB | 2026-08-30 13:00:19 | -12.04482 | -77.04221 | 218° | 199km/h | 1000m | -0.1m/s | 0°C | 0% | 0hPa | 0V | 00:00:00 | 00:00:00 | 00:00:00 | |
| MIELECB | 2026-08-30 13:00:14 | -12.04260 | -77.04099 | 201° | 197km/h | 991m | 0.6m/s | 0°C | 0% | 0hPa | 0V | 00:00:00 | 00:00:00 | 00:00:00 | |
| SQ9PSP-11 | 2026-08-30 13:00:11 | -12.04114 | -77.04056 | 192° | 199km/h | 991m | 0.0m/s | 0°C | 0% | 0hPa | 0V | 00:00:00 | 00:00:00 | 00:00:00 | |
| MIELECB | 2026-08-30 13:00:07 | -12.03913 | -77.04038 | 179° | 199km/h | 988m | -0.3m/s | 0°C | 0% | 0hPa | 0V | 00:00:00 | 00:00:00 | 00:00:00 | |
| MIELECB | 2026-08-30 13:00:01 | -12.03616 | -77.04099 | 159° | 197km/h | 991m | -0.6m/s | 0°C | 0% | 0hPa | 0V | 00:00:00 | 00:00:00 | 00:00:00 | |
| AKAW68 | 2026-08-30 13:00:01 | -12.03616 | -77.04099 | 159° | 197km/h | 991m | -0.6m/s | 0°C | 0% | 0hPa | 0V | 00:00:00 | 00:00:00 | 00:00:00 | |
| MIELECB | 2026-08-30 12:59:54 | -12.03317 | -77.04288 | 138° | 199km/h | 990m | 0.4m/s | 0°C | 0% | 0hPa | 0V | 00:00:00 | 00:00:00 | 00:00:00 | |
| SQ9PSP-11 | 2026-08-30 12:59:50 | -12.03186 | -77.04445 | 125° | 199km/h | 990m | 0.0m/s | 0°C | 0% | 0hPa | 0V | 00:00:00 | 00:00:00 | 00:00:00 | |
| MIELECB | 2026-08-30 12:59:43 | -12.03050 | -77.04774 | 103° | 199km/h | 989m | -0.3m/s | 0°C | 0% | 0hPa | 0V | 00:00:00 | 00:00:00 | 00:00:00 | |
| AKAW68 | 2026-08-30 12:59:40 | -12.03032 | -77.04927 | 93° | 199km/h | 989m | 0.0m/s | 0°C | 0% | 0hPa | 0V | 00:00:00 | 00:00:00 | 00:00:00 | |
| MIELECB | 2026-08-30 12:59:37 | -12.03040 | -77.05081 | 83° | 199km/h | 989m | 0.1m/s | 0°C | 0% | 0hPa | 0V | 00:00:00 | 00:00:00 | 00:00:00 | |
| MIELECB | 2026-08-30 12:59:32 | -12.03108 | -77.05328 | 67° | 199km/h | 988m | 0.7m/s | 0°C | 0% | 0hPa | 0V | 00:00:00 | 00:00:00 | 00:00:00 | |
| SQ9PSP-11 | 2026-08-30 12:59:32 | -12.03108 | -77.05328 | 67° | 199km/h | 988m | 0.7m/s | 0°C | 0% | 0hPa | 0V | 00:00:00 | 00:00:00 | 00:00:00 | |
| MIELECB | 2026-08-30 12:59:27 | -12.03241 | -77.05546 | 51° | 199km/h | 987m | 0.0m/s | 0°C | 0% | 0hPa | 0V | 00:00:00 | 00:00:00 | 00:00:00 | |
| MIELECB | 2026-08-30 12:59:21 | -12.03471 | -77.05745 | 32° | 199km/h | 987m | 0.0m/s | 0°C | 0% | 0hPa | 0V | 00:00:00 | 00:00:00 | 00:00:00 | |
| AKAW68 | 2026-08-30 12:59:20 | -12.03514 | -77.05771 | 29° | 199km/h | 988m | -0.1m/s | 0°C | 0% | 0hPa | 0V | 00:00:00 | 00:00:00 | 00:00:00 | |
| MIELECB | 2026-08-30 12:59:16 | -12.03703 | -77.05845 | 16° | 199km/h | 988m | 0.0m/s | 0°C | 0% | 0hPa | 0V | 00:00:00 | 00:00:00 | 00:00:00 | |
| MIELECB | 2026-08-30 12:59:10 | -12.04004 | -77.05874 | 357° | 199km/h | 987m | -0.2m/s | 0°C | 0% | 0hPa | 0V | 00:00:00 | 00:00:00 | 00:00:00 | |
| SQ9PSP-11 | 2026-08-30 12:59:06 | -12.04202 | -77.05835 | 344° | 199km/h | 987m | -0.1m/s | 0°C | 0% | 0hPa | 0V | 00:00:00 | 00:00:00 | 00:00:00 | |
| MIELECB | 2026-08-30 12:59:04 | -12.04297 | -77.05799 | 337° | 199km/h | 987m | -0.0m/s | 0°C | 0% | 0hPa | 0V | 00:00:00 | 00:00:00 | 00:00:00 | |
| AKAW68 | 2026-08-30 12:59:00 | -12.04472 | -77.05697 | 324° | 199km/h | 987m | 0.0m/s | 0°C | 0% | 0hPa | 0V | 00:00:00 | 00:00:00 | 00:00:00 | |
| MIELECB | 2026-08-30 12:58:58 | -12.04550 | -77.05630 | 318° | 199km/h | 986m | 0.0m/s | 0°C | 0% | 0hPa | 0V | 00:00:00 | 00:00:00 | 00:00:00 | |
| MIELECB | 2026-08-30 12:58:53 | -12.04709 | -77.05432 | 302° | 199km/h | 987m | -0.1m/s | 0°C | 0% | 0hPa | 0V | 00:00:00 | 00:00:00 | 00:00:00 | |
| MIELECB | 2026-08-30 12:58:47 | -12.04820 | -77.05147 | 283° | 199km/h | 987m | -0.1m/s | 0°C | 0% | 0hPa | 0V | 00:00:00 | 00:00:00 | 00:00:00 | |
| SQ9PSP-11 | 2026-08-30 12:58:44 | -12.04838 | -77.04993 | 273° | 199km/h | 987m | 0.1m/s | 0°C | 0% | 0hPa | 0V | 00:00:00 | 00:00:00 | 00:00:00 | |
| MIELECB | 2026-08-30 12:58:38 | -12.04800 | -77.04688 | 253° | 197km/h | 989m | -1.5m/s | 0°C | 0% | 0hPa | 0V | 00:00:00 | 00:00:00 | 00:00:00 | |
| MIELECB | 2026-08-30 12:58:32 | -12.04664 | -77.04414 | 235° | 199km/h | 989m | 0.0m/s | 0°C | 0% | 0hPa | 0V | 00:00:00 | 00:00:00 | 00:00:00 | |
| SQ9PSP-11 | 2026-08-30 12:58:27 | -12.04488 | -77.04230 | 218° | 199km/h | 989m | -0.1m/s | 0°C | 0% | 0hPa | 0V | 00:00:00 | 00:00:00 | 00:00:00 | |
| MIELECB | 2026-08-30 12:58:26 | -12.04447 | -77.04200 | 215° | 199km/h | 989m | 0.5m/s | 0°C | 0% | 0hPa | 0V | 00:00:00 | 00:00:00 | 00:00:00 | |
| MIELECB | 2026-08-30 12:58:20 | -12.04172 | -77.04069 | 196° | 199km/h | 987m | 0.1m/s | 0°C | 0% | 0hPa | 0V | 00:00:00 | 00:00:00 | 00:00:00 | |
| AKAW68 | 2026-08-30 12:58:18 | -12.04073 | -77.04047 | 187° | 195km/h | 987m | -1.2m/s | 0°C | 0% | 0hPa | 0V | 00:00:00 | 00:00:00 | 00:00:00 | |
| MIELECB | 2026-08-30 12:58:15 | -12.03923 | -77.04038 | 180° | 199km/h | 988m | -0.1m/s | 0°C | 0% | 0hPa | 0V | 00:00:00 | 00:00:00 | 00:00:00 | |
| SQ9PSP-11 | 2026-08-30 12:58:10 | -12.03673 | -77.04078 | 164° | 199km/h | 988m | 0.7m/s | 0°C | 0% | 0hPa | 0V | 00:00:00 | 00:00:00 | 00:00:00 | |
| MIELECB | 2026-08-30 12:58:10 | -12.03673 | -77.04078 | 164° | 199km/h | 988m | 0.7m/s | 0°C | 0% | 0hPa | 0V | 00:00:00 | 00:00:00 | 00:00:00 | |
| MIELECB | 2026-08-30 12:58:05 | -12.03444 | -77.04187 | 148° | 199km/h | 987m | -0.1m/s | 0°C | 0% | 0hPa | 0V | 00:00:00 | 00:00:00 | 00:00:00 | |
| MIELECB | 2026-08-30 12:57:59 | -12.03220 | -77.04393 | 129° | 199km/h | 985m | -0.0m/s | 0°C | 0% | 0hPa | 0V | 00:00:00 | 00:00:00 | 00:00:00 | |
| AKAW68 | 2026-08-30 12:57:58 | -12.03190 | -77.04434 | 126° | 199km/h | 985m | -0.2m/s | 0°C | 0% | 0hPa | 0V | 00:00:00 | 00:00:00 | 00:00:00 | |
| MIELECB | 2026-08-30 12:57:54 | -12.03095 | -77.04616 | 113° | 199km/h | 988m | -0.1m/s | 0°C | 0% | 0hPa | 0V | 00:00:00 | 00:00:00 | 00:00:00 | |
| SQ9PSP-11 | 2026-08-30 12:57:52 | -12.03063 | -77.04713 | 105° | 199km/h | 989m | 0.9m/s | 0°C | 0% | 0hPa | 0V | 00:00:00 | 00:00:00 | 00:00:00 | |
| MIELECB | 2026-08-30 12:57:48 | -12.03032 | -77.04917 | 94° | 204km/h | 992m | 0.8m/s | 0°C | 0% | 0hPa | 0V | 00:00:00 | 00:00:00 | 00:00:00 | |
| MIELECB | 2026-08-30 12:57:42 | -12.03069 | -77.05221 | 74° | 199km/h | 989m | 0.0m/s | 0°C | 0% | 0hPa | 0V | 00:00:00 | 00:00:00 | 00:00:00 | |
| AKAW68 | 2026-08-30 12:57:37 | -12.03175 | -77.05453 | 58° | 199km/h | 989m | 0.1m/s | 0°C | 0% | 0hPa | 0V | 00:00:00 | 00:00:00 | 00:00:00 | |
| MIELECB | 2026-08-30 12:57:36 | -12.03203 | -77.05496 | 55° | 199km/h | 989m | 0.0m/s | 0°C | 0% | 0hPa | 0V | 00:00:00 | 00:00:00 | 00:00:00 | |
| SQ9PSP-11 | 2026-08-30 12:57:35 | -12.03234 | -77.05537 | 52° | 199km/h | 989m | 0.3m/s | 0°C | 0% | 0hPa | 0V | 00:00:00 | 00:00:00 | 00:00:00 | |
| MIELECB | 2026-08-30 12:57:30 | -12.03419 | -77.05711 | 36° | 199km/h | 987m | 0.3m/s | 0°C | 0% | 0hPa | 0V | 00:00:00 | 00:00:00 | 00:00:00 | |
| MIELECB | 2026-08-30 12:57:25 | -12.03645 | -77.05827 | 20° | 199km/h | 986m | 0.1m/s | 0°C | 0% | 0hPa | 0V | 00:00:00 | 00:00:00 | 00:00:00 | |
| MIELECB | 2026-08-30 12:57:19 | -12.03943 | -77.05875 | 360° | 199km/h | 987m | -0.0m/s | 0°C | 0% | 0hPa | 0V | 00:00:00 | 00:00:00 | 00:00:00 | |
| SQ9PSP-11 | 2026-08-30 12:57:17 | -12.04045 | -77.05869 | 354° | 199km/h | 986m | 0.4m/s | 0°C | 0% | 0hPa | 0V | 00:00:00 | 00:00:00 | 00:00:00 | |
| AKAW68 | 2026-08-30 12:57:17 | -12.04045 | -77.05869 | 354° | 199km/h | 986m | 0.4m/s | 0°C | 0% | 0hPa | 0V | 00:00:00 | 00:00:00 | 00:00:00 | |
| MIELECB | 2026-08-30 12:57:14 | -12.04193 | -77.05837 | 344° | 199km/h | 986m | -0.3m/s | 0°C | 0% | 0hPa | 0V | 00:00:00 | 00:00:00 | 00:00:00 | |
| MIELECB | 2026-08-30 12:57:09 | -12.04422 | -77.05731 | 328° | 199km/h | 987m | 0.0m/s | 0°C | 0% | 0hPa | 0V | 00:00:00 | 00:00:00 | 00:00:00 | |
| MIELECB | 2026-08-30 12:57:03 | -12.04646 | -77.05524 | 309° | 197km/h | 989m | 0.2m/s | 0°C | 0% | 0hPa | 0V | 00:00:00 | 00:00:00 | 00:00:00 | |
| MIELECB | 2026-08-30 12:56:57 | -12.04790 | -77.05255 | 290° | 199km/h | 989m | -0.1m/s | 0°C | 0% | 0hPa | 0V | 00:00:00 | 00:00:00 | 00:00:00 | |
| AKAW68 | 2026-08-30 12:56:57 | -12.04790 | -77.05255 | 290° | 199km/h | 989m | -0.1m/s | 0°C | 0% | 0hPa | 0V | 00:00:00 | 00:00:00 | 00:00:00 | |
| SQ9PSP-11 | 2026-08-30 12:56:54 | -12.04827 | -77.05106 | 280° | 197km/h | 990m | -0.8m/s | 0°C | 0% | 0hPa | 0V | 00:00:00 | 00:00:00 | 00:00:00 | |
| MIELECB | 2026-08-30 12:56:51 | -12.04838 | -77.04952 | 271° | 199km/h | 991m | 0.1m/s | 0°C | 0% | 0hPa | 0V | 00:00:00 | 00:00:00 | 00:00:00 | |
| MIELECB | 2026-08-30 12:56:45 | -12.04787 | -77.04649 | 251° | 199km/h | 990m | -0.1m/s | 0°C | 0% | 0hPa | 0V | 00:00:00 | 00:00:00 | 00:00:00 | |
| MIELECB | 2026-08-30 12:56:39 | -12.04640 | -77.04382 | 232° | 199km/h | 990m | 0.0m/s | 0°C | 0% | 0hPa | 0V | 00:00:00 | 00:00:00 | 00:00:00 | |
| AKAW68 | 2026-08-30 12:56:36 | -12.04535 | -77.04270 | 223° | 199km/h | 989m | -0.7m/s | 0°C | 0% | 0hPa | 0V | 00:00:00 | 00:00:00 | 00:00:00 | |
| MIELECB | 2026-08-30 12:56:34 | -12.04455 | -77.04206 | 216° | 199km/h | 989m | 0.0m/s | 0°C | 0% | 0hPa | 0V | 00:00:00 | 00:00:00 | 00:00:00 | |
| MIELECB | 2026-08-30 12:56:29 | -12.04232 | -77.04090 | 200° | 199km/h | 990m | 0.2m/s | 0°C | 0% | 0hPa | 0V | 00:00:00 | 00:00:00 | 00:00:00 | |
| MIELECB | 2026-08-30 12:56:23 | -12.03939 | -77.04040 | 181° | 199km/h | 1027m | -0.0m/s | 0°C | 0% | 0hPa | 0V | 00:00:00 | 00:00:00 | 00:00:00 | |
| MIELECB | 2026-08-30 12:55:55 | -12.04298 | -77.05797 | 337° | 199km/h | 988m | 0.1m/s | 0°C | 0% | 0hPa | 0V | 00:00:00 | 00:00:00 | 00:00:00 | |
| AKAW68 | 2026-08-30 12:55:53 | -12.04388 | -77.05751 | 331° | 199km/h | 988m | 0.1m/s | 0°C | 0% | 0hPa | 0V | 00:00:00 | 00:00:00 | 00:00:00 | |
| MIELECB | 2026-08-30 12:55:49 | -12.04550 | -77.05630 | 318° | 199km/h | 988m | 0.0m/s | 0°C | 0% | 0hPa | 0V | 00:00:00 | 00:00:00 | 00:00:00 | |
| SQ9PSP-11 | 2026-08-30 12:55:46 | -12.04652 | -77.05516 | 309° | 199km/h | 988m | 0.0m/s | 0°C | 0% | 0hPa | 0V | 00:00:00 | 00:00:00 | 00:00:00 | |
| MIELECB | 2026-08-30 12:55:44 | -12.04709 | -77.05431 | 302° | 199km/h | 988m | 0.0m/s | 0°C | 0% | 0hPa | 0V | 00:00:00 | 00:00:00 | 00:00:00 | |
| MIELECB | 2026-08-30 12:55:38 | -12.04820 | -77.05146 | 283° | 199km/h | 987m | -0.0m/s | 0°C | 0% | 0hPa | 0V | 00:00:00 | 00:00:00 | 00:00:00 | |
| MIELECB | 2026-08-30 12:55:32 | -12.04832 | -77.04839 | 263° | 201km/h | 988m | 0.8m/s | 0°C | 0% | 0hPa | 0V | 00:00:00 | 00:00:00 | 00:00:00 | |
| MIELECB | 2026-08-30 12:55:27 | -12.04765 | -77.04592 | 247° | 199km/h | 985m | -0.1m/s | 0°C | 0% | 0hPa | 0V | 00:00:00 | 00:00:00 | 00:00:00 | |
| SQ9PSP-11 | 2026-08-30 12:55:26 | -12.04743 | -77.04545 | 245° | 201km/h | 987m | 0.3m/s | 0°C | 0% | 0hPa | 0V | 00:00:00 | 00:00:00 | 00:00:00 | |
| MIELECB | 2026-08-30 12:55:21 | -12.04599 | -77.04334 | 228° | 199km/h | 986m | 0.1m/s | 0°C | 0% | 0hPa | 0V | 00:00:00 | 00:00:00 | 00:00:00 | |
| MIELECB | 2026-08-30 12:55:15 | -12.04361 | -77.04146 | 209° | 199km/h | 987m | 2.2m/s | 0°C | 0% | 0hPa | 0V | 00:00:00 | 00:00:00 | 00:00:00 | |
| MIELECB | 2026-08-30 12:55:10 | -12.04123 | -77.04057 | 193° | 199km/h | 985m | 0.0m/s | 0°C | 0% | 0hPa | 0V | 00:00:00 | 00:00:00 | 00:00:00 | |
| AKAW68 | 2026-08-30 12:55:08 | -12.04023 | -77.04041 | 186° | 199km/h | 984m | -0.0m/s | 0°C | 0% | 0hPa | 0V | 00:00:00 | 00:00:00 | 00:00:00 | |
| MIELECB | 2026-08-30 12:55:03 | -12.03770 | -77.04050 | 170° | 199km/h | 986m | 0.0m/s | 0°C | 0% | 0hPa | 0V | 00:00:00 | 00:00:00 | 00:00:00 | |
| SQ9PSP-11 | 2026-08-30 12:55:00 | -12.03623 | -77.04086 | 160° | 199km/h | 988m | -0.5m/s | 0°C | 0% | 0hPa | 0V | 00:00:00 | 00:00:00 | 00:00:00 | |
| MIELECB | 2026-08-30 12:54:57 | -12.03484 | -77.04150 | 152° | 199km/h | 989m | -0.3m/s | 0°C | 0% | 0hPa | 0V | 00:00:00 | 00:00:00 | 00:00:00 | |
| MIELECB | 2026-08-30 12:54:51 | -12.03247 | -77.04344 | 131° | 197km/h | 982m | 0.3m/s | 0°C | 0% | 0hPa | 0V | 00:00:00 | 00:00:00 | 00:00:00 | |
| AKAW68 | 2026-08-30 12:54:47 | -12.03132 | -77.04516 | 118° | 203km/h | 982m | 0.5m/s | 0°C | 0% | 0hPa | 0V | 00:00:00 | 00:00:00 | 00:00:00 | |
| MIELECB | 2026-08-30 12:54:46 | -12.03110 | -77.04563 | 115° | 199km/h | 982m | 0.2m/s | 0°C | 0% | 0hPa | 0V | 00:00:00 | 00:00:00 | 00:00:00 | |
| SQ9PSP-11 | 2026-08-30 12:54:45 | -12.03091 | -77.04611 | 111° | 199km/h | 982m | 0.8m/s | 0°C | 0% | 0hPa | 0V | 00:00:00 | 00:00:00 | 00:00:00 | |
| MIELECB | 2026-08-30 12:54:41 | -12.03039 | -77.04810 | 100° | 197km/h | 982m | -0.3m/s | 0°C | 0% | 0hPa | 0V | 00:00:00 | 00:00:00 | 00:00:00 | |
| MIELECB | 2026-08-30 12:54:35 | -12.03045 | -77.05119 | 81° | 197km/h | 984m | -0.0m/s | 0°C | 0% | 0hPa | 0V | 00:00:00 | 00:00:00 | 00:00:00 | |
| MIELECB | 2026-08-30 12:54:29 | -12.03149 | -77.05410 | 61° | 199km/h | 984m | -0.1m/s | 0°C | 0% | 0hPa | 0V | 00:00:00 | 00:00:00 | 00:00:00 | |
| SQ9PSP-11 | 2026-08-30 12:54:28 | -12.03175 | -77.05453 | 58° | 197km/h | 984m | -1.6m/s | 0°C | 0% | 0hPa | 0V | 00:00:00 | 00:00:00 | 00:00:00 | |
| AKAW68 | 2026-08-30 12:54:26 | -12.03235 | -77.05536 | 52° | 199km/h | 985m | -0.0m/s | 0°C | 0% | 0hPa | 0V | 00:00:00 | 00:00:00 | 00:00:00 | |
| MIELECB | 2026-08-30 12:54:22 | -12.03379 | -77.05681 | 38° | 197km/h | 986m | -0.2m/s | 0°C | 0% | 0hPa | 0V | 00:00:00 | 00:00:00 | 00:00:00 | |
| MIELECB | 2026-08-30 12:54:16 | -12.03645 | -77.05827 | 20° | 199km/h | 986m | -0.0m/s | 0°C | 0% | 0hPa | 0V | 00:00:00 | 00:00:00 | 00:00:00 | |
| SQ9PSP-11 | 2026-08-30 12:54:11 | -12.03893 | -77.05875 | 4° | 199km/h | 987m | -0.2m/s | 0°C | 0% | 0hPa | 0V | 00:00:00 | 00:00:00 | 00:00:00 | |
| MIELECB | 2026-08-30 12:54:09 | -12.03994 | -77.05874 | 357° | 199km/h | 988m | 0.0m/s | 0°C | 0% | 0hPa | 0V | 00:00:00 | 00:00:00 | 00:00:00 | |
| AKAW68 | 2026-08-30 12:54:06 | -12.04144 | -77.05852 | 348° | 199km/h | 988m | 0.4m/s | 0°C | 0% | 0hPa | 0V | 00:00:00 | 00:00:00 | 00:00:00 | |
| MIELECB | 2026-08-30 12:54:04 | -12.04241 | -77.05823 | 341° | 199km/h | 987m | -0.0m/s | 0°C | 0% | 0hPa | 0V | 00:00:00 | 00:00:00 | 00:00:00 | |
| MIELECB | 2026-08-30 12:53:59 | -12.04464 | -77.05702 | 325° | 199km/h | 988m | 0.0m/s | 0°C | 0% | 0hPa | 0V | 00:00:00 | 00:00:00 | 00:00:00 | |
| SQ9PSP-11 | 2026-08-30 12:53:55 | -12.04614 | -77.05565 | 312° | 199km/h | 988m | 0.1m/s | 0°C | 0% | 0hPa | 0V | 00:00:00 | 00:00:00 | 00:00:00 | |
| MIELECB | 2026-08-30 12:53:53 | -12.04677 | -77.05483 | 306° | 199km/h | 988m | -0.1m/s | 0°C | 0% | 0hPa | 0V | 00:00:00 | 00:00:00 | 00:00:00 | |
| MIELECB | 2026-08-30 12:53:47 | -12.04806 | -77.05206 | 287° | 199km/h | 988m | 0.1m/s | 0°C | 0% | 0hPa | 0V | 00:00:00 | 00:00:00 | 00:00:00 | |
| AKAW68 | 2026-08-30 12:53:46 | -12.04819 | -77.05156 | 283° | 199km/h | 988m | 0.0m/s | 0°C | 0% | 0hPa | 0V | 00:00:00 | 00:00:00 | 00:00:00 | |
| MIELECB | 2026-08-30 12:53:41 | -12.04838 | -77.04900 | 267° | 199km/h | 989m | 0.0m/s | 0°C | 0% | 0hPa | 0V | 00:00:00 | 00:00:00 | 00:00:00 | |
| SQ9PSP-11 | 2026-08-30 12:53:38 | -12.04815 | -77.04749 | 258° | 199km/h | 988m | 0.0m/s | 0°C | 0% | 0hPa | 0V | 00:00:00 | 00:00:00 | 00:00:00 | |
| MIELECB | 2026-08-30 12:53:35 | -12.04769 | -77.04602 | 248° | 199km/h | 989m | 0.0m/s | 0°C | 0% | 0hPa | 0V | 00:00:00 | 00:00:00 | 00:00:00 | |
| MIELECB | 2026-08-30 12:53:28 | -12.04571 | -77.04306 | 226° | 199km/h | 988m | 0.0m/s | 0°C | 0% | 0hPa | 0V | 00:00:00 | 00:00:00 | 00:00:00 | |
| AKAW68 | 2026-08-30 12:53:25 | -12.04455 | -77.04207 | 216° | 199km/h | 987m | 0.0m/s | 0°C | 0% | 0hPa | 0V | 00:00:00 | 00:00:00 | 00:00:00 | |
| SQ9PSP-11 | 2026-08-30 12:53:23 | -12.04369 | -77.04153 | 210° | 199km/h | 986m | 0.0m/s | 0°C | 0% | 0hPa | 0V | 00:00:00 | 00:00:00 | 00:00:00 | |
| MIELECB | 2026-08-30 12:53:23 | -12.04369 | -77.04153 | 210° | 199km/h | 986m | 0.0m/s | 0°C | 0% | 0hPa | 0V | 00:00:00 | 00:00:00 | 00:00:00 | |
| MIELECB | 2026-08-30 12:53:17 | -12.04084 | -77.04052 | 190° | 199km/h | 988m | 0.3m/s | 0°C | 0% | 0hPa | 0V | 00:00:00 | 00:00:00 | 00:00:00 | |
| MIELECB | 2026-08-30 12:53:11 | -12.03782 | -77.04053 | 171° | 199km/h | 988m | -0.0m/s | 0°C | 0% | 0hPa | 0V | 00:00:00 | 00:00:00 | 00:00:00 | |
| MIELECB | 2026-08-30 12:53:05 | -12.03497 | -77.04155 | 152° | 199km/h | 988m | 0.0m/s | 0°C | 0% | 0hPa | 0V | 00:00:00 | 00:00:00 | 00:00:00 | |
| AKAW68 | 2026-08-30 12:53:05 | -12.03497 | -77.04155 | 152° | 199km/h | 988m | 0.0m/s | 0°C | 0% | 0hPa | 0V | 00:00:00 | 00:00:00 | 00:00:00 | |
| SQ9EZE-12 | 2026-08-30 12:53:04 | -12.03454 | -77.04182 | 148° | 199km/h | 988m | 0.5m/s | 0°C | 0% | 0hPa | 0V | 00:00:00 | 00:00:00 | 00:00:00 | |
| MIELECB | 2026-08-30 12:52:58 | -12.03229 | -77.04387 | 130° | 199km/h | 988m | -0.0m/s | 0°C | 0% | 0hPa | 0V | 00:00:00 | 00:00:00 | 00:00:00 | |
| MIELECB | 2026-08-30 12:52:52 | -12.03083 | -77.04656 | 110° | 199km/h | 987m | -0.0m/s | 0°C | 0% | 0hPa | 0V | 00:00:00 | 00:00:00 | 00:00:00 | |
| MIELECB | 2026-08-30 12:52:46 | -12.03033 | -77.04959 | 91° | 199km/h | 987m | -0.1m/s | 0°C | 0% | 0hPa | 0V | 00:00:00 | 00:00:00 | 00:00:00 | |
| SQ9EZE-12 | 2026-08-30 12:52:45 | -12.03034 | -77.05010 | 88° | 199km/h | 987m | 0.2m/s | 0°C | 0% | 0hPa | 0V | 00:00:00 | 00:00:00 | 00:00:00 | |
| AKAW68 | 2026-08-30 12:52:43 | -12.03045 | -77.05112 | 81° | 199km/h | 987m | -0.0m/s | 0°C | 0% | 0hPa | 0V | 00:00:00 | 00:00:00 | 00:00:00 | |
| MIELECB | 2026-08-30 12:52:40 | -12.03083 | -77.05261 | 72° | 199km/h | 987m | -0.0m/s | 0°C | 0% | 0hPa | 0V | 00:00:00 | 00:00:00 | 00:00:00 | |
| MIELECB | 2026-08-30 12:52:34 | -12.03229 | -77.05530 | 52° | 199km/h | 987m | -0.1m/s | 0°C | 0% | 0hPa | 0V | 00:00:00 | 00:00:00 | 00:00:00 | |
| MIELECB | 2026-08-30 12:52:29 | -12.03454 | -77.05735 | 33° | 199km/h | 986m | -0.0m/s | 0°C | 0% | 0hPa | 0V | 00:00:00 | 00:00:00 | 00:00:00 | |
| MIELECB | 2026-08-30 12:52:23 | -12.03684 | -77.05840 | 17° | 199km/h | 985m | -0.4m/s | 0°C | 0% | 0hPa | 0V | 00:00:00 | 00:00:00 | 00:00:00 | |
| AKAW68 | 2026-08-30 12:52:23 | -12.03684 | -77.05840 | 17° | 199km/h | 985m | -0.4m/s | 0°C | 0% | 0hPa | 0V | 00:00:00 | 00:00:00 | 00:00:00 | |
| SQ9PSP-11 | 2026-08-30 12:52:19 | -12.03883 | -77.05875 | 4° | 199km/h | 987m | -0.1m/s | 0°C | 0% | 0hPa | 0V | 00:00:00 | 00:00:00 | 00:00:00 | |
| MIELECB | 2026-08-30 12:52:18 | -12.03934 | -77.05876 | 1° | 199km/h | 987m | -0.1m/s | 0°C | 0% | 0hPa | 0V | 00:00:00 | 00:00:00 | 00:00:00 | |
| MIELECB | 2026-08-30 12:52:12 | -12.04232 | -77.05825 | 342° | 199km/h | 987m | -0.1m/s | 0°C | 0% | 0hPa | 0V | 00:00:00 | 00:00:00 | 00:00:00 | |
| MIELECB | 2026-08-30 12:52:07 | -12.04457 | -77.05708 | 326° | 199km/h | 987m | -0.0m/s | 0°C | 0% | 0hPa | 0V | 00:00:00 | 00:00:00 | 00:00:00 | |
| AKAW68 | 2026-08-30 12:52:02 | -12.04641 | -77.05531 | 310° | 199km/h | 987m | -0.1m/s | 0°C | 0% | 0hPa | 0V | 00:00:00 | 00:00:00 | 00:00:00 | |
| MIELECB | 2026-08-30 12:52:01 | -12.04671 | -77.05490 | 307° | 199km/h | 987m | 0.2m/s | 0°C | 0% | 0hPa | 0V | 00:00:00 | 00:00:00 | 00:00:00 | |
| MIELECB | 2026-08-30 12:51:56 | -12.04788 | -77.05263 | 291° | 199km/h | 979m | -0.1m/s | 0°C | 0% | 0hPa | 0V | 00:00:00 | 00:00:00 | 00:00:00 | |
| MIELECB | 2026-08-30 12:51:50 | -12.04840 | -77.04960 | 271° | 199km/h | 977m | -0.1m/s | 0°C | 0% | 0hPa | 0V | 00:00:00 | 00:00:00 | 00:00:00 | |
| MIELECB | 2026-08-30 12:51:45 | -12.04808 | -77.04705 | 255° | 197km/h | 990m | 0.5m/s | 0°C | 0% | 0hPa | 0V | 00:00:00 | 00:00:00 | 00:00:00 | |
| MIELECB | 2026-08-30 12:51:39 | -12.04676 | -77.04430 | 236° | 199km/h | 986m | -0.4m/s | 0°C | 0% | 0hPa | 0V | 00:00:00 | 00:00:00 | 00:00:00 | |
| MIELECB | 2026-08-30 12:51:34 | -12.04504 | -77.04243 | 220° | 199km/h | 987m | -0.2m/s | 0°C | 0% | 0hPa | 0V | 00:00:00 | 00:00:00 | 00:00:00 | |
| MIELECB | 2026-08-30 12:51:28 | -12.04240 | -77.04093 | 201° | 199km/h | 988m | -0.2m/s | 0°C | 0% | 0hPa | 0V | 00:00:00 | 00:00:00 | 00:00:00 | |
| MIELECB | 2026-08-30 12:51:22 | -12.03943 | -77.04038 | 181° | 199km/h | 983m | -0.3m/s | 0°C | 0% | 0hPa | 0V | 00:00:00 | 00:00:00 | 00:00:00 | |
| MIELECB | 2026-08-30 12:51:16 | -12.03644 | -77.04088 | 162° | 199km/h | 985m | 0.2m/s | 0°C | 0% | 0hPa | 0V | 00:00:00 | 00:00:00 | 00:00:00 | |
| AKAW68 | 2026-08-30 12:51:15 | -12.03597 | -77.04105 | 159° | 199km/h | 986m | 0.1m/s | 0°C | 0% | 0hPa | 0V | 00:00:00 | 00:00:00 | 00:00:00 | |
| MIELECB | 2026-08-30 12:51:11 | -12.03419 | -77.04203 | 146° | 199km/h | 987m | 0.0m/s | 0°C | 0% | 0hPa | 0V | 00:00:00 | 00:00:00 | 00:00:00 | |
| MIELECB | 2026-08-30 12:51:05 | -12.03203 | -77.04418 | 127° | 199km/h | 985m | 0.1m/s | 0°C | 0% | 0hPa | 0V | 00:00:00 | 00:00:00 | 00:00:00 | |
| MIELECB | 2026-08-30 12:50:59 | -12.03069 | -77.04694 | 108° | 199km/h | 970m | -0.0m/s | 0°C | 0% | 0hPa | 0V | 00:00:00 | 00:00:00 | 00:00:00 | |
| MIELECB | 2026-08-30 12:31:01 | 50.04866 | 21.58984 | 88° | 26km/h | 18676m | 9.7m/s | 0°C | 0% | 0hPa | 0V | 00:00:00 | 00:00:00 | 00:00:00 | |
| MIELECB | 2026-08-30 12:30:55 | 50.04855 | 21.58949 | 31° | 11km/h | 18630m | 2.9m/s | 0°C | 0% | 0hPa | 0V | 00:00:00 | 00:00:00 | 00:00:00 | |
| AKAW68 | 2026-08-30 12:30:53 | 50.04852 | 21.58945 | 96° | 5km/h | 18623m | 3.8m/s | 0°C | 0% | 0hPa | 0V | 00:00:00 | 00:00:00 | 00:00:00 | |
| MIELECB | 2026-08-30 12:30:50 | 50.04854 | 21.58940 | 115° | 4km/h | 18613m | 3.9m/s | 0°C | 0% | 0hPa | 0V | 00:00:00 | 00:00:00 | 00:00:00 | |
| SQ9PSP-11 | 2026-08-30 12:30:46 | 50.04851 | 21.58937 | 113° | 4km/h | 18600m | 4.1m/s | 0°C | 0% | 0hPa | 0V | 00:00:00 | 00:00:00 | 00:00:00 | |
| MIELECB | 2026-08-30 12:30:44 | 50.04854 | 21.58932 | 134° | 11km/h | 18592m | 3.4m/s | 0°C | 0% | 0hPa | 0V | 00:00:00 | 00:00:00 | 00:00:00 | |
| MIELECB | 2026-08-30 12:30:39 | 50.04856 | 21.58922 | 122° | 4km/h | 18575m | 4.1m/s | 0°C | 0% | 0hPa | 0V | 00:00:00 | 00:00:00 | 00:00:00 | |
| MIELECB | 2026-08-30 12:30:34 | 50.04858 | 21.58916 | 77° | 2km/h | 18558m | 3.4m/s | 0°C | 0% | 0hPa | 0V | 00:00:00 | 00:00:00 | 00:00:00 | |
| AKAW68 | 2026-08-30 12:30:32 | 50.04860 | 21.58914 | 159° | 7km/h | 18550m | 4.0m/s | 0°C | 0% | 0hPa | 0V | 00:00:00 | 00:00:00 | 00:00:00 | |
| SQ9PSP-11 | 2026-08-30 12:30:31 | 50.04861 | 21.58912 | 158° | 9km/h | 18547m | 2.8m/s | 0°C | 0% | 0hPa | 0V | 00:00:00 | 00:00:00 | 00:00:00 | |
| MIELECB | 2026-08-30 12:30:28 | 50.04863 | 21.58910 | 40° | 2km/h | 18537m | 3.0m/s | 0°C | 0% | 0hPa | 0V | 00:00:00 | 00:00:00 | 00:00:00 | |
| MIELECB | 2026-08-30 12:30:22 | 50.04868 | 21.58901 | 139° | 5km/h | 18517m | 3.3m/s | 0°C | 0% | 0hPa | 0V | 00:00:00 | 00:00:00 | 00:00:00 | |
| MIELECB | 2026-08-30 12:30:17 | 50.04866 | 21.58895 | 133° | 7km/h | 18501m | 2.9m/s | 0°C | 0% | 0hPa | 0V | 00:00:00 | 00:00:00 | 00:00:00 | |
| SQ9PSP-11 | 2026-08-30 12:30:16 | 50.04869 | 21.58890 | 131° | 9km/h | 18495m | 3.2m/s | 0°C | 0% | 0hPa | 0V | 00:00:00 | 00:00:00 | 00:00:00 | |
| AKAW68 | 2026-08-30 12:30:11 | 50.04871 | 21.58876 | 91° | 9km/h | 18481m | 3.4m/s | 0°C | 0% | 0hPa | 0V | 00:00:00 | 00:00:00 | 00:00:00 | |
| MIELECB | 2026-08-30 12:30:06 | 50.04874 | 21.58858 | 69° | 11km/h | 18463m | 3.8m/s | 0°C | 0% | 0hPa | 0V | 00:00:00 | 00:00:00 | 00:00:00 | |
| MIELECB | 2026-08-30 12:30:00 | 50.04874 | 21.58822 | 84° | 13km/h | 18442m | 3.7m/s | 0°C | 0% | 0hPa | 0V | 00:00:00 | 00:00:00 | 00:00:00 | |
| SQ9PSP-11 | 2026-08-30 12:29:59 | 50.04873 | 21.58818 | 56° | 9km/h | 18438m | 4.1m/s | 0°C | 0% | 0hPa | 0V | 00:00:00 | 00:00:00 | 00:00:00 | |
| MIELECB | 2026-08-30 12:29:55 | 50.04868 | 21.58804 | 96° | 16km/h | 18425m | 3.1m/s | 0°C | 0% | 0hPa | 0V | 00:00:00 | 00:00:00 | 00:00:00 | |
| AKAW68 | 2026-08-30 12:29:50 | 50.04865 | 21.58771 | 74° | 18km/h | 18408m | 3.5m/s | 0°C | 0% | 0hPa | 0V | 00:00:00 | 00:00:00 | 00:00:00 | |
| MIELECB | 2026-08-30 12:29:49 | 50.04864 | 21.58764 | 69° | 16km/h | 18405m | 3.7m/s | 0°C | 0% | 0hPa | 0V | 00:00:00 | 00:00:00 | 00:00:00 | |
| SQ9PSP-11 | 2026-08-30 12:29:44 | 50.04857 | 21.58741 | 81° | 16km/h | 18388m | 4.2m/s | 0°C | 0% | 0hPa | 0V | 00:00:00 | 00:00:00 | 00:00:00 | |
| MIELECB | 2026-08-30 12:29:43 | 50.04856 | 21.58734 | 89° | 22km/h | 18384m | 4.2m/s | 0°C | 0% | 0hPa | 0V | 00:00:00 | 00:00:00 | 00:00:00 | |
| MIELECB | 2026-08-30 12:29:38 | 50.04851 | 21.58692 | 52° | 15km/h | 18366m | 3.5m/s | 0°C | 0% | 0hPa | 0V | 00:00:00 | 00:00:00 | 00:00:00 | |
| MIELECB | 2026-08-30 12:29:32 | 50.04843 | 21.58659 | 70° | 22km/h | 18347m | 2.7m/s | 0°C | 0% | 0hPa | 0V | 00:00:00 | 00:00:00 | 00:00:00 | |
| AKAW68 | 2026-08-30 12:29:29 | 50.04841 | 21.58628 | 98° | 29km/h | 18337m | 3.0m/s | 0°C | 0% | 0hPa | 0V | 00:00:00 | 00:00:00 | 00:00:00 | |
| SQ9PSP-11 | 2026-08-30 12:29:28 | 50.04842 | 21.58617 | 97° | 29km/h | 18334m | 3.1m/s | 0°C | 0% | 0hPa | 0V | 00:00:00 | 00:00:00 | 00:00:00 | |
| MIELECB | 2026-08-30 12:29:26 | 50.04841 | 21.58598 | 76° | 20km/h | 18328m | 3.2m/s | 0°C | 0% | 0hPa | 0V | 00:00:00 | 00:00:00 | 00:00:00 | |
| MIELECB | 2026-08-30 12:29:21 | 50.04830 | 21.58562 | 85° | 24km/h | 18311m | 2.5m/s | 0°C | 0% | 0hPa | 0V | 00:00:00 | 00:00:00 | 00:00:00 | |
| MIELECB | 2026-08-30 12:29:15 | 50.04826 | 21.58494 | 87° | 26km/h | 18291m | 3.7m/s | 0°C | 0% | 0hPa | 0V | 00:00:00 | 00:00:00 | 00:00:00 | |
| SQ9PSP-11 | 2026-08-30 12:29:12 | 50.04824 | 21.58467 | 72° | 22km/h | 18281m | 4.2m/s | 0°C | 0% | 0hPa | 0V | 00:00:00 | 00:00:00 | 00:00:00 | |
| MIELECB | 2026-08-30 12:29:09 | 50.04819 | 21.58436 | 86° | 31km/h | 18271m | 3.6m/s | 0°C | 0% | 0hPa | 0V | 00:00:00 | 00:00:00 | 00:00:00 | |
| AKAW68 | 2026-08-30 12:29:08 | 50.04818 | 21.58424 | 86° | 31km/h | 18268m | 4.0m/s | 0°C | 0% | 0hPa | 0V | 00:00:00 | 00:00:00 | 00:00:00 | |
| MIELECB | 2026-08-30 12:29:04 | 50.04814 | 21.58382 | 68° | 20km/h | 18253m | 3.8m/s | 0°C | 0% | 0hPa | 0V | 00:00:00 | 00:00:00 | 00:00:00 | |
| MIELECB | 2026-08-30 12:28:58 | 50.04800 | 21.58339 | 71° | 27km/h | 18232m | 2.7m/s | 0°C | 0% | 0hPa | 0V | 00:00:00 | 00:00:00 | 00:00:00 | |
| SQ9PSP-11 | 2026-08-30 12:28:57 | 50.04799 | 21.58328 | 82° | 29km/h | 18229m | 4.3m/s | 0°C | 0% | 0hPa | 0V | 00:00:00 | 00:00:00 | 00:00:00 | |
| MIELECB | 2026-08-30 12:28:53 | 50.04793 | 21.58291 | 48° | 20km/h | 18215m | 4.1m/s | 0°C | 0% | 0hPa | 0V | 00:00:00 | 00:00:00 | 00:00:00 | |
| MIELECB | 2026-08-30 12:28:48 | 50.04779 | 21.58257 | 85° | 27km/h | 18198m | 3.4m/s | 0°C | 0% | 0hPa | 0V | 00:00:00 | 00:00:00 | 00:00:00 | |
| AKAW68 | 2026-08-30 12:28:47 | 50.04778 | 21.58247 | 87° | 26km/h | 18195m | 3.9m/s | 0°C | 0% | 0hPa | 0V | 00:00:00 | 00:00:00 | 00:00:00 | |
| MIELECB | 2026-08-30 12:28:42 | 50.04771 | 21.58218 | 41° | 15km/h | 18178m | 3.2m/s | 0°C | 0% | 0hPa | 0V | 00:00:00 | 00:00:00 | 00:00:00 | |
| SQ9PSP-11 | 2026-08-30 12:28:41 | 50.04768 | 21.58214 | 45° | 18km/h | 18175m | 3.2m/s | 0°C | 0% | 0hPa | 0V | 00:00:00 | 00:00:00 | 00:00:00 | |
| MIELECB | 2026-08-30 12:28:37 | 50.04756 | 21.58183 | 83° | 22km/h | 18161m | 3.6m/s | 0°C | 0% | 0hPa | 0V | 00:00:00 | 00:00:00 | 00:00:00 | |
| MIELECB | 2026-08-30 12:28:32 | 50.04755 | 21.58165 | 26° | 16km/h | 18144m | 3.6m/s | 0°C | 0% | 0hPa | 0V | 00:00:00 | 00:00:00 | 00:00:00 | |
| AKAW68 | 2026-08-30 12:28:27 | 50.04743 | 21.58127 | 110° | 16km/h | 18130m | 3.5m/s | 0°C | 0% | 0hPa | 0V | 00:00:00 | 00:00:00 | 00:00:00 | |
| MIELECB | 2026-08-30 12:28:26 | 50.04744 | 21.58123 | 120° | 5km/h | 18126m | 3.2m/s | 0°C | 0% | 0hPa | 0V | 00:00:00 | 00:00:00 | 00:00:00 | |
| MIELECB | 2026-08-30 12:28:20 | 50.04731 | 21.58107 | 69° | 22km/h | 18106m | 3.5m/s | 0°C | 0% | 0hPa | 0V | 00:00:00 | 00:00:00 | 00:00:00 | |
| MIELECB | 2026-08-30 12:28:14 | 50.04730 | 21.58092 | 356° | 13km/h | 18087m | 3.5m/s | 0°C | 0% | 0hPa | 0V | 00:00:00 | 00:00:00 | 00:00:00 | |
| SQ9PSP-11 | 2026-08-30 12:28:10 | 50.04721 | 21.58082 | 82° | 9km/h | 18074m | 3.3m/s | 0°C | 0% | 0hPa | 0V | 00:00:00 | 00:00:00 | 00:00:00 | |
| MIELECB | 2026-08-30 12:28:09 | 50.04721 | 21.58078 | 96° | 9km/h | 18072m | 2.4m/s | 0°C | 0% | 0hPa | 0V | 00:00:00 | 00:00:00 | 00:00:00 | |
| AKAW68 | 2026-08-30 12:28:06 | 50.04721 | 21.58071 | 37° | 5km/h | 18062m | 4.1m/s | 0°C | 0% | 0hPa | 0V | 00:00:00 | 00:00:00 | 00:00:00 | |
| MIELECB | 2026-08-30 12:28:03 | 50.04717 | 21.58071 | 310° | 2km/h | 18052m | 3.9m/s | 0°C | 0% | 0hPa | 0V | 00:00:00 | 00:00:00 | 00:00:00 | |
| MIELECB | 2026-08-30 12:27:58 | 50.04714 | 21.58062 | 59° | 13km/h | 18035m | 3.3m/s | 0°C | 0% | 0hPa | 0V | 00:00:00 | 00:00:00 | 00:00:00 | |
| SQ9PSP-11 | 2026-08-30 12:27:54 | 50.04713 | 21.58051 | 67° | 2km/h | 18023m | 3.5m/s | 0°C | 0% | 0hPa | 0V | 00:00:00 | 00:00:00 | 00:00:00 | |
| MIELECB | 2026-08-30 12:27:53 | 50.04712 | 21.58051 | 14° | 5km/h | 18018m | 4.9m/s | 0°C | 0% | 0hPa | 0V | 00:00:00 | 00:00:00 | 00:00:00 | |
| MIELECB | 2026-08-30 12:27:47 | 50.04708 | 21.58047 | 105° | 9km/h | 17998m | 2.1m/s | 0°C | 0% | 0hPa | 0V | 00:00:00 | 00:00:00 | 00:00:00 | |
| AKAW68 | 2026-08-30 12:27:46 | 50.04708 | 21.58043 | 78° | 13km/h | 17996m | 3.4m/s | 0°C | 0% | 0hPa | 0V | 00:00:00 | 00:00:00 | 00:00:00 | |
| MIELECB | 2026-08-30 12:27:42 | 50.04703 | 21.58028 | 28° | 2km/h | 17984m | 4.5m/s | 0°C | 0% | 0hPa | 0V | 00:00:00 | 00:00:00 | 00:00:00 | |
| SQ9PSP-11 | 2026-08-30 12:27:38 | 50.04704 | 21.58027 | 70° | 13km/h | 17972m | 3.8m/s | 0°C | 0% | 0hPa | 0V | 00:00:00 | 00:00:00 | 00:00:00 | |
| MIELECB | 2026-08-30 12:27:36 | 50.04700 | 21.58014 | 70° | 22km/h | 17966m | 2.5m/s | 0°C | 0% | 0hPa | 0V | 00:00:00 | 00:00:00 | 00:00:00 | |
| MIELECB | 2026-08-30 12:27:31 | 50.04698 | 21.57994 | 82° | 4km/h | 17950m | 4.2m/s | 0°C | 0% | 0hPa | 0V | 00:00:00 | 00:00:00 | 00:00:00 | |
| AKAW68 | 2026-08-30 12:27:25 | 50.04690 | 21.57974 | 96° | 11km/h | 17933m | 2.8m/s | 0°C | 0% | 0hPa | 0V | 00:00:00 | 00:00:00 | 00:00:00 | |
| SQ9PSP-11 | 2026-08-30 12:27:23 | 50.04692 | 21.57962 | 101° | 18km/h | 17926m | 4.2m/s | 0°C | 0% | 0hPa | 0V | 00:00:00 | 00:00:00 | 00:00:00 | |
| MIELECB | 2026-08-30 12:27:20 | 50.04695 | 21.57939 | 100° | 15km/h | 17916m | 3.8m/s | 0°C | 0% | 0hPa | 0V | 00:00:00 | 00:00:00 | 00:00:00 | |
| MIELECB | 2026-08-30 12:27:15 | 50.04690 | 21.57921 | 58° | 18km/h | 17901m | 3.2m/s | 0°C | 0% | 0hPa | 0V | 00:00:00 | 00:00:00 | 00:00:00 | |
| MIELECB | 2026-08-30 12:27:09 | 50.04690 | 21.57875 | 101° | 24km/h | 17884m | 4.0m/s | 0°C | 0% | 0hPa | 0V | 00:00:00 | 00:00:00 | 00:00:00 | |
| SQ9PSP-11 | 2026-08-30 12:27:07 | 50.04690 | 21.57858 | 83° | 20km/h | 17878m | 3.7m/s | 0°C | 0% | 0hPa | 0V | 00:00:00 | 00:00:00 | 00:00:00 | |
| AKAW68 | 2026-08-30 12:27:04 | 50.04691 | 21.57838 | 89° | 13km/h | 17869m | 2.5m/s | 0°C | 0% | 0hPa | 0V | 00:00:00 | 00:00:00 | 00:00:00 | |
| MIELECB | 2026-08-30 12:27:03 | 50.04690 | 21.57832 | 74° | 16km/h | 17866m | 4.3m/s | 0°C | 0% | 0hPa | 0V | 00:00:00 | 00:00:00 | 00:00:00 | |
| MIELECB | 2026-08-30 12:26:58 | 50.04684 | 21.57797 | 82° | 18km/h | 17848m | 2.8m/s | 0°C | 0% | 0hPa | 0V | 00:00:00 | 00:00:00 | 00:00:00 | |
| SQ9PSP-11 | 2026-08-30 12:26:52 | 50.04673 | 21.57745 | 56° | 13km/h | 17825m | 3.0m/s | 0°C | 0% | 0hPa | 0V | 00:00:00 | 00:00:00 | 00:00:00 | |
| MIELECB | 2026-08-30 12:26:46 | 50.04658 | 21.57714 | 59° | 22km/h | 17809m | 4.3m/s | 0°C | 0% | 0hPa | 0V | 00:00:00 | 00:00:00 | 00:00:00 | |
| AKAW68 | 2026-08-30 12:26:43 | 50.04650 | 21.57690 | 53° | 26km/h | 17800m | 3.5m/s | 0°C | 0% | 0hPa | 0V | 00:00:00 | 00:00:00 | 00:00:00 | |
| MIELECB | 2026-08-30 12:26:41 | 50.04641 | 21.57677 | 40° | 24km/h | 17794m | 3.3m/s | 0°C | 0% | 0hPa | 0V | 00:00:00 | 00:00:00 | 00:00:00 | |
| SQ9PSP-11 | 2026-08-30 12:26:35 | 50.04621 | 21.57640 | 58° | 37km/h | 17776m | 3.8m/s | 0°C | 0% | 0hPa | 0V | 00:00:00 | 00:00:00 | 00:00:00 | |
| MIELECB | 2026-08-30 12:26:29 | 50.04595 | 21.57588 | 44° | 24km/h | 17756m | 3.4m/s | 0°C | 0% | 0hPa | 0V | 00:00:00 | 00:00:00 | 00:00:00 | |
| AKAW68 | 2026-08-30 12:26:23 | 50.04571 | 21.57542 | 54° | 27km/h | 17737m | 4.2m/s | 0°C | 0% | 0hPa | 0V | 00:00:00 | 00:00:00 | 00:00:00 | |
| SQ9PSP-11 | 2026-08-30 12:26:19 | 50.04551 | 21.57514 | 30° | 20km/h | 17722m | 4.0m/s | 0°C | 0% | 0hPa | 0V | 00:00:00 | 00:00:00 | 00:00:00 | |
| MIELECB | 2026-08-30 12:26:18 | 50.04547 | 21.57510 | 30° | 18km/h | 17719m | 3.0m/s | 0°C | 0% | 0hPa | 0V | 00:00:00 | 00:00:00 | 00:00:00 | |
| MIELECB | 2026-08-30 12:26:13 | 50.04526 | 21.57477 | 61° | 24km/h | 17701m | 4.0m/s | 0°C | 0% | 0hPa | 0V | 00:00:00 | 00:00:00 | 00:00:00 | |
| MIELECB | 2026-08-30 12:26:08 | 50.04502 | 21.57447 | 18° | 26km/h | 17684m | 3.2m/s | 0°C | 0% | 0hPa | 0V | 00:00:00 | 00:00:00 | 00:00:00 | |
| AKAW68 | 2026-08-30 12:26:03 | 50.04483 | 21.57426 | 53° | 29km/h | 17668m | 4.3m/s | 0°C | 0% | 0hPa | 0V | 00:00:00 | 00:00:00 | 00:00:00 | |
| MIELECB | 2026-08-30 12:26:02 | 50.04478 | 21.57417 | 49° | 33km/h | 17665m | 1.9m/s | 0°C | 0% | 0hPa | 0V | 00:00:00 | 00:00:00 | 00:00:00 | |
| MIELECB | 2026-08-30 12:25:57 | 50.04453 | 21.57395 | 9° | 13km/h | 17651m | 2.8m/s | 0°C | 0% | 0hPa | 0V | 00:00:00 | 00:00:00 | 00:00:00 | |
| MIELECB | 2026-08-30 12:25:51 | 50.04426 | 21.57370 | 46° | 20km/h | 17632m | 3.3m/s | 0°C | 0% | 0hPa | 0V | 00:00:00 | 00:00:00 | 00:00:00 | |
| SQ9EZE-12 | 2026-08-30 12:25:48 | 50.04416 | 21.57353 | 48° | 20km/h | 17622m | 3.1m/s | 0°C | 0% | 0hPa | 0V | 00:00:00 | 00:00:00 | 00:00:00 | |
| MIELECB | 2026-08-30 12:25:46 | 50.04406 | 21.57343 | 27° | 20km/h | 17617m | 2.4m/s | 0°C | 0% | 0hPa | 0V | 00:00:00 | 00:00:00 | 00:00:00 | |
| AKAW68 | 2026-08-30 12:25:42 | 50.04387 | 21.57340 | 359° | 20km/h | 17603m | 2.8m/s | 0°C | 0% | 0hPa | 0V | 00:00:00 | 00:00:00 | 00:00:00 | |
| MIELECB | 2026-08-30 12:25:41 | 50.04381 | 21.57339 | 14° | 24km/h | 17600m | 3.8m/s | 0°C | 0% | 0hPa | 0V | 00:00:00 | 00:00:00 | 00:00:00 | |
| MIELECB | 2026-08-30 12:25:35 | 50.04349 | 21.57322 | 334° | 16km/h | 17582m | 3.8m/s | 0°C | 0% | 0hPa | 0V | 00:00:00 | 00:00:00 | 00:00:00 | |
| SQ9PSP-11 | 2026-08-30 12:25:33 | 50.04339 | 21.57329 | 347° | 29km/h | 17575m | 3.7m/s | 0°C | 0% | 0hPa | 0V | 00:00:00 | 00:00:00 | 00:00:00 | |
| MIELECB | 2026-08-30 12:25:29 | 50.04312 | 21.57324 | 28° | 22km/h | 17560m | 3.8m/s | 0°C | 0% | 0hPa | 0V | 00:00:00 | 00:00:00 | 00:00:00 | |
| MIELECB | 2026-08-30 12:25:24 | 50.04280 | 21.57323 | 345° | 33km/h | 17543m | 3.0m/s | 0°C | 0% | 0hPa | 0V | 00:00:00 | 00:00:00 | 00:00:00 | |
| AKAW68 | 2026-08-30 12:25:22 | 50.04267 | 21.57330 | 345° | 26km/h | 17537m | 3.9m/s | 0°C | 0% | 0hPa | 0V | 00:00:00 | 00:00:00 | 00:00:00 | |
| MIELECB | 2026-08-30 12:25:18 | 50.04246 | 21.57334 | 356° | 26km/h | 17524m | 2.7m/s | 0°C | 0% | 0hPa | 0V | 00:00:00 | 00:00:00 | 00:00:00 | |
| SQ9PSP-11 | 2026-08-30 12:25:17 | 50.04238 | 21.57335 | 357° | 31km/h | 17521m | 3.6m/s | 0°C | 0% | 0hPa | 0V | 00:00:00 | 00:00:00 | 00:00:00 | |
| MIELECB | 2026-08-30 12:25:12 | 50.04201 | 21.57343 | 338° | 27km/h | 17505m | 4.4m/s | 0°C | 0% | 0hPa | 0V | 00:00:00 | 00:00:00 | 00:00:00 | |
| MIELECB | 2026-08-30 12:25:06 | 50.04161 | 21.57362 | 2° | 26km/h | 17483m | 3.8m/s | 0°C | 0% | 0hPa | 0V | 00:00:00 | 00:00:00 | 00:00:00 | |
| AKAW68 | 2026-08-30 12:25:01 | 50.04128 | 21.57375 | 335° | 22km/h | 17466m | 3.5m/s | 0°C | 0% | 0hPa | 0V | 00:00:00 | 00:00:00 | 00:00:00 | |
| MIELECB | 2026-08-30 12:25:00 | 50.04123 | 21.57379 | 334° | 22km/h | 17463m | 3.2m/s | 0°C | 0% | 0hPa | 0V | 00:00:00 | 00:00:00 | 00:00:00 | |
| MIELECB | 2026-08-30 12:24:54 | 50.04088 | 21.57394 | 348° | 16km/h | 17443m | 3.4m/s | 0°C | 0% | 0hPa | 0V | 00:00:00 | 00:00:00 | 00:00:00 | |
| SQ9EZE-12 | 2026-08-30 12:24:53 | 50.04084 | 21.57396 | 348° | 16km/h | 17440m | 3.5m/s | 0°C | 0% | 0hPa | 0V | 00:00:00 | 00:00:00 | 00:00:00 | |
| MIELECB | 2026-08-30 12:24:48 | 50.04057 | 21.57413 | 337° | 26km/h | 17421m | 2.3m/s | 0°C | 0% | 0hPa | 0V | 00:00:00 | 00:00:00 | 00:00:00 | |
| SQ9PSP-11 | 2026-08-30 12:24:46 | 50.04047 | 21.57419 | 350° | 22km/h | 17414m | 4.4m/s | 0°C | 0% | 0hPa | 0V | 00:00:00 | 00:00:00 | 00:00:00 | |
| MIELECB | 2026-08-30 12:24:42 | 50.04027 | 21.57419 | 350° | 13km/h | 17401m | 3.4m/s | 0°C | 0% | 0hPa | 0V | 00:00:00 | 00:00:00 | 00:00:00 | |
| MIELECB | 2026-08-30 12:24:36 | 50.03999 | 21.57443 | 352° | 29km/h | 17384m | 3.2m/s | 0°C | 0% | 0hPa | 0V | 00:00:00 | 00:00:00 | 00:00:00 | |
| MIELECB | 2026-08-30 12:24:30 | 50.03979 | 21.57459 | 308° | 22km/h | 17364m | 3.4m/s | 0°C | 0% | 0hPa | 0V | 00:00:00 | 00:00:00 | 00:00:00 | |
| SQ9EZE-12 | 2026-08-30 12:24:29 | 50.03976 | 21.57466 | 315° | 22km/h | 17361m | 4.1m/s | 0°C | 0% | 0hPa | 0V | 00:00:00 | 00:00:00 | 00:00:00 | |
| MIELECB | 2026-08-30 12:24:24 | 50.03953 | 21.57483 | 330° | 16km/h | 17345m | 4.1m/s | 0°C | 0% | 0hPa | 0V | 00:00:00 | 00:00:00 | 00:00:00 | |
| AKAW68 | 2026-08-30 12:24:21 | 50.03943 | 21.57499 | 308° | 18km/h | 17334m | 3.4m/s | 0°C | 0% | 0hPa | 0V | 00:00:00 | 00:00:00 | 00:00:00 | |
| MIELECB | 2026-08-30 12:24:18 | 50.03937 | 21.57513 | 307° | 15km/h | 17325m | 3.6m/s | 0°C | 0% | 0hPa | 0V | 00:00:00 | 00:00:00 | 00:00:00 | |
| SQ9PSP-11 | 2026-08-30 12:24:14 | 50.03922 | 21.57532 | 327° | 15km/h | 17312m | 2.8m/s | 0°C | 0% | 0hPa | 0V | 00:00:00 | 00:00:00 | 00:00:00 | |
| MIELECB | 2026-08-30 12:24:13 | 50.03919 | 21.57535 | 324° | 15km/h | 17309m | 3.9m/s | 0°C | 0% | 0hPa | 0V | 00:00:00 | 00:00:00 | 00:00:00 | |
| SQ9EZE-12 | 2026-08-30 12:24:03 | 50.03896 | 21.57573 | 333° | 22km/h | 17274m | 3.7m/s | 0°C | 0% | 0hPa | 0V | 00:00:00 | 00:00:00 | 00:00:00 | |
| MIELECB | 2026-08-30 12:24:02 | 50.03891 | 21.57577 | 329° | 22km/h | 17271m | 2.4m/s | 0°C | 0% | 0hPa | 0V | 00:00:00 | 00:00:00 | 00:00:00 | |
| AKAW68 | 2026-08-30 12:24:01 | 50.03887 | 21.57581 | 325° | 15km/h | 17269m | 3.2m/s | 0°C | 0% | 0hPa | 0V | 00:00:00 | 00:00:00 | 00:00:00 | |
| SQ9PSP-11 | 2026-08-30 12:23:59 | 50.03884 | 21.57588 | 273° | 9km/h | 17263m | 2.6m/s | 0°C | 0% | 0hPa | 0V | 00:00:00 | 00:00:00 | 00:00:00 | |
| MIELECB | 2026-08-30 12:23:57 | 50.03883 | 21.57595 | 311° | 11km/h | 17257m | 3.9m/s | 0°C | 0% | 0hPa | 0V | 00:00:00 | 00:00:00 | 00:00:00 | |
| MIELECB | 2026-08-30 12:23:51 | 50.03865 | 21.57611 | 325° | 11km/h | 17236m | 3.6m/s | 0°C | 0% | 0hPa | 0V | 00:00:00 | 00:00:00 | 00:00:00 | |
| MIELECB | 2026-08-30 12:23:45 | 50.03857 | 21.57632 | 324° | 9km/h | 17215m | 4.1m/s | 0°C | 0% | 0hPa | 0V | 00:00:00 | 00:00:00 | 00:00:00 | |
| SQ9PSP-11 | 2026-08-30 12:23:43 | 50.03851 | 21.57636 | 350° | 18km/h | 17208m | 3.6m/s | 0°C | 0% | 0hPa | 0V | 00:00:00 | 00:00:00 | 00:00:00 | |
| AKAW68 | 2026-08-30 12:23:41 | 50.03842 | 21.57640 | 336° | 15km/h | 17202m | 4.6m/s | 0°C | 0% | 0hPa | 0V | 00:00:00 | 00:00:00 | 00:00:00 | |
| MIELECB | 2026-08-30 12:23:40 | 50.03840 | 21.57642 | 294° | 9km/h | 17198m | 4.2m/s | 0°C | 0% | 0hPa | 0V | 00:00:00 | 00:00:00 | 00:00:00 | |
| MIELECB | 2026-08-30 12:23:34 | 50.03830 | 21.57664 | 343° | 15km/h | 17179m | 3.6m/s | 0°C | 0% | 0hPa | 0V | 00:00:00 | 00:00:00 | 00:00:00 | |
| MIELECB | 2026-08-30 12:23:29 | 50.03818 | 21.57669 | 331° | 15km/h | 17161m | 4.9m/s | 0°C | 0% | 0hPa | 0V | 00:00:00 | 00:00:00 | 00:00:00 | |
| SQ9PSP-11 | 2026-08-30 12:23:27 | 50.03811 | 21.57675 | 341° | 15km/h | 17154m | 5.0m/s | 0°C | 0% | 0hPa | 0V | 00:00:00 | 00:00:00 | 00:00:00 | |
| MIELECB | 2026-08-30 12:23:24 | 50.03806 | 21.57679 | 326° | 5km/h | 17144m | 5.2m/s | 0°C | 0% | 0hPa | 0V | 00:00:00 | 00:00:00 | 00:00:00 | |
| AKAW68 | 2026-08-30 12:23:20 | 50.03801 | 21.57687 | 327° | 5km/h | 17131m | 3.2m/s | 0°C | 0% | 0hPa | 0V | 00:00:00 | 00:00:00 | 00:00:00 | |
| MIELECB | 2026-08-30 12:23:18 | 50.03798 | 21.57690 | 328° | 7km/h | 17124m | 4.2m/s | 0°C | 0% | 0hPa | 0V | 00:00:00 | 00:00:00 | 00:00:00 | |
| MIELECB | 2026-08-30 12:23:13 | 50.03794 | 21.57702 | 216° | 4km/h | 17108m | 4.2m/s | 0°C | 0% | 0hPa | 0V | 00:00:00 | 00:00:00 | 00:00:00 | |
| SQ9PSP-11 | 2026-08-30 12:23:11 | 50.03794 | 21.57706 | 263° | 5km/h | 17102m | 4.3m/s | 0°C | 0% | 0hPa | 0V | 00:00:00 | 00:00:00 | 00:00:00 | |
| MIELECB | 2026-08-30 12:23:07 | 50.03790 | 21.57717 | 311° | 4km/h | 17087m | 4.3m/s | 0°C | 0% | 0hPa | 0V | 00:00:00 | 00:00:00 | 00:00:00 | |
| MIELECB | 2026-08-30 12:23:02 | 50.03788 | 21.57726 | 280° | 4km/h | 17070m | 3.4m/s | 0°C | 0% | 0hPa | 0V | 00:00:00 | 00:00:00 | 00:00:00 | |
| AKAW68 | 2026-08-30 12:22:59 | 50.03788 | 21.57725 | 114° | 7km/h | 17060m | 2.6m/s | 0°C | 0% | 0hPa | 0V | 00:00:00 | 00:00:00 | 00:00:00 | |
| SQ9EZE-12 | 2026-08-30 12:22:58 | 50.03789 | 21.57724 | 0° | 0km/h | 17056m | 4.3m/s | 0°C | 0% | 0hPa | 0V | 00:00:00 | 00:00:00 | 00:00:00 | |
| MIELECB | 2026-08-30 12:22:56 | 50.03789 | 21.57727 | 269° | 7km/h | 17049m | 3.9m/s | 0°C | 0% | 0hPa | 0V | 00:00:00 | 00:00:00 | 00:00:00 | |
| SQ9PSP-11 | 2026-08-30 12:22:55 | 50.03790 | 21.57730 | 230° | 9km/h | 17045m | 3.8m/s | 0°C | 0% | 0hPa | 0V | 00:00:00 | 00:00:00 | 00:00:00 | |
| MIELECB | 2026-08-30 12:22:51 | 50.03795 | 21.57734 | 224° | 4km/h | 17034m | 3.6m/s | 0°C | 0% | 0hPa | 0V | 00:00:00 | 00:00:00 | 00:00:00 | |
| MIELECB | 2026-08-30 12:22:46 | 50.03797 | 21.57738 | 192° | 2km/h | 17018m | 2.9m/s | 0°C | 0% | 0hPa | 0V | 00:00:00 | 00:00:00 | 00:00:00 | |
| SQ9PSP-11 | 2026-08-30 12:22:40 | 50.03799 | 21.57741 | 94° | 7km/h | 16997m | 3.0m/s | 0°C | 0% | 0hPa | 0V | 00:00:00 | 00:00:00 | 00:00:00 | |
| AKAW68 | 2026-08-30 12:22:39 | 50.03799 | 21.57740 | 294° | 4km/h | 16990m | 4.7m/s | 0°C | 0% | 0hPa | 0V | 00:00:00 | 00:00:00 | 00:00:00 | |
| SQ9EZE-12 | 2026-08-30 12:22:38 | 50.03799 | 21.57740 | 294° | 4km/h | 16990m | 4.7m/s | 0°C | 0% | 0hPa | 0V | 00:00:00 | 00:00:00 | 00:00:00 | |
| MIELECB | 2026-08-30 12:22:34 | 50.03799 | 21.57749 | 209° | 4km/h | 16977m | 2.2m/s | 0°C | 0% | 0hPa | 0V | 00:00:00 | 00:00:00 | 00:00:00 | |
| MIELECB | 2026-08-30 12:22:29 | 50.03796 | 21.57749 | 346° | 5km/h | 16961m | 2.7m/s | 0°C | 0% | 0hPa | 0V | 00:00:00 | 00:00:00 | 00:00:00 | |
| SQ9PSP-11 | 2026-08-30 12:22:24 | 50.03795 | 21.57741 | 38° | 7km/h | 16943m | 3.1m/s | 0°C | 0% | 0hPa | 0V | 00:00:00 | 00:00:00 | 00:00:00 | |
| MIELECB | 2026-08-30 12:22:23 | 50.03794 | 21.57739 | 68° | 5km/h | 16939m | 3.9m/s | 0°C | 0% | 0hPa | 0V | 00:00:00 | 00:00:00 | 00:00:00 | |
| SQ9EZE-12 | 2026-08-30 12:22:22 | 50.03794 | 21.57738 | 100° | 4km/h | 16936m | 4.6m/s | 0°C | 0% | 0hPa | 0V | 00:00:00 | 00:00:00 | 00:00:00 | |
| AKAW68 | 2026-08-30 12:22:18 | 50.03790 | 21.57731 | 107° | 4km/h | 16921m | 3.7m/s | 0°C | 0% | 0hPa | 0V | 00:00:00 | 00:00:00 | 00:00:00 | |
| MIELECB | 2026-08-30 12:22:17 | 50.03790 | 21.57730 | 126° | 4km/h | 16918m | 3.5m/s | 0°C | 0% | 0hPa | 0V | 00:00:00 | 00:00:00 | 00:00:00 | |
| MIELECB | 2026-08-30 12:22:11 | 50.03789 | 21.57719 | 40° | 7km/h | 16898m | 3.1m/s | 0°C | 0% | 0hPa | 0V | 00:00:00 | 00:00:00 | 00:00:00 | |
| SQ9PSP-11 | 2026-08-30 12:22:09 | 50.03788 | 21.57714 | 129° | 5km/h | 16890m | 3.5m/s | 0°C | 0% | 0hPa | 0V | 00:00:00 | 00:00:00 | 00:00:00 | |
| SQ9EZE-12 | 2026-08-30 12:22:05 | 50.03790 | 21.57703 | 91° | 9km/h | 16876m | 4.4m/s | 0°C | 0% | 0hPa | 0V | 00:00:00 | 00:00:00 | 00:00:00 | |
| MIELECB | 2026-08-30 12:21:59 | 50.03795 | 21.57685 | 67° | 9km/h | 16857m | 3.3m/s | 0°C | 0% | 0hPa | 0V | 00:00:00 | 00:00:00 | 00:00:00 | |
| AKAW68 | 2026-08-30 12:21:57 | 50.03793 | 21.57677 | 48° | 7km/h | 16850m | 3.5m/s | 0°C | 0% | 0hPa | 0V | 00:00:00 | 00:00:00 | 00:00:00 | |
| MIELECB | 2026-08-30 12:21:54 | 50.03791 | 21.57672 | 67° | 7km/h | 16843m | 4.8m/s | 0°C | 0% | 0hPa | 0V | 00:00:00 | 00:00:00 | 00:00:00 | |
| SQ9PSP-11 | 2026-08-30 12:21:53 | 50.03790 | 21.57669 | 77° | 5km/h | 16839m | 4.3m/s | 0°C | 0% | 0hPa | 0V | 00:00:00 | 00:00:00 | 00:00:00 | |
| SQ9EZE-12 | 2026-08-30 12:21:48 | 50.03790 | 21.57660 | 88° | 5km/h | 16822m | 4.6m/s | 0°C | 0% | 0hPa | 0V | 00:00:00 | 00:00:00 | 00:00:00 | |
| MIELECB | 2026-08-30 12:21:42 | 50.03787 | 21.57647 | 85° | 7km/h | 16800m | 4.5m/s | 0°C | 0% | 0hPa | 0V | 00:00:00 | 00:00:00 | 00:00:00 | |
| SQ9PSP-11 | 2026-08-30 12:21:38 | 50.03788 | 21.57634 | 82° | 7km/h | 16781m | 4.2m/s | 0°C | 0% | 0hPa | 0V | 00:00:00 | 00:00:00 | 00:00:00 | |
| AKAW68 | 2026-08-30 12:21:36 | 50.03787 | 21.57631 | 65° | 7km/h | 16778m | 2.8m/s | 0°C | 0% | 0hPa | 0V | 00:00:00 | 00:00:00 | 00:00:00 | |
| MIELECB | 2026-08-30 12:21:30 | 50.03782 | 21.57621 | 85° | 9km/h | 16759m | 1.8m/s | 0°C | 0% | 0hPa | 0V | 00:00:00 | 00:00:00 | 00:00:00 | |
| SQ9EZE-12 | 2026-08-30 12:21:26 | 50.03782 | 21.57612 | 134° | 4km/h | 16748m | 3.0m/s | 0°C | 0% | 0hPa | 0V | 00:00:00 | 00:00:00 | 00:00:00 | |
| MIELECB | 2026-08-30 12:21:25 | 50.03782 | 21.57610 | 75° | 4km/h | 16746m | 3.1m/s | 0°C | 0% | 0hPa | 0V | 00:00:00 | 00:00:00 | 00:00:00 | |
| SQ9PSP-11 | 2026-08-30 12:21:22 | 50.03781 | 21.57602 | 107° | 5km/h | 16736m | 4.7m/s | 0°C | 0% | 0hPa | 0V | 00:00:00 | 00:00:00 | 00:00:00 | |
| MIELECB | 2026-08-30 12:21:20 | 50.03781 | 21.57599 | 107° | 5km/h | 16729m | 2.9m/s | 0°C | 0% | 0hPa | 0V | 00:00:00 | 00:00:00 | 00:00:00 | |
| AKAW68 | 2026-08-30 12:21:15 | 50.03778 | 21.57591 | 0° | 0km/h | 16712m | 3.0m/s | 0°C | 0% | 0hPa | 0V | 00:00:00 | 00:00:00 | 00:00:00 | |
| MIELECB | 2026-08-30 12:21:14 | 50.03779 | 21.57591 | 151° | 4km/h | 16709m | 3.3m/s | 0°C | 0% | 0hPa | 0V | 00:00:00 | 00:00:00 | 00:00:00 | |
| MIELECB | 2026-08-30 12:21:09 | 50.03780 | 21.57577 | 38° | 4km/h | 16694m | 3.8m/s | 0°C | 0% | 0hPa | 0V | 00:00:00 | 00:00:00 | 00:00:00 | |
| SQ9EZE-12 | 2026-08-30 12:21:08 | 50.03779 | 21.57576 | 14° | 4km/h | 16691m | 2.8m/s | 0°C | 0% | 0hPa | 0V | 00:00:00 | 00:00:00 | 00:00:00 | |
| SQ9PSP-11 | 2026-08-30 12:21:07 | 50.03778 | 21.57575 | 61° | 7km/h | 16687m | 4.2m/s | 0°C | 0% | 0hPa | 0V | 00:00:00 | 00:00:00 | 00:00:00 | |
| MIELECB | 2026-08-30 12:21:04 | 50.03778 | 21.57562 | 114° | 5km/h | 16673m | 3.5m/s | 0°C | 0% | 0hPa | 0V | 00:00:00 | 00:00:00 | 00:00:00 | |
| MIELECB | 2026-08-30 12:20:58 | 50.03782 | 21.57544 | 114° | 15km/h | 16656m | 2.7m/s | 0°C | 0% | 0hPa | 0V | 00:00:00 | 00:00:00 | 00:00:00 | |
| AKAW68 | 2026-08-30 12:20:55 | 50.03782 | 21.57540 | 337° | 5km/h | 16646m | 2.3m/s | 0°C | 0% | 0hPa | 0V | 00:00:00 | 00:00:00 | 00:00:00 | |
| MIELECB | 2026-08-30 12:20:53 | 50.03780 | 21.57531 | 101° | 20km/h | 16636m | 3.2m/s | 0°C | 0% | 0hPa | 0V | 00:00:00 | 00:00:00 | 00:00:00 | |
| SQ9EZE-12 | 2026-08-30 12:20:51 | 50.03781 | 21.57523 | 105° | 20km/h | 16633m | 3.5m/s | 0°C | 0% | 0hPa | 0V | 00:00:00 | 00:00:00 | 00:00:00 | |
| MIELECB | 2026-08-30 12:20:46 | 50.03784 | 21.57507 | 33° | 7km/h | 16619m | 3.6m/s | 0°C | 0% | 0hPa | 0V | 00:00:00 | 00:00:00 | 00:00:00 | |
| MIELECB | 2026-08-30 12:20:41 | 50.03784 | 21.57489 | 147° | 15km/h | 16603m | 3.3m/s | 0°C | 0% | 0hPa | 0V | 00:00:00 | 00:00:00 | 00:00:00 | |
| SQ9PSP-11 | 2026-08-30 12:20:36 | 50.03792 | 21.57472 | 73° | 4km/h | 16587m | 3.7m/s | 0°C | 0% | 0hPa | 0V | 00:00:00 | 00:00:00 | 00:00:00 | |
| MIELECB | 2026-08-30 12:20:35 | 50.03792 | 21.57471 | 0° | 0km/h | 16584m | 3.0m/s | 0°C | 0% | 0hPa | 0V | 00:00:00 | 00:00:00 | 00:00:00 | |
| AKAW68 | 2026-08-30 12:20:34 | 50.03792 | 21.57471 | 115° | 2km/h | 16581m | 3.1m/s | 0°C | 0% | 0hPa | 0V | 00:00:00 | 00:00:00 | 00:00:00 | |
| SQ9EZE-12 | 2026-08-30 12:20:32 | 50.03794 | 21.57466 | 125° | 11km/h | 16574m | 3.0m/s | 0°C | 0% | 0hPa | 0V | 00:00:00 | 00:00:00 | 00:00:00 | |
| MIELECB | 2026-08-30 12:20:30 | 50.03799 | 21.57459 | 145° | 15km/h | 16569m | 3.6m/s | 0°C | 0% | 0hPa | 0V | 00:00:00 | 00:00:00 | 00:00:00 | |
| MIELECB | 2026-08-30 12:20:24 | 50.03803 | 21.57447 | 48° | 4km/h | 16552m | 2.9m/s | 0°C | 0% | 0hPa | 0V | 00:00:00 | 00:00:00 | 00:00:00 | |
| SQ9PSP-11 | 2026-08-30 12:20:20 | 50.03808 | 21.57449 | 158° | 13km/h | 16540m | 3.2m/s | 0°C | 0% | 0hPa | 0V | 00:00:00 | 00:00:00 | 00:00:00 | |
| MIELECB | 2026-08-30 12:20:18 | 50.03812 | 21.57441 | 102° | 13km/h | 16534m | 2.8m/s | 0°C | 0% | 0hPa | 0V | 00:00:00 | 00:00:00 | 00:00:00 | |
| AKAW68 | 2026-08-30 12:20:14 | 50.03814 | 21.57437 | 211° | 9km/h | 16519m | 2.8m/s | 0°C | 0% | 0hPa | 0V | 00:00:00 | 00:00:00 | 00:00:00 | |
| MIELECB | 2026-08-30 12:20:13 | 50.03814 | 21.57437 | 211° | 9km/h | 16519m | 2.8m/s | 0°C | 0% | 0hPa | 0V | 00:00:00 | 00:00:00 | 00:00:00 | |
| MIELECB | 2026-08-30 12:20:08 | 50.03819 | 21.57422 | 97° | 11km/h | 16504m | 2.3m/s | 0°C | 0% | 0hPa | 0V | 00:00:00 | 00:00:00 | 00:00:00 | |
| SQ9EZE-12 | 2026-08-30 12:20:04 | 50.03826 | 21.57414 | 176° | 11km/h | 16493m | 3.1m/s | 0°C | 0% | 0hPa | 0V | 00:00:00 | 00:00:00 | 00:00:00 | |
| MIELECB | 2026-08-30 12:20:02 | 50.03829 | 21.57412 | 116° | 7km/h | 16487m | 3.2m/s | 0°C | 0% | 0hPa | 0V | 00:00:00 | 00:00:00 | 00:00:00 | |
| MIELECB | 2026-08-30 12:19:56 | 50.03831 | 21.57388 | 102° | 20km/h | 16468m | 3.9m/s | 0°C | 0% | 0hPa | 0V | 00:00:00 | 00:00:00 | 00:00:00 | |
| AKAW68 | 2026-08-30 12:19:53 | 50.03837 | 21.57372 | 160° | 13km/h | 16458m | 4.1m/s | 0°C | 0% | 0hPa | 0V | 00:00:00 | 00:00:00 | 00:00:00 | |
| SQ9PSP-11 | 2026-08-30 12:19:50 | 50.03841 | 21.57369 | 59° | 11km/h | 16445m | 3.3m/s | 0°C | 0% | 0hPa | 0V | 00:00:00 | 00:00:00 | 00:00:00 | |
| MIELECB | 2026-08-30 12:19:44 | 50.03845 | 21.57335 | 134° | 16km/h | 16428m | 3.7m/s | 0°C | 0% | 0hPa | 0V | 00:00:00 | 00:00:00 | 00:00:00 | |
| MIELECB | 2026-08-30 12:19:39 | 50.03850 | 21.57316 | 107° | 11km/h | 16410m | 3.7m/s | 0°C | 0% | 0hPa | 0V | 00:00:00 | 00:00:00 | 00:00:00 | |
| SQ9PSP-11 | 2026-08-30 12:19:33 | 50.03856 | 21.57280 | 103° | 20km/h | 16389m | 4.7m/s | 0°C | 0% | 0hPa | 0V | 00:00:00 | 00:00:00 | 00:00:00 | |
| MIELECB | 2026-08-30 12:19:28 | 50.03860 | 21.57238 | 85° | 18km/h | 16371m | 4.4m/s | 0°C | 0% | 0hPa | 0V | 00:00:00 | 00:00:00 | 00:00:00 | |
| MIELECB | 2026-08-30 12:19:22 | 50.03867 | 21.57192 | 88° | 27km/h | 16347m | 2.5m/s | 0°C | 0% | 0hPa | 0V | 00:00:00 | 00:00:00 | 00:00:00 | |
| SQ9PSP-11 | 2026-08-30 12:19:18 | 50.03869 | 21.57147 | 92° | 20km/h | 16334m | 3.9m/s | 0°C | 0% | 0hPa | 0V | 00:00:00 | 00:00:00 | 00:00:00 | |
| MIELECB | 2026-08-30 12:19:17 | 50.03869 | 21.57140 | 95° | 18km/h | 16330m | 3.5m/s | 0°C | 0% | 0hPa | 0V | 00:00:00 | 00:00:00 | 00:00:00 | |
| SQ9EZE-12 | 2026-08-30 12:19:15 | 50.03871 | 21.57124 | 111° | 22km/h | 16323m | 3.9m/s | 0°C | 0% | 0hPa | 0V | 00:00:00 | 00:00:00 | 00:00:00 | |
| AKAW68 | 2026-08-30 12:19:11 | 50.03881 | 21.57074 | 99° | 35km/h | 16310m | 3.1m/s | 0°C | 0% | 0hPa | 0V | 00:00:00 | 00:00:00 | 00:00:00 | |
| MIELECB | 2026-08-30 12:19:05 | 50.03886 | 21.57014 | 102° | 27km/h | 16289m | 3.6m/s | 0°C | 0% | 0hPa | 0V | 00:00:00 | 00:00:00 | 00:00:00 | |
| SQ9PSP-11 | 2026-08-30 12:19:02 | 50.03887 | 21.56979 | 88° | 33km/h | 16279m | 4.1m/s | 0°C | 0% | 0hPa | 0V | 00:00:00 | 00:00:00 | 00:00:00 | |
| MIELECB | 2026-08-30 12:19:00 | 50.03889 | 21.56953 | 107° | 35km/h | 16271m | 4.0m/s | 0°C | 0% | 0hPa | 0V | 00:00:00 | 00:00:00 | 00:00:00 | |
| MIELECB | 2026-08-30 12:18:54 | 50.03894 | 21.56881 | 84° | 27km/h | 16251m | 4.9m/s | 0°C | 0% | 0hPa | 0V | 00:00:00 | 00:00:00 | 00:00:00 | |
| AKAW68 | 2026-08-30 12:18:50 | 50.03898 | 21.56837 | 96° | 35km/h | 16238m | 3.0m/s | 0°C | 0% | 0hPa | 0V | 00:00:00 | 00:00:00 | 00:00:00 | |
| MIELECB | 2026-08-30 12:18:48 | 50.03898 | 21.56808 | 87° | 40km/h | 16233m | 3.0m/s | 0°C | 0% | 0hPa | 0V | 00:00:00 | 00:00:00 | 00:00:00 | |
| SQ9PSP-11 | 2026-08-30 12:18:47 | 50.03898 | 21.56792 | 95° | 42km/h | 16230m | 3.5m/s | 0°C | 0% | 0hPa | 0V | 00:00:00 | 00:00:00 | 00:00:00 | |
| MIELECB | 2026-08-30 12:18:43 | 50.03901 | 21.56732 | 82° | 35km/h | 16217m | 3.2m/s | 0°C | 0% | 0hPa | 0V | 00:00:00 | 00:00:00 | 00:00:00 | |
| MIELECB | 2026-08-30 12:18:37 | 50.03896 | 21.56655 | 80° | 33km/h | 16198m | 4.3m/s | 0°C | 0% | 0hPa | 0V | 00:00:00 | 00:00:00 | 00:00:00 | |
| MIELECB | 2026-08-30 12:18:32 | 50.03888 | 21.56586 | 83° | 35km/h | 16181m | 3.2m/s | 0°C | 0% | 0hPa | 0V | 00:00:00 | 00:00:00 | 00:00:00 | |
| SQ9PSP-11 | 2026-08-30 12:18:31 | 50.03886 | 21.56571 | 80° | 37km/h | 16178m | 4.0m/s | 0°C | 0% | 0hPa | 0V | 00:00:00 | 00:00:00 | 00:00:00 | |
| AKAW68 | 2026-08-30 12:18:29 | 50.03881 | 21.56545 | 69° | 35km/h | 16171m | 3.4m/s | 0°C | 0% | 0hPa | 0V | 00:00:00 | 00:00:00 | 00:00:00 | |
| MIELECB | 2026-08-30 12:18:26 | 50.03871 | 21.56506 | 80° | 33km/h | 16162m | 2.7m/s | 0°C | 0% | 0hPa | 0V | 00:00:00 | 00:00:00 | 00:00:00 | |
| MIELECB | 2026-08-30 12:18:20 | 50.03851 | 21.56429 | 67° | 42km/h | 16143m | 3.4m/s | 0°C | 0% | 0hPa | 0V | 00:00:00 | 00:00:00 | 00:00:00 | |
| SQ9PSP-11 | 2026-08-30 12:18:16 | 50.03833 | 21.56368 | 67° | 37km/h | 16132m | 4.1m/s | 0°C | 0% | 0hPa | 0V | 00:00:00 | 00:00:00 | 00:00:00 | |
| MIELECB | 2026-08-30 12:18:15 | 50.03830 | 21.56356 | 71° | 27km/h | 16127m | 5.2m/s | 0°C | 0% | 0hPa | 0V | 00:00:00 | 00:00:00 | 00:00:00 | |
| MIELECB | 2026-08-30 12:18:10 | 50.03807 | 21.56290 | 68° | 44km/h | 16110m | 3.5m/s | 0°C | 0% | 0hPa | 0V | 00:00:00 | 00:00:00 | 00:00:00 | |
| AKAW68 | 2026-08-30 12:18:09 | 50.03807 | 21.56290 | 68° | 44km/h | 16110m | 3.5m/s | 0°C | 0% | 0hPa | 0V | 00:00:00 | 00:00:00 | 00:00:00 | |
| MIELECB | 2026-08-30 12:18:03 | 50.03795 | 21.56205 | 68° | 31km/h | 16092m | 4.0m/s | 0°C | 0% | 0hPa | 0V | 00:00:00 | 00:00:00 | 00:00:00 | |
| SQ9PSP-11 | 2026-08-30 12:18:00 | 50.03784 | 21.56169 | 75° | 33km/h | 16082m | 3.3m/s | 0°C | 0% | 0hPa | 0V | 00:00:00 | 00:00:00 | 00:00:00 | |
| MIELECB | 2026-08-30 12:17:57 | 50.03778 | 21.56133 | 70° | 31km/h | 16071m | 2.1m/s | 0°C | 0% | 0hPa | 0V | 00:00:00 | 00:00:00 | 00:00:00 | |
| MIELECB | 2026-08-30 12:17:52 | 50.03771 | 21.56064 | 76° | 38km/h | 16054m | 4.4m/s | 0°C | 0% | 0hPa | 0V | 00:00:00 | 00:00:00 | 00:00:00 | |
| AKAW68 | 2026-08-30 12:17:49 | 50.03765 | 21.56026 | 88° | 31km/h | 16045m | 3.8m/s | 0°C | 0% | 0hPa | 0V | 00:00:00 | 00:00:00 | 00:00:00 | |
| SQ9PSP-11 | 2026-08-30 12:17:45 | 50.03768 | 21.55975 | 89° | 33km/h | 16030m | 4.0m/s | 0°C | 0% | 0hPa | 0V | 00:00:00 | 00:00:00 | 00:00:00 | |
| MIELECB | 2026-08-30 12:17:41 | 50.03764 | 21.55921 | 95° | 33km/h | 16018m | 3.8m/s | 0°C | 0% | 0hPa | 0V | 00:00:00 | 00:00:00 | 00:00:00 | |
| MIELECB | 2026-08-30 12:17:36 | 50.03767 | 21.55865 | 90° | 31km/h | 16001m | 4.9m/s | 0°C | 0% | 0hPa | 0V | 00:00:00 | 00:00:00 | 00:00:00 | |
| SQ9EZE-15 | 2026-08-30 12:17:35 | 50.03768 | 21.55852 | 103° | 33km/h | 15997m | 3.2m/s | 0°C | 0% | 0hPa | 0V | 00:00:00 | 00:00:00 | 00:00:00 | |
| MIELECB | 2026-08-30 12:17:30 | 50.03773 | 21.55779 | 90° | 38km/h | 15981m | 3.3m/s | 0°C | 0% | 0hPa | 0V | 00:00:00 | 00:00:00 | 00:00:00 | |
| SQ9PSP-11 | 2026-08-30 12:17:29 | 50.03773 | 21.55764 | 93° | 38km/h | 15977m | 3.6m/s | 0°C | 0% | 0hPa | 0V | 00:00:00 | 00:00:00 | 00:00:00 | |
| AKAW68 | 2026-08-30 12:17:28 | 50.03774 | 21.55749 | 99° | 38km/h | 15974m | 4.7m/s | 0°C | 0% | 0hPa | 0V | 00:00:00 | 00:00:00 | 00:00:00 | |
| MIELECB | 2026-08-30 12:17:25 | 50.03782 | 21.55706 | 109° | 35km/h | 15963m | 3.3m/s | 0°C | 0% | 0hPa | 0V | 00:00:00 | 00:00:00 | 00:00:00 | |
| MIELECB | 2026-08-30 12:17:19 | 50.03787 | 21.55612 | 92° | 47km/h | 15944m | 3.9m/s | 0°C | 0% | 0hPa | 0V | 00:00:00 | 00:00:00 | 00:00:00 | |
| MIELECB | 2026-08-30 12:17:14 | 50.03784 | 21.55525 | 87° | 42km/h | 15927m | 3.4m/s | 0°C | 0% | 0hPa | 0V | 00:00:00 | 00:00:00 | 00:00:00 | |
| SQ9EZE-12 | 2026-08-30 12:17:10 | 50.03779 | 21.55462 | 90° | 40km/h | 15913m | 3.8m/s | 0°C | 0% | 0hPa | 0V | 00:00:00 | 00:00:00 | 00:00:00 | |
| MIELECB | 2026-08-30 12:17:08 | 50.03778 | 21.55427 | 88° | 47km/h | 15906m | 4.1m/s | 0°C | 0% | 0hPa | 0V | 00:00:00 | 00:00:00 | 00:00:00 | |
| AKAW68 | 2026-08-30 12:17:07 | 50.03778 | 21.55409 | 91° | 44km/h | 15903m | 3.1m/s | 0°C | 0% | 0hPa | 0V | 00:00:00 | 00:00:00 | 00:00:00 | |
| MIELECB | 2026-08-30 12:17:02 | 50.03768 | 21.55326 | 77° | 44km/h | 15886m | 4.1m/s | 0°C | 0% | 0hPa | 0V | 00:00:00 | 00:00:00 | 00:00:00 | |
| SQ9PSP-11 | 2026-08-30 12:16:59 | 50.03759 | 21.55276 | 78° | 40km/h | 15874m | 3.8m/s | 0°C | 0% | 0hPa | 0V | 00:00:00 | 00:00:00 | 00:00:00 | |
| MIELECB | 2026-08-30 12:16:56 | 50.03753 | 21.55226 | 86° | 47km/h | 15865m | 3.3m/s | 0°C | 0% | 0hPa | 0V | 00:00:00 | 00:00:00 | 00:00:00 | |
| SQ9EZE-12 | 2026-08-30 12:16:53 | 50.03749 | 21.55175 | 76° | 37km/h | 15856m | 3.8m/s | 0°C | 0% | 0hPa | 0V | 00:00:00 | 00:00:00 | 00:00:00 | |
| MIELECB | 2026-08-30 12:16:51 | 50.03744 | 21.55149 | 74° | 38km/h | 15850m | 3.7m/s | 0°C | 0% | 0hPa | 0V | 00:00:00 | 00:00:00 | 00:00:00 | |
| AKAW68 | 2026-08-30 12:16:47 | 50.03736 | 21.55086 | 88° | 37km/h | 15834m | 4.6m/s | 0°C | 0% | 0hPa | 0V | 00:00:00 | 00:00:00 | 00:00:00 | |
| MIELECB | 2026-08-30 12:16:45 | 50.03734 | 21.55057 | 89° | 37km/h | 15827m | 4.3m/s | 0°C | 0% | 0hPa | 0V | 00:00:00 | 00:00:00 | 00:00:00 | |
| SQ9PSP-11 | 2026-08-30 12:16:43 | 50.03734 | 21.55026 | 87° | 37km/h | 15820m | 2.6m/s | 0°C | 0% | 0hPa | 0V | 00:00:00 | 00:00:00 | 00:00:00 | |
| MIELECB | 2026-08-30 12:16:39 | 50.03729 | 21.54980 | 72° | 27km/h | 15804m | 4.9m/s | 0°C | 0% | 0hPa | 0V | 00:00:00 | 00:00:00 | 00:00:00 | |
| MIELECB | 2026-08-30 12:16:34 | 50.03727 | 21.54916 | 102° | 37km/h | 15786m | 3.0m/s | 0°C | 0% | 0hPa | 0V | 00:00:00 | 00:00:00 | 00:00:00 | |
| SQ9EZE-12 | 2026-08-30 12:16:33 | 50.03728 | 21.54903 | 98° | 35km/h | 15782m | 5.1m/s | 0°C | 0% | 0hPa | 0V | 00:00:00 | 00:00:00 | 00:00:00 | |
| MIELECB | 2026-08-30 12:16:28 | 50.03730 | 21.54852 | 76° | 22km/h | 15765m | 3.1m/s | 0°C | 0% | 0hPa | 0V | 00:00:00 | 00:00:00 | 00:00:00 | |
| SQ9PSP-11 | 2026-08-30 12:16:27 | 50.03729 | 21.54842 | 82° | 29km/h | 15762m | 3.8m/s | 0°C | 0% | 0hPa | 0V | 00:00:00 | 00:00:00 | 00:00:00 | |
| AKAW68 | 2026-08-30 12:16:26 | 50.03728 | 21.54830 | 93° | 33km/h | 15759m | 2.9m/s | 0°C | 0% | 0hPa | 0V | 00:00:00 | 00:00:00 | 00:00:00 | |
| MIELECB | 2026-08-30 12:16:22 | 50.03733 | 21.54779 | 100° | 27km/h | 15745m | 3.9m/s | 0°C | 0% | 0hPa | 0V | 00:00:00 | 00:00:00 | 00:00:00 | |
| MIELECB | 2026-08-30 12:16:17 | 50.03737 | 21.54730 | 103° | 20km/h | 15727m | 4.0m/s | 0°C | 0% | 0hPa | 0V | 00:00:00 | 00:00:00 | 00:00:00 | |
| SQ9EZE-12 | 2026-08-30 12:16:15 | 50.03739 | 21.54711 | 104° | 27km/h | 15719m | 3.4m/s | 0°C | 0% | 0hPa | 0V | 00:00:00 | 00:00:00 | 00:00:00 | |
| SQ9PSP-11 | 2026-08-30 12:16:12 | 50.03742 | 21.54678 | 107° | 27km/h | 15709m | 4.3m/s | 0°C | 0% | 0hPa | 0V | 00:00:00 | 00:00:00 | 00:00:00 | |
| MIELECB | 2026-08-30 12:16:11 | 50.03744 | 21.54668 | 108° | 24km/h | 15705m | 3.0m/s | 0°C | 0% | 0hPa | 0V | 00:00:00 | 00:00:00 | 00:00:00 | |
| MIELECB | 2026-08-30 12:16:06 | 50.03753 | 21.54622 | 113° | 22km/h | 15688m | 3.3m/s | 0°C | 0% | 0hPa | 0V | 00:00:00 | 00:00:00 | 00:00:00 | |
| MIELECB | 2026-08-30 12:16:01 | 50.03762 | 21.54579 | 110° | 24km/h | 15671m | 4.4m/s | 0°C | 0% | 0hPa | 0V | 00:00:00 | 00:00:00 | 00:00:00 | |
| SQ9PSP-11 | 2026-08-30 12:15:57 | 50.03773 | 21.54538 | 110° | 33km/h | 15658m | 4.4m/s | 0°C | 0% | 0hPa | 0V | 00:00:00 | 00:00:00 | 00:00:00 | |
| SQ9EZE-12 | 2026-08-30 12:15:56 | 50.03776 | 21.54526 | 110° | 33km/h | 15654m | 3.5m/s | 0°C | 0% | 0hPa | 0V | 00:00:00 | 00:00:00 | 00:00:00 | |
| MIELECB | 2026-08-30 12:15:55 | 50.03778 | 21.54514 | 101° | 31km/h | 15651m | 3.9m/s | 0°C | 0% | 0hPa | 0V | 00:00:00 | 00:00:00 | 00:00:00 | |
| MIELECB | 2026-08-30 12:15:49 | 50.03788 | 21.54449 | 97° | 29km/h | 15628m | 3.6m/s | 0°C | 0% | 0hPa | 0V | 00:00:00 | 00:00:00 | 00:00:00 | |
| AKAW68 | 2026-08-30 12:15:45 | 50.03795 | 21.54410 | 109° | 27km/h | 15613m | 2.4m/s | 0°C | 0% | 0hPa | 0V | 00:00:00 | 00:00:00 | 00:00:00 | |
| MIELECB | 2026-08-30 12:15:43 | 50.03799 | 21.54386 | 104° | 31km/h | 15606m | 3.6m/s | 0°C | 0% | 0hPa | 0V | 00:00:00 | 00:00:00 | 00:00:00 | |
| SQ9PSP-11 | 2026-08-30 12:15:41 | 50.03803 | 21.54363 | 109° | 27km/h | 15598m | 3.5m/s | 0°C | 0% | 0hPa | 0V | 00:00:00 | 00:00:00 | 00:00:00 | |
| MIELECB | 2026-08-30 12:15:38 | 50.03806 | 21.54332 | 89° | 29km/h | 15589m | 3.7m/s | 0°C | 0% | 0hPa | 0V | 00:00:00 | 00:00:00 | 00:00:00 | |
| MIELECB | 2026-08-30 12:15:32 | 50.03807 | 21.54273 | 101° | 26km/h | 15568m | 2.8m/s | 0°C | 0% | 0hPa | 0V | 00:00:00 | 00:00:00 | 00:00:00 | |
| SQ9EZE-12 | 2026-08-30 12:15:29 | 50.03810 | 21.54242 | 98° | 31km/h | 15557m | 4.1m/s | 0°C | 0% | 0hPa | 0V | 00:00:00 | 00:00:00 | 00:00:00 | |
| MIELECB | 2026-08-30 12:15:27 | 50.03810 | 21.54218 | 78° | 33km/h | 15548m | 4.3m/s | 0°C | 0% | 0hPa | 0V | 00:00:00 | 00:00:00 | 00:00:00 | |
| SQ9PSP-11 | 2026-08-30 12:15:26 | 50.03808 | 21.54204 | 84° | 37km/h | 15545m | 3.3m/s | 0°C | 0% | 0hPa | 0V | 00:00:00 | 00:00:00 | 00:00:00 | |
| AKAW68 | 2026-08-30 12:15:24 | 50.03807 | 21.54180 | 93° | 26km/h | 15537m | 4.6m/s | 0°C | 0% | 0hPa | 0V | 00:00:00 | 00:00:00 | 00:00:00 | |
| MIELECB | 2026-08-30 12:15:16 | 50.03806 | 21.54103 | 88° | 27km/h | 15511m | 3.5m/s | 0°C | 0% | 0hPa | 0V | 00:00:00 | 00:00:00 | 00:00:00 | |
| SQ9EZE-12 | 2026-08-30 12:15:14 | 50.03804 | 21.54079 | 91° | 31km/h | 15502m | 3.2m/s | 0°C | 0% | 0hPa | 0V | 00:00:00 | 00:00:00 | 00:00:00 | |
| SQ9PSP-11 | 2026-08-30 12:15:11 | 50.03807 | 21.54049 | 112° | 24km/h | 15492m | 2.3m/s | 0°C | 0% | 0hPa | 0V | 00:00:00 | 00:00:00 | 00:00:00 | |
| MIELECB | 2026-08-30 12:15:10 | 50.03809 | 21.54040 | 99° | 20km/h | 15489m | 3.4m/s | 0°C | 0% | 0hPa | 0V | 00:00:00 | 00:00:00 | 00:00:00 | |
| MIELECB | 2026-08-30 12:15:05 | 50.03807 | 21.53972 | 108° | 35km/h | 15468m | 3.3m/s | 0°C | 0% | 0hPa | 0V | 00:00:00 | 00:00:00 | 00:00:00 | |
| MIELECB | 2026-08-30 12:14:59 | 50.03814 | 21.53916 | 98° | 29km/h | 15450m | 3.2m/s | 0°C | 0% | 0hPa | 0V | 00:00:00 | 00:00:00 | 00:00:00 | |
| SQ9EZE-12 | 2026-08-30 12:14:57 | 50.03816 | 21.53890 | 89° | 31km/h | 15444m | 3.6m/s | 0°C | 0% | 0hPa | 0V | 00:00:00 | 00:00:00 | 00:00:00 | |
| SQ9PSP-11 | 2026-08-30 12:14:55 | 50.03814 | 21.53866 | 87° | 33km/h | 15438m | 3.0m/s | 0°C | 0% | 0hPa | 0V | 00:00:00 | 00:00:00 | 00:00:00 | |
| MIELECB | 2026-08-30 12:14:53 | 50.03817 | 21.53840 | 114° | 35km/h | 15429m | 4.7m/s | 0°C | 0% | 0hPa | 0V | 00:00:00 | 00:00:00 | 00:00:00 | |
| MIELECB | 2026-08-30 12:14:48 | 50.03823 | 21.53777 | 78° | 35km/h | 15412m | 2.1m/s | 0°C | 0% | 0hPa | 0V | 00:00:00 | 00:00:00 | 00:00:00 | |
| SQ9EZE-12 | 2026-08-30 12:14:42 | 50.03834 | 21.53710 | 110° | 20km/h | 15392m | 1.9m/s | 0°C | 0% | 0hPa | 0V | 00:00:00 | 00:00:00 | 00:00:00 | |
| SQ9PSP-11 | 2026-08-30 12:14:40 | 50.03836 | 21.53691 | 103° | 27km/h | 15386m | 4.2m/s | 0°C | 0% | 0hPa | 0V | 00:00:00 | 00:00:00 | 00:00:00 | |
| MIELECB | 2026-08-30 12:14:37 | 50.03840 | 21.53657 | 104° | 27km/h | 15374m | 3.5m/s | 0°C | 0% | 0hPa | 0V | 00:00:00 | 00:00:00 | 00:00:00 | |
| MIELECB | 2026-08-30 12:14:31 | 50.03851 | 21.53595 | 117° | 35km/h | 15354m | 1.7m/s | 0°C | 0% | 0hPa | 0V | 00:00:00 | 00:00:00 | 00:00:00 | |
| MIELECB | 2026-08-30 12:14:25 | 50.03865 | 21.53530 | 118° | 26km/h | 15335m | 4.2m/s | 0°C | 0% | 0hPa | 0V | 00:00:00 | 00:00:00 | 00:00:00 | |
| SQ9PSP-11 | 2026-08-30 12:14:24 | 50.03868 | 21.53521 | 106° | 24km/h | 15332m | 3.7m/s | 0°C | 0% | 0hPa | 0V | 00:00:00 | 00:00:00 | 00:00:00 | |
| AKAW68 | 2026-08-30 12:14:22 | 50.03871 | 21.53503 | 107° | 24km/h | 15325m | 3.6m/s | 0°C | 0% | 0hPa | 0V | 00:00:00 | 00:00:00 | 00:00:00 | |
| MIELECB | 2026-08-30 12:14:19 | 50.03879 | 21.53473 | 113° | 26km/h | 15314m | 4.3m/s | 0°C | 0% | 0hPa | 0V | 00:00:00 | 00:00:00 | 00:00:00 | |
| MIELECB | 2026-08-30 12:14:13 | 50.03895 | 21.53424 | 100° | 24km/h | 15295m | 2.8m/s | 0°C | 0% | 0hPa | 0V | 00:00:00 | 00:00:00 | 00:00:00 | |
| SQ9PSP-11 | 2026-08-30 12:14:09 | 50.03906 | 21.53381 | 116° | 33km/h | 15281m | 3.8m/s | 0°C | 0% | 0hPa | 0V | 00:00:00 | 00:00:00 | 00:00:00 | |
| MIELECB | 2026-08-30 12:14:08 | 50.03910 | 21.53370 | 116° | 29km/h | 15277m | 3.7m/s | 0°C | 0% | 0hPa | 0V | 00:00:00 | 00:00:00 | 00:00:00 | |
| MIELECB | 2026-08-30 12:14:02 | 50.03927 | 21.53320 | 108° | 24km/h | 15261m | 2.7m/s | 0°C | 0% | 0hPa | 0V | 00:00:00 | 00:00:00 | 00:00:00 | |
| MIELECB | 2026-08-30 12:13:57 | 50.03940 | 21.53265 | 117° | 35km/h | 15247m | 3.3m/s | 0°C | 0% | 0hPa | 0V | 00:00:00 | 00:00:00 | 00:00:00 | |
| SQ9PSP-11 | 2026-08-30 12:13:53 | 50.03951 | 21.53230 | 112° | 20km/h | 15237m | 4.1m/s | 0°C | 0% | 0hPa | 0V | 00:00:00 | 00:00:00 | 00:00:00 | |
| MIELECB | 2026-08-30 12:13:51 | 50.03958 | 21.53212 | 117° | 29km/h | 15230m | 3.6m/s | 0°C | 0% | 0hPa | 0V | 00:00:00 | 00:00:00 | 00:00:00 | |
| MIELECB | 2026-08-30 12:13:45 | 50.03979 | 21.53141 | 120° | 31km/h | 15212m | 3.1m/s | 0°C | 0% | 0hPa | 0V | 00:00:00 | 00:00:00 | 00:00:00 | |
| AKAW68 | 2026-08-30 12:13:41 | 50.03990 | 21.53101 | 126° | 29km/h | 15198m | 4.8m/s | 0°C | 0% | 0hPa | 0V | 00:00:00 | 00:00:00 | 00:00:00 | |
| MIELECB | 2026-08-30 12:13:40 | 50.03994 | 21.53091 | 117° | 31km/h | 15195m | 4.2m/s | 0°C | 0% | 0hPa | 0V | 00:00:00 | 00:00:00 | 00:00:00 | |
| SQ9PSP-11 | 2026-08-30 12:13:37 | 50.04005 | 21.53060 | 116° | 29km/h | 15185m | 3.6m/s | 0°C | 0% | 0hPa | 0V | 00:00:00 | 00:00:00 | 00:00:00 | |
| MIELECB | 2026-08-30 12:13:34 | 50.04016 | 21.53027 | 122° | 33km/h | 15173m | 3.3m/s | 0°C | 0% | 0hPa | 0V | 00:00:00 | 00:00:00 | 00:00:00 | |
| MIELECB | 2026-08-30 12:13:30 | 50.04036 | 21.52966 | 123° | 38km/h | 15155m | 4.2m/s | 0°C | 0% | 0hPa | 0V | 00:00:00 | 00:00:00 | 00:00:00 | |
| MIELECB | 2026-08-30 12:13:23 | 50.04067 | 21.52901 | 137° | 33km/h | 15136m | 3.5m/s | 0°C | 0% | 0hPa | 0V | 00:00:00 | 00:00:00 | 00:00:00 | |
| SQ9PSP-11 | 2026-08-30 12:13:22 | 50.04073 | 21.52892 | 132° | 31km/h | 15133m | 4.3m/s | 0°C | 0% | 0hPa | 0V | 00:00:00 | 00:00:00 | 00:00:00 | |
| AKAW68 | 2026-08-30 12:13:21 | 50.04077 | 21.52883 | 121° | 27km/h | 15129m | 4.1m/s | 0°C | 0% | 0hPa | 0V | 00:00:00 | 00:00:00 | 00:00:00 | |
| MIELECB | 2026-08-30 12:13:17 | 50.04098 | 21.52838 | 131° | 44km/h | 15117m | 1.9m/s | 0°C | 0% | 0hPa | 0V | 00:00:00 | 00:00:00 | 00:00:00 | |
| MIELECB | 2026-08-30 12:13:12 | 50.04122 | 21.52783 | 129° | 33km/h | 15102m | 3.3m/s | 0°C | 0% | 0hPa | 0V | 00:00:00 | 00:00:00 | 00:00:00 | |
| SQ9PSP-11 | 2026-08-30 12:13:07 | 50.04149 | 21.52711 | 117° | 40km/h | 15085m | 4.2m/s | 0°C | 0% | 0hPa | 0V | 00:00:00 | 00:00:00 | 00:00:00 | |
| MIELECB | 2026-08-30 12:13:06 | 50.04153 | 21.52697 | 116° | 38km/h | 15082m | 3.4m/s | 0°C | 0% | 0hPa | 0V | 00:00:00 | 00:00:00 | 00:00:00 | |
| AKAW68 | 2026-08-30 12:13:00 | 50.04185 | 21.52611 | 108° | 42km/h | 15063m | 1.3m/s | 0°C | 0% | 0hPa | 0V | 00:00:00 | 00:00:00 | 00:00:00 | |
| MIELECB | 2026-08-30 12:12:55 | 50.04209 | 21.52532 | 117° | 44km/h | 15048m | 3.7m/s | 0°C | 0% | 0hPa | 0V | 00:00:00 | 00:00:00 | 00:00:00 | |
| SQ9PSP-11 | 2026-08-30 12:12:51 | 50.04227 | 21.52465 | 114° | 49km/h | 15034m | 5.1m/s | 0°C | 0% | 0hPa | 0V | 00:00:00 | 00:00:00 | 00:00:00 | |
| MIELECB | 2026-08-30 12:12:49 | 50.04238 | 21.52430 | 116° | 46km/h | 15026m | 3.5m/s | 0°C | 0% | 0hPa | 0V | 00:00:00 | 00:00:00 | 00:00:00 | |
| MIELECB | 2026-08-30 12:12:44 | 50.04264 | 21.52356 | 119° | 47km/h | 15011m | 2.7m/s | 0°C | 0% | 0hPa | 0V | 00:00:00 | 00:00:00 | 00:00:00 | |
| AKAW68 | 2026-08-30 12:12:40 | 50.04283 | 21.52280 | 118° | 55km/h | 14998m | 4.2m/s | 0°C | 0% | 0hPa | 0V | 00:00:00 | 00:00:00 | 00:00:00 | |
| MIELECB | 2026-08-30 12:12:38 | 50.04295 | 21.52244 | 119° | 49km/h | 14992m | 3.0m/s | 0°C | 0% | 0hPa | 0V | 00:00:00 | 00:00:00 | 00:00:00 | |
| SQ9PSP-11 | 2026-08-30 12:12:36 | 50.04305 | 21.52214 | 117° | 38km/h | 14986m | 3.2m/s | 0°C | 0% | 0hPa | 0V | 00:00:00 | 00:00:00 | 00:00:00 | |
| MIELECB | 2026-08-30 12:12:33 | 50.04319 | 21.52170 | 117° | 46km/h | 14976m | 2.6m/s | 0°C | 0% | 0hPa | 0V | 00:00:00 | 00:00:00 | 00:00:00 | |
| MIELECB | 2026-08-30 12:12:28 | 50.04346 | 21.52074 | 116° | 51km/h | 14960m | 3.9m/s | 0°C | 0% | 0hPa | 0V | 00:00:00 | 00:00:00 | 00:00:00 | |
| MIELECB | 2026-08-30 12:12:22 | 50.04375 | 21.51984 | 120° | 49km/h | 14942m | 2.2m/s | 0°C | 0% | 0hPa | 0V | 00:00:00 | 00:00:00 | 00:00:00 | |
| SQ9PSP-11 | 2026-08-30 12:12:21 | 50.04380 | 21.51966 | 115° | 57km/h | 14939m | 4.1m/s | 0°C | 0% | 0hPa | 0V | 00:00:00 | 00:00:00 | 00:00:00 | |
| AKAW68 | 2026-08-30 12:12:20 | 50.04386 | 21.51945 | 108° | 58km/h | 14936m | 4.0m/s | 0°C | 0% | 0hPa | 0V | 00:00:00 | 00:00:00 | 00:00:00 | |
| MIELECB | 2026-08-30 12:12:16 | 50.04402 | 21.51872 | 118° | 42km/h | 14923m | 3.7m/s | 0°C | 0% | 0hPa | 0V | 00:00:00 | 00:00:00 | 00:00:00 | |
| MIELECB | 2026-08-30 12:12:11 | 50.04423 | 21.51800 | 115° | 51km/h | 14908m | 2.8m/s | 0°C | 0% | 0hPa | 0V | 00:00:00 | 00:00:00 | 00:00:00 | |
| MIELECB | 2026-08-30 12:12:00 | 50.04468 | 21.51608 | 103° | 57km/h | 14875m | 3.9m/s | 0°C | 0% | 0hPa | 0V | 00:00:00 | 00:00:00 | 00:00:00 | |
| MIELECB | 2026-08-30 12:11:54 | 50.04489 | 21.51487 | 104° | 47km/h | 14855m | 3.5m/s | 0°C | 0% | 0hPa | 0V | 00:00:00 | 00:00:00 | 00:00:00 | |
| MIELECB | 2026-08-30 12:11:49 | 50.04513 | 21.51397 | 113° | 51km/h | 14837m | 3.7m/s | 0°C | 0% | 0hPa | 0V | 00:00:00 | 00:00:00 | 00:00:00 | |
| MIELECB | 2026-08-30 12:11:43 | 50.04535 | 21.51277 | 112° | 55km/h | 14818m | 3.1m/s | 0°C | 0% | 0hPa | 0V | 00:00:00 | 00:00:00 | 00:00:00 | |
| AKAW68 | 2026-08-30 12:11:39 | 50.04552 | 21.51199 | 111° | 49km/h | 14808m | 3.4m/s | 0°C | 0% | 0hPa | 0V | 00:00:00 | 00:00:00 | 00:00:00 | |
| MIELECB | 2026-08-30 12:11:37 | 50.04559 | 21.51161 | 102° | 51km/h | 14801m | 5.0m/s | 0°C | 0% | 0hPa | 0V | 00:00:00 | 00:00:00 | 00:00:00 | |
| SQ9PSP-11 | 2026-08-30 12:11:33 | 50.04570 | 21.51072 | 109° | 60km/h | 14786m | 3.6m/s | 0°C | 0% | 0hPa | 0V | 00:00:00 | 00:00:00 | 00:00:00 | |
| MIELECB | 2026-08-30 12:11:32 | 50.04576 | 21.51049 | 114° | 64km/h | 14783m | 3.0m/s | 0°C | 0% | 0hPa | 0V | 00:00:00 | 00:00:00 | 00:00:00 | |
| MIELECB | 2026-08-30 12:11:27 | 50.04602 | 21.50929 | 103° | 53km/h | 14768m | 4.1m/s | 0°C | 0% | 0hPa | 0V | 00:00:00 | 00:00:00 | 00:00:00 | |
| MIELECB | 2026-08-30 12:11:21 | 50.04610 | 21.50783 | 98° | 75km/h | 14750m | 3.7m/s | 0°C | 0% | 0hPa | 0V | 00:00:00 | 00:00:00 | 00:00:00 | |
| AKAW68 | 2026-08-30 12:11:18 | 50.04619 | 21.50705 | 101° | 58km/h | 14740m | 3.9m/s | 0°C | 0% | 0hPa | 0V | 00:00:00 | 00:00:00 | 00:00:00 | |
| MIELECB | 2026-08-30 12:11:15 | 50.04627 | 21.50638 | 102° | 62km/h | 14729m | 4.9m/s | 0°C | 0% | 0hPa | 0V | 00:00:00 | 00:00:00 | 00:00:00 | |
| MIELECB | 2026-08-30 12:11:09 | 50.04639 | 21.50476 | 95° | 77km/h | 14707m | 3.3m/s | 0°C | 0% | 0hPa | 0V | 00:00:00 | 00:00:00 | 00:00:00 | |
| MIELECB | 2026-08-30 12:11:04 | 50.04644 | 21.50312 | 96° | 68km/h | 14690m | 3.7m/s | 0°C | 0% | 0hPa | 0V | 00:00:00 | 00:00:00 | 00:00:00 | |
| SQ9PSP-11 | 2026-08-30 12:11:02 | 50.04646 | 21.50286 | 97° | 68km/h | 14687m | 3.3m/s | 0°C | 0% | 0hPa | 0V | 00:00:00 | 00:00:00 | 00:00:00 | |
| MIELECB | 2026-08-30 12:10:58 | 50.04649 | 21.50176 | 89° | 71km/h | 14676m | 3.3m/s | 0°C | 0% | 0hPa | 0V | 00:00:00 | 00:00:00 | 00:00:00 | |
| MIELECB | 2026-08-30 12:10:53 | 50.04650 | 21.50006 | 93° | 68km/h | 14657m | 3.7m/s | 0°C | 0% | 0hPa | 0V | 00:00:00 | 00:00:00 | 00:00:00 | |
| MIELECB | 2026-08-30 12:10:47 | 50.04655 | 21.49875 | 92° | 66km/h | 14641m | 3.2m/s | 0°C | 0% | 0hPa | 0V | 00:00:00 | 00:00:00 | 00:00:00 | |
| MIELECB | 2026-08-30 12:10:41 | 50.04663 | 21.49710 | 96° | 71km/h | 14621m | 3.9m/s | 0°C | 0% | 0hPa | 0V | 00:00:00 | 00:00:00 | 00:00:00 | |
| AKAW68 | 2026-08-30 12:10:38 | 50.04668 | 21.49629 | 92° | 69km/h | 14612m | 4.7m/s | 0°C | 0% | 0hPa | 0V | 00:00:00 | 00:00:00 | 00:00:00 | |
| SQ9EZE-14 | 2026-08-30 12:10:37 | 50.04668 | 21.49603 | 95° | 66km/h | 14608m | 4.1m/s | 0°C | 0% | 0hPa | 0V | 00:00:00 | 00:00:00 | 00:00:00 | |
| MIELECB | 2026-08-30 12:10:36 | 50.04669 | 21.49576 | 93° | 68km/h | 14605m | 4.2m/s | 0°C | 0% | 0hPa | 0V | 00:00:00 | 00:00:00 | 00:00:00 | |
| SQ9PSP-11 | 2026-08-30 12:10:32 | 50.04670 | 21.49464 | 93° | 71km/h | 14591m | 5.2m/s | 0°C | 0% | 0hPa | 0V | 00:00:00 | 00:00:00 | 00:00:00 | |
| MIELECB | 2026-08-30 12:10:31 | 50.04671 | 21.49436 | 90° | 73km/h | 14587m | 3.1m/s | 0°C | 0% | 0hPa | 0V | 00:00:00 | 00:00:00 | 00:00:00 | |
| MIELECB | 2026-08-30 12:10:25 | 50.04669 | 21.49273 | 84° | 68km/h | 14569m | 2.6m/s | 0°C | 0% | 0hPa | 0V | 00:00:00 | 00:00:00 | 00:00:00 | |
| AKAW68 | 2026-08-30 12:10:17 | 50.04671 | 21.49062 | 95° | 62km/h | 14546m | 2.2m/s | 0°C | 0% | 0hPa | 0V | 00:00:00 | 00:00:00 | 00:00:00 | |
| MIELECB | 2026-08-30 12:10:14 | 50.04670 | 21.48988 | 88° | 62km/h | 14537m | 3.4m/s | 0°C | 0% | 0hPa | 0V | 00:00:00 | 00:00:00 | 00:00:00 | |
| MIELECB | 2026-08-30 12:10:08 | 50.04672 | 21.48832 | 93° | 66km/h | 14518m | 4.5m/s | 0°C | 0% | 0hPa | 0V | 00:00:00 | 00:00:00 | 00:00:00 | |
| SQ9EZE-12 | 2026-08-30 12:10:07 | 50.04673 | 21.48808 | 95° | 62km/h | 14514m | 3.3m/s | 0°C | 0% | 0hPa | 0V | 00:00:00 | 00:00:00 | 00:00:00 | |
| MIELECB | 2026-08-30 12:10:03 | 50.04671 | 21.48715 | 86° | 64km/h | 14502m | 3.6m/s | 0°C | 0% | 0hPa | 0V | 00:00:00 | 00:00:00 | 00:00:00 | |
| SQ9PSP-11 | 2026-08-30 12:10:00 | 50.04670 | 21.48638 | 91° | 68km/h | 14492m | 3.6m/s | 0°C | 0% | 0hPa | 0V | 00:00:00 | 00:00:00 | 00:00:00 | |
| MIELECB | 2026-08-30 12:09:57 | 50.04668 | 21.48562 | 86° | 58km/h | 14483m | 2.5m/s | 0°C | 0% | 0hPa | 0V | 00:00:00 | 00:00:00 | 00:00:00 | |
| MIELECB | 2026-08-30 12:09:51 | 50.04665 | 21.48415 | 94° | 66km/h | 14465m | 5.8m/s | 0°C | 0% | 0hPa | 0V | 00:00:00 | 00:00:00 | 00:00:00 | |
| MIELECB | 2026-08-30 12:09:46 | 50.04667 | 21.48302 | 91° | 51km/h | 14448m | 3.0m/s | 0°C | 0% | 0hPa | 0V | 00:00:00 | 00:00:00 | 00:00:00 | |
| SQ9PSP-11 | 2026-08-30 12:09:45 | 50.04667 | 21.48282 | 96° | 53km/h | 14445m | 4.5m/s | 0°C | 0% | 0hPa | 0V | 00:00:00 | 00:00:00 | 00:00:00 | |
| MIELECB | 2026-08-30 12:09:40 | 50.04671 | 21.48156 | 87° | 60km/h | 14429m | 3.2m/s | 0°C | 0% | 0hPa | 0V | 00:00:00 | 00:00:00 | 00:00:00 | |
| AKAW68 | 2026-08-30 12:09:37 | 50.04671 | 21.48091 | 96° | 53km/h | 14419m | 3.4m/s | 0°C | 0% | 0hPa | 0V | 00:00:00 | 00:00:00 | 00:00:00 | |
| MIELECB | 2026-08-30 12:09:35 | 50.04671 | 21.48049 | 93° | 58km/h | 14413m | 4.2m/s | 0°C | 0% | 0hPa | 0V | 00:00:00 | 00:00:00 | 00:00:00 | |
| SQ9PSP-11 | 2026-08-30 12:09:29 | 50.04670 | 21.47905 | 95° | 58km/h | 14396m | 4.0m/s | 0°C | 0% | 0hPa | 0V | 00:00:00 | 00:00:00 | 00:00:00 | |
| MIELECB | 2026-08-30 12:09:24 | 50.04669 | 21.47799 | 88° | 55km/h | 14378m | 3.0m/s | 0°C | 0% | 0hPa | 0V | 00:00:00 | 00:00:00 | 00:00:00 | |
| MIELECB | 2026-08-30 12:09:18 | 50.04669 | 21.47659 | 90° | 55km/h | 14360m | 3.4m/s | 0°C | 0% | 0hPa | 0V | 00:00:00 | 00:00:00 | 00:00:00 | |
| AKAW68 | 2026-08-30 12:09:17 | 50.04668 | 21.47639 | 83° | 49km/h | 14357m | 3.3m/s | 0°C | 0% | 0hPa | 0V | 00:00:00 | 00:00:00 | 00:00:00 | |
| SQ9PSP-11 | 2026-08-30 12:09:13 | 50.04660 | 21.47560 | 87° | 53km/h | 14346m | 4.4m/s | 0°C | 0% | 0hPa | 0V | 00:00:00 | 00:00:00 | 00:00:00 | |
| MIELECB | 2026-08-30 12:09:12 | 50.04660 | 21.47539 | 94° | 53km/h | 14343m | 2.4m/s | 0°C | 0% | 0hPa | 0V | 00:00:00 | 00:00:00 | 00:00:00 | |
| MIELECB | 2026-08-30 12:09:06 | 50.04656 | 21.47408 | 80° | 46km/h | 14325m | 2.2m/s | 0°C | 0% | 0hPa | 0V | 00:00:00 | 00:00:00 | 00:00:00 | |
| MIELECB | 2026-08-30 12:09:00 | 50.04644 | 21.47289 | 87° | 51km/h | 14307m | 5.8m/s | 0°C | 0% | 0hPa | 0V | 00:00:00 | 00:00:00 | 00:00:00 | |
| SQ9PSP-11 | 2026-08-30 12:08:57 | 50.04640 | 21.47224 | 83° | 57km/h | 14295m | 3.7m/s | 0°C | 0% | 0hPa | 0V | 00:00:00 | 00:00:00 | 00:00:00 | |
| AKAW68 | 2026-08-30 12:08:56 | 50.04638 | 21.47203 | 83° | 53km/h | 14292m | 4.2m/s | 0°C | 0% | 0hPa | 0V | 00:00:00 | 00:00:00 | 00:00:00 | |
| MIELECB | 2026-08-30 12:08:54 | 50.04634 | 21.47161 | 80° | 51km/h | 14286m | 4.2m/s | 0°C | 0% | 0hPa | 0V | 00:00:00 | 00:00:00 | 00:00:00 | |
| MIELECB | 2026-08-30 12:08:48 | 50.04623 | 21.47042 | 83° | 53km/h | 14264m | 4.9m/s | 0°C | 0% | 0hPa | 0V | 00:00:00 | 00:00:00 | 00:00:00 | |
| MIELECB | 2026-08-30 12:08:42 | 50.04610 | 21.46922 | 78° | 49km/h | 14242m | 4.4m/s | 0°C | 0% | 0hPa | 0V | 00:00:00 | 00:00:00 | 00:00:00 | |
| SQ9PSP-11 | 2026-08-30 12:08:41 | 50.04608 | 21.46902 | 80° | 53km/h | 14240m | 1.1m/s | 0°C | 0% | 0hPa | 0V | 00:00:00 | 00:00:00 | 00:00:00 | |
| AKAW68 | 2026-08-30 12:08:36 | 50.04597 | 21.46806 | 82° | 49km/h | 14227m | 4.1m/s | 0°C | 0% | 0hPa | 0V | 00:00:00 | 00:00:00 | 00:00:00 | |
| MIELECB | 2026-08-30 12:08:32 | 50.04583 | 21.46714 | 81° | 44km/h | 14209m | 5.7m/s | 0°C | 0% | 0hPa | 0V | 00:00:00 | 00:00:00 | 00:00:00 | |
| MIELECB | 2026-08-30 12:08:25 | 50.04575 | 21.46610 | 82° | 49km/h | 14189m | 3.4m/s | 0°C | 0% | 0hPa | 0V | 00:00:00 | 00:00:00 | 00:00:00 | |
| MIELECB | 2026-08-30 12:08:20 | 50.04565 | 21.46516 | 85° | 51km/h | 14171m | 4.9m/s | 0°C | 0% | 0hPa | 0V | 00:00:00 | 00:00:00 | 00:00:00 | |
| AKAW68 | 2026-08-30 12:08:16 | 50.04559 | 21.46447 | 86° | 38km/h | 14156m | 4.3m/s | 0°C | 0% | 0hPa | 0V | 00:00:00 | 00:00:00 | 00:00:00 | |
| MIELECB | 2026-08-30 12:08:14 | 50.04556 | 21.46413 | 80° | 46km/h | 14148m | 2.9m/s | 0°C | 0% | 0hPa | 0V | 00:00:00 | 00:00:00 | 00:00:00 | |
| SQ9EZE-12 | 2026-08-30 12:08:11 | 50.04551 | 21.46362 | 86° | 40km/h | 14138m | 4.2m/s | 0°C | 0% | 0hPa | 0V | 00:00:00 | 00:00:00 | 00:00:00 | |
| SQ9PSP-11 | 2026-08-30 12:08:10 | 50.04550 | 21.46346 | 84° | 40km/h | 14135m | 2.2m/s | 0°C | 0% | 0hPa | 0V | 00:00:00 | 00:00:00 | 00:00:00 | |
| MIELECB | 2026-08-30 12:08:09 | 50.04549 | 21.46330 | 92° | 42km/h | 14132m | 4.7m/s | 0°C | 0% | 0hPa | 0V | 00:00:00 | 00:00:00 | 00:00:00 | |
| MIELECB | 2026-08-30 12:08:03 | 50.04545 | 21.46234 | 80° | 44km/h | 14116m | 3.6m/s | 0°C | 0% | 0hPa | 0V | 00:00:00 | 00:00:00 | 00:00:00 | |
| MIELECB | 2026-08-30 12:07:58 | 50.04537 | 21.46156 | 87° | 38km/h | 14099m | 4.6m/s | 0°C | 0% | 0hPa | 0V | 00:00:00 | 00:00:00 | 00:00:00 | |
| SQ9PSP-11 | 2026-08-30 12:07:55 | 50.04534 | 21.46108 | 86° | 40km/h | 14088m | 4.5m/s | 0°C | 0% | 0hPa | 0V | 00:00:00 | 00:00:00 | 00:00:00 | |
| MIELECB | 2026-08-30 12:07:52 | 50.04536 | 21.46064 | 92° | 40km/h | 14076m | 4.3m/s | 0°C | 0% | 0hPa | 0V | 00:00:00 | 00:00:00 | 00:00:00 | |
| MIELECB | 2026-08-30 12:07:47 | 50.04538 | 21.45985 | 92° | 40km/h | 14060m | 4.5m/s | 0°C | 0% | 0hPa | 0V | 00:00:00 | 00:00:00 | 00:00:00 | |
| MIELECB | 2026-08-30 12:07:41 | 50.04538 | 21.45891 | 98° | 40km/h | 14041m | 4.5m/s | 0°C | 0% | 0hPa | 0V | 00:00:00 | 00:00:00 | 00:00:00 | |
| SQ9PSP-11 | 2026-08-30 12:07:39 | 50.04539 | 21.45856 | 92° | 47km/h | 14034m | 3.5m/s | 0°C | 0% | 0hPa | 0V | 00:00:00 | 00:00:00 | 00:00:00 | |
| MIELECB | 2026-08-30 12:07:36 | 50.04536 | 21.45807 | 81° | 40km/h | 14024m | 3.8m/s | 0°C | 0% | 0hPa | 0V | 00:00:00 | 00:00:00 | 00:00:00 | |
| MIELECB | 2026-08-30 12:07:30 | 50.04537 | 21.45717 | 100° | 44km/h | 14004m | 4.7m/s | 0°C | 0% | 0hPa | 0V | 00:00:00 | 00:00:00 | 00:00:00 | |
| MIELECB | 2026-08-30 12:07:24 | 50.04539 | 21.45608 | 85° | 42km/h | 13984m | 5.0m/s | 0°C | 0% | 0hPa | 0V | 00:00:00 | 00:00:00 | 00:00:00 | |
| SQ9PSP-11 | 2026-08-30 12:07:23 | 50.04538 | 21.45592 | 85° | 42km/h | 13979m | 5.4m/s | 0°C | 0% | 0hPa | 0V | 00:00:00 | 00:00:00 | 00:00:00 | |
| SQ9EZE-12 | 2026-08-30 12:07:21 | 50.04535 | 21.45556 | 86° | 46km/h | 13972m | 4.1m/s | 0°C | 0% | 0hPa | 0V | 00:00:00 | 00:00:00 | 00:00:00 | |
| MIELECB | 2026-08-30 12:07:18 | 50.04534 | 21.45505 | 93° | 42km/h | 13962m | 3.5m/s | 0°C | 0% | 0hPa | 0V | 00:00:00 | 00:00:00 | 00:00:00 | |
| MIELECB | 2026-08-30 12:07:12 | 50.04521 | 21.45400 | 74° | 46km/h | 13941m | 4.0m/s | 0°C | 0% | 0hPa | 0V | 00:00:00 | 00:00:00 | 00:00:00 | |
| SQ9PSP-11 | 2026-08-30 12:07:08 | 50.04514 | 21.45322 | 84° | 51km/h | 13926m | 4.2m/s | 0°C | 0% | 0hPa | 0V | 00:00:00 | 00:00:00 | 00:00:00 | |
| MIELECB | 2026-08-30 12:07:06 | 50.04509 | 21.45286 | 74° | 44km/h | 13919m | 3.9m/s | 0°C | 0% | 0hPa | 0V | 00:00:00 | 00:00:00 | 00:00:00 | |
| SQ9EZE-12 | 2026-08-30 12:07:04 | 50.04503 | 21.45253 | 79° | 42km/h | 13911m | 4.5m/s | 0°C | 0% | 0hPa | 0V | 00:00:00 | 00:00:00 | 00:00:00 | |
| MIELECB | 2026-08-30 12:07:00 | 50.04491 | 21.45182 | 74° | 53km/h | 13896m | 4.4m/s | 0°C | 0% | 0hPa | 0V | 00:00:00 | 00:00:00 | 00:00:00 | |
| MIELECB | 2026-08-30 12:06:55 | 50.04470 | 21.45081 | 67° | 46km/h | 13878m | 3.1m/s | 0°C | 0% | 0hPa | 0V | 00:00:00 | 00:00:00 | 00:00:00 | |
| SQ9PSP-11 | 2026-08-30 12:06:52 | 50.04458 | 21.45034 | 77° | 44km/h | 13868m | 3.3m/s | 0°C | 0% | 0hPa | 0V | 00:00:00 | 00:00:00 | 00:00:00 | |
| MIELECB | 2026-08-30 12:06:49 | 50.04445 | 21.44976 | 68° | 57km/h | 13858m | 3.9m/s | 0°C | 0% | 0hPa | 0V | 00:00:00 | 00:00:00 | 00:00:00 | |
| SQ9EZE-12 | 2026-08-30 12:06:47 | 50.04434 | 21.44932 | 74° | 57km/h | 13851m | 4.5m/s | 0°C | 0% | 0hPa | 0V | 00:00:00 | 00:00:00 | 00:00:00 | |
| MIELECB | 2026-08-30 12:06:44 | 50.04426 | 21.44874 | 80° | 46km/h | 13842m | 3.2m/s | 0°C | 0% | 0hPa | 0V | 00:00:00 | 00:00:00 | 00:00:00 | |
| SQ9PSP-11 | 2026-08-30 12:06:37 | 50.04397 | 21.44749 | 76° | 49km/h | 13820m | 4.0m/s | 0°C | 0% | 0hPa | 0V | 00:00:00 | 00:00:00 | 00:00:00 | |
| MIELECB | 2026-08-30 12:06:33 | 50.04383 | 21.44674 | 77° | 49km/h | 13805m | 5.2m/s | 0°C | 0% | 0hPa | 0V | 00:00:00 | 00:00:00 | 00:00:00 | |
| SQ9EZE-12 | 2026-08-30 12:06:29 | 50.04367 | 21.44605 | 70° | 46km/h | 13792m | 4.2m/s | 0°C | 0% | 0hPa | 0V | 00:00:00 | 00:00:00 | 00:00:00 | |
| MIELECB | 2026-08-30 12:06:27 | 50.04360 | 21.44569 | 78° | 47km/h | 13785m | 3.7m/s | 0°C | 0% | 0hPa | 0V | 00:00:00 | 00:00:00 | 00:00:00 | |
| MIELECB | 2026-08-30 12:06:22 | 50.04344 | 21.44481 | 76° | 49km/h | 13768m | 4.5m/s | 0°C | 0% | 0hPa | 0V | 00:00:00 | 00:00:00 | 00:00:00 | |
| MIELECB | 2026-08-30 12:06:16 | 50.04328 | 21.44387 | 80° | 44km/h | 13747m | 3.8m/s | 0°C | 0% | 0hPa | 0V | 00:00:00 | 00:00:00 | 00:00:00 | |
| SQ9EZE-12 | 2026-08-30 12:06:12 | 50.04320 | 21.44321 | 83° | 38km/h | 13736m | 4.3m/s | 0°C | 0% | 0hPa | 0V | 00:00:00 | 00:00:00 | 00:00:00 | |
| MIELECB | 2026-08-30 12:06:10 | 50.04316 | 21.44288 | 78° | 44km/h | 13726m | 5.5m/s | 0°C | 0% | 0hPa | 0V | 00:00:00 | 00:00:00 | 00:00:00 | |
| SQ9PSP-11 | 2026-08-30 12:06:06 | 50.04308 | 21.44225 | 82° | 38km/h | 13712m | 4.0m/s | 0°C | 0% | 0hPa | 0V | 00:00:00 | 00:00:00 | 00:00:00 | |
| MIELECB | 2026-08-30 12:06:05 | 50.04306 | 21.44209 | 81° | 44km/h | 13708m | 6.3m/s | 0°C | 0% | 0hPa | 0V | 00:00:00 | 00:00:00 | 00:00:00 | |
| MIELECB | 2026-08-30 12:05:59 | 50.04294 | 21.44114 | 80° | 42km/h | 13686m | 4.1m/s | 0°C | 0% | 0hPa | 0V | 00:00:00 | 00:00:00 | 00:00:00 | |
| MIELECB | 2026-08-30 12:05:54 | 50.04289 | 21.44034 | 84° | 46km/h | 13668m | 5.1m/s | 0°C | 0% | 0hPa | 0V | 00:00:00 | 00:00:00 | 00:00:00 | |
| SQ9EZE-12 | 2026-08-30 12:05:53 | 50.04287 | 21.44017 | 84° | 42km/h | 13664m | 3.2m/s | 0°C | 0% | 0hPa | 0V | 00:00:00 | 00:00:00 | 00:00:00 | |
| SQ9PSP-11 | 2026-08-30 12:05:51 | 50.04284 | 21.43983 | 76° | 44km/h | 13660m | 3.7m/s | 0°C | 0% | 0hPa | 0V | 00:00:00 | 00:00:00 | 00:00:00 | |
| MIELECB | 2026-08-30 12:05:48 | 50.04278 | 21.43929 | 86° | 49km/h | 13648m | 4.2m/s | 0°C | 0% | 0hPa | 0V | 00:00:00 | 00:00:00 | 00:00:00 | |
| MIELECB | 2026-08-30 12:05:43 | 50.04279 | 21.43842 | 91° | 44km/h | 13634m | 3.8m/s | 0°C | 0% | 0hPa | 0V | 00:00:00 | 00:00:00 | 00:00:00 | |
| MIELECB | 2026-08-30 12:05:39 | 50.04275 | 21.43756 | 85° | 46km/h | 13618m | 4.8m/s | 0°C | 0% | 0hPa | 0V | 00:00:00 | 00:00:00 | 00:00:00 | |
| SQ9EZE-12 | 2026-08-30 12:05:36 | 50.04273 | 21.43721 | 88° | 44km/h | 13609m | 5.1m/s | 0°C | 0% | 0hPa | 0V | 00:00:00 | 00:00:00 | 00:00:00 | |
| SQ9PSP-11 | 2026-08-30 12:05:35 | 50.04272 | 21.43703 | 86° | 44km/h | 13605m | 4.5m/s | 0°C | 0% | 0hPa | 0V | 00:00:00 | 00:00:00 | 00:00:00 | |
| MIELECB | 2026-08-30 12:05:32 | 50.04271 | 21.43649 | 88° | 49km/h | 13595m | 3.7m/s | 0°C | 0% | 0hPa | 0V | 00:00:00 | 00:00:00 | 00:00:00 | |
| MIELECB | 2026-08-30 12:05:27 | 50.04269 | 21.43560 | 91° | 49km/h | 13578m | 4.6m/s | 0°C | 0% | 0hPa | 0V | 00:00:00 | 00:00:00 | 00:00:00 | |
| SQ9EZE-12 | 2026-08-30 12:05:21 | 50.04266 | 21.43452 | 96° | 47km/h | 13555m | 4.7m/s | 0°C | 0% | 0hPa | 0V | 00:00:00 | 00:00:00 | 00:00:00 | |
| MIELECB | 2026-08-30 12:05:16 | 50.04264 | 21.43354 | 87° | 51km/h | 13536m | 4.2m/s | 0°C | 0% | 0hPa | 0V | 00:00:00 | 00:00:00 | 00:00:00 | |
| MIELECB | 2026-08-30 12:05:10 | 50.04267 | 21.43232 | 98° | 49km/h | 13516m | 4.2m/s | 0°C | 0% | 0hPa | 0V | 00:00:00 | 00:00:00 | 00:00:00 | |
| MIELECB | 2026-08-30 12:05:04 | 50.04267 | 21.43112 | 92° | 57km/h | 13497m | 4.4m/s | 0°C | 0% | 0hPa | 0V | 00:00:00 | 00:00:00 | 00:00:00 | |
| MIELECB | 2026-08-30 12:04:59 | 50.04271 | 21.43005 | 95° | 49km/h | 13479m | 3.7m/s | 0°C | 0% | 0hPa | 0V | 00:00:00 | 00:00:00 | 00:00:00 | |
| SQ9EZE-12 | 2026-08-30 12:04:55 | 50.04273 | 21.42922 | 89° | 51km/h | 13466m | 3.9m/s | 0°C | 0% | 0hPa | 0V | 00:00:00 | 00:00:00 | 00:00:00 | |
| MIELECB | 2026-08-30 12:04:54 | 50.04274 | 21.42900 | 94° | 58km/h | 13462m | 5.6m/s | 0°C | 0% | 0hPa | 0V | 00:00:00 | 00:00:00 | 00:00:00 | |
| MIELECB | 2026-08-30 12:04:49 | 50.04284 | 21.42794 | 102° | 49km/h | 13444m | 4.5m/s | 0°C | 0% | 0hPa | 0V | 00:00:00 | 00:00:00 | 00:00:00 | |
| MIELECB | 2026-08-30 12:04:43 | 50.04289 | 21.42660 | 93° | 60km/h | 13424m | 3.3m/s | 0°C | 0% | 0hPa | 0V | 00:00:00 | 00:00:00 | 00:00:00 | |
| MIELECB | 2026-08-30 12:04:38 | 50.04298 | 21.42561 | 102° | 51km/h | 13408m | 5.2m/s | 0°C | 0% | 0hPa | 0V | 00:00:00 | 00:00:00 | 00:00:00 | |
| SQ9EZE-12 | 2026-08-30 12:04:33 | 50.04306 | 21.42454 | 93° | 58km/h | 13392m | 4.2m/s | 0°C | 0% | 0hPa | 0V | 00:00:00 | 00:00:00 | 00:00:00 | |
| MIELECB | 2026-08-30 12:04:32 | 50.04306 | 21.42431 | 94° | 57km/h | 13388m | 3.3m/s | 0°C | 0% | 0hPa | 0V | 00:00:00 | 00:00:00 | 00:00:00 | |
| MIELECB | 2026-08-30 12:04:27 | 50.04316 | 21.42330 | 104° | 57km/h | 13370m | 3.4m/s | 0°C | 0% | 0hPa | 0V | 00:00:00 | 00:00:00 | 00:00:00 | |
| MIELECB | 2026-08-30 12:04:21 | 50.04318 | 21.42184 | 95° | 55km/h | 13348m | 3.6m/s | 0°C | 0% | 0hPa | 0V | 00:00:00 | 00:00:00 | 00:00:00 | |
| SQ9EZE-12 | 2026-08-30 12:04:17 | 50.04326 | 21.42094 | 101° | 55km/h | 13334m | 4.3m/s | 0°C | 0% | 0hPa | 0V | 00:00:00 | 00:00:00 | 00:00:00 | |
| MIELECB | 2026-08-30 12:04:16 | 50.04328 | 21.42072 | 97° | 60km/h | 13330m | 4.3m/s | 0°C | 0% | 0hPa | 0V | 00:00:00 | 00:00:00 | 00:00:00 | |
| MIELECB | 2026-08-30 12:04:10 | 50.04335 | 21.41927 | 93° | 64km/h | 13311m | 5.1m/s | 0°C | 0% | 0hPa | 0V | 00:00:00 | 00:00:00 | 00:00:00 | |
| MIELECB | 2026-08-30 12:03:59 | 50.04352 | 21.41651 | 90° | 66km/h | 13271m | 3.2m/s | 0°C | 0% | 0hPa | 0V | 00:00:00 | 00:00:00 | 00:00:00 | |
| SQ9EZE-12 | 2026-08-30 12:03:53 | 50.04364 | 21.41506 | 99° | 68km/h | 13252m | 3.2m/s | 0°C | 0% | 0hPa | 0V | 00:00:00 | 00:00:00 | 00:00:00 | |
| SQ9EZE-12 | 2026-08-30 12:02:30 | 50.04539 | 21.39407 | 97° | 78km/h | 12972m | 4.6m/s | 0°C | 0% | 0hPa | 0V | 00:00:00 | 00:00:00 | 00:00:00 | |
| SQ9EZE-12 | 2026-08-30 12:02:09 | 50.04560 | 21.38823 | 90° | 64km/h | 12905m | 3.8m/s | 0°C | 0% | 0hPa | 0V | 00:00:00 | 00:00:00 | 00:00:00 | |
| SQ9EZE-12 | 2026-08-30 12:01:37 | 50.04516 | 21.38052 | 83° | 57km/h | 12790m | 1.4m/s | 0°C | 0% | 0hPa | 0V | 00:00:00 | 00:00:00 | 00:00:00 | |
| SQ9EZE-12 | 2026-08-30 12:00:51 | 50.04486 | 21.37071 | 93° | 58km/h | 12617m | 3.6m/s | 0°C | 0% | 0hPa | 0V | 00:00:00 | 00:00:00 | 00:00:00 | |
| SQ9EZE-12 | 2026-08-30 12:00:33 | 50.04505 | 21.36682 | 94° | 58km/h | 12542m | 3.3m/s | 0°C | 0% | 0hPa | 0V | 00:00:00 | 00:00:00 | 00:00:00 | |
| SQ9EZE-12 | 2026-08-30 11:59:52 | 50.04537 | 21.35658 | 94° | 62km/h | 12363m | 5.2m/s | 0°C | 0% | 0hPa | 0V | 00:00:00 | 00:00:00 | 00:00:00 | |
| SQ9EZE-12 | 2026-08-30 11:59:36 | 50.04545 | 21.35271 | 92° | 62km/h | 12291m | 5.9m/s | 0°C | 0% | 0hPa | 0V | 00:00:00 | 00:00:00 | 00:00:00 | |
| SQ9EZE-12 | 2026-08-30 11:59:13 | 50.04585 | 21.34691 | 98° | 68km/h | 12191m | 4.9m/s | 0°C | 0% | 0hPa | 0V | 00:00:00 | 00:00:00 | 00:00:00 | |
| SQ9EZE-12 | 2026-08-30 11:58:57 | 50.04623 | 21.34248 | 98° | 75km/h | 12130m | 2.5m/s | 0°C | 0% | 0hPa | 0V | 00:00:00 | 00:00:00 | 00:00:00 | |
| SQ9EZE-12 | 2026-08-30 11:58:39 | 50.04667 | 21.33721 | 93° | 73km/h | 12057m | 3.0m/s | 0°C | 0% | 0hPa | 0V | 00:00:00 | 00:00:00 | 00:00:00 | |
| SQ9EZE-12 | 2026-08-30 11:58:23 | 50.04692 | 21.33275 | 97° | 69km/h | 11990m | 4.1m/s | 0°C | 0% | 0hPa | 0V | 00:00:00 | 00:00:00 | 00:00:00 | |
| AKAW68 | 2026-08-30 11:58:10 | 50.04691 | 21.32941 | 91° | 64km/h | 11940m | 5.8m/s | 0°C | 0% | 0hPa | 0V | 00:00:00 | 00:00:00 | 00:00:00 | |
| SQ9EZE-12 | 2026-08-30 11:58:07 | 50.04687 | 21.32866 | 87° | 68km/h | 11930m | 2.7m/s | 0°C | 0% | 0hPa | 0V | 00:00:00 | 00:00:00 | 00:00:00 | |
| SQ9EZE-12 | 2026-08-30 11:57:51 | 50.04651 | 21.32472 | 80° | 62km/h | 11872m | 3.1m/s | 0°C | 0% | 0hPa | 0V | 00:00:00 | 00:00:00 | 00:00:00 | |
| AKAW68 | 2026-08-30 11:57:49 | 50.04647 | 21.32426 | 84° | 57km/h | 11865m | 2.4m/s | 0°C | 0% | 0hPa | 0V | 00:00:00 | 00:00:00 | 00:00:00 | |
| SQ9EZE-12 | 2026-08-30 11:57:34 | 50.04619 | 21.32090 | 83° | 57km/h | 11808m | 6.2m/s | 0°C | 0% | 0hPa | 0V | 00:00:00 | 00:00:00 | 00:00:00 | |
| SQ9PSP-11 | 2026-08-30 11:57:32 | 50.04615 | 21.32047 | 83° | 57km/h | 11799m | 5.5m/s | 0°C | 0% | 0hPa | 0V | 00:00:00 | 00:00:00 | 00:00:00 | |
| AKAW68 | 2026-08-30 11:57:21 | 50.04605 | 21.31801 | 85° | 57km/h | 11763m | 2.7m/s | 0°C | 0% | 0hPa | 0V | 00:00:00 | 00:00:00 | 00:00:00 | |
| SQ9EZE-12 | 2026-08-30 11:57:19 | 50.04602 | 21.31755 | 83° | 60km/h | 11754m | 2.4m/s | 0°C | 0% | 0hPa | 0V | 00:00:00 | 00:00:00 | 00:00:00 | |
| SQ9EZE-15 | 2026-08-30 11:57:11 | 50.04596 | 21.31574 | 87° | 60km/h | 11729m | 6.8m/s | 0°C | 0% | 0hPa | 0V | 00:00:00 | 00:00:00 | 00:00:00 | |
| SQ9PSP-11 | 2026-08-30 11:57:07 | 50.04595 | 21.31483 | 93° | 57km/h | 11711m | 3.8m/s | 0°C | 0% | 0hPa | 0V | 00:00:00 | 00:00:00 | 00:00:00 | |
| SQ9EZE-12 | 2026-08-30 11:57:04 | 50.04595 | 21.31411 | 87° | 64km/h | 11701m | 1.3m/s | 0°C | 0% | 0hPa | 0V | 00:00:00 | 00:00:00 | 00:00:00 | |
| AKAW68 | 2026-08-30 11:56:58 | 50.04590 | 21.31262 | 88° | 58km/h | 11680m | 3.1m/s | 0°C | 0% | 0hPa | 0V | 00:00:00 | 00:00:00 | 00:00:00 | |
| SQ9PSP-11 | 2026-08-30 11:56:52 | 50.04590 | 21.31109 | 93° | 62km/h | 11653m | 2.0m/s | 0°C | 0% | 0hPa | 0V | 00:00:00 | 00:00:00 | 00:00:00 | |
| AKAW68 | 2026-08-30 11:56:37 | 50.04595 | 21.30725 | 94° | 68km/h | 11593m | 4.5m/s | 0°C | 0% | 0hPa | 0V | 00:00:00 | 00:00:00 | 00:00:00 | |
| SQ9PSP-11 | 2026-08-30 11:56:35 | 50.04597 | 21.30671 | 93° | 66km/h | 11585m | 7.6m/s | 0°C | 0% | 0hPa | 0V | 00:00:00 | 00:00:00 | 00:00:00 | |
| SQ9EZE-12 | 2026-08-30 11:56:30 | 50.04596 | 21.30544 | 90° | 64km/h | 11563m | 7.9m/s | 0°C | 0% | 0hPa | 0V | 00:00:00 | 00:00:00 | 00:00:00 | |
| SQ9PSP-11 | 2026-08-30 11:56:19 | 50.04595 | 21.30265 | 91° | 64km/h | 11518m | 7.0m/s | 0°C | 0% | 0hPa | 0V | 00:00:00 | 00:00:00 | 00:00:00 | |
| MIELECB | 2026-08-30 11:56:18 | 50.04596 | 21.30240 | 93° | 66km/h | 11513m | 4.1m/s | 0°C | 0% | 0hPa | 0V | 00:00:00 | 00:00:00 | 00:00:00 | |
| AKAW68 | 2026-08-30 11:56:15 | 50.04595 | 21.30165 | 86° | 66km/h | 11500m | 4.4m/s | 0°C | 0% | 0hPa | 0V | 00:00:00 | 00:00:00 | 00:00:00 | |
| MIELECB | 2026-08-30 11:56:09 | 50.04590 | 21.30012 | 90° | 66km/h | 11475m | 2.0m/s | 0°C | 0% | 0hPa | 0V | 00:00:00 | 00:00:00 | 00:00:00 | |
| MIELECB | 2026-08-30 11:56:04 | 50.04581 | 21.29880 | 86° | 64km/h | 11456m | 3.2m/s | 0°C | 0% | 0hPa | 0V | 00:00:00 | 00:00:00 | 00:00:00 | |
| MIELECB | 2026-08-30 11:55:58 | 50.04575 | 21.29730 | 86° | 68km/h | 11430m | 3.1m/s | 0°C | 0% | 0hPa | 0V | 00:00:00 | 00:00:00 | 00:00:00 | |
| AKAW68 | 2026-08-30 11:55:53 | 50.04568 | 21.29603 | 88° | 62km/h | 11406m | 5.7m/s | 0°C | 0% | 0hPa | 0V | 00:00:00 | 00:00:00 | 00:00:00 | |
| MIELECB | 2026-08-30 11:55:47 | 50.04562 | 21.29456 | 87° | 62km/h | 11379m | 4.5m/s | 0°C | 0% | 0hPa | 0V | 00:00:00 | 00:00:00 | 00:00:00 | |
| MIELECB | 2026-08-30 11:55:35 | 50.04550 | 21.29173 | 91° | 60km/h | 11330m | 4.5m/s | 0°C | 0% | 0hPa | 0V | 00:00:00 | 00:00:00 | 00:00:00 | |
| SQ9PSP-11 | 2026-08-30 11:55:34 | 50.04551 | 21.29150 | 95° | 57km/h | 11325m | 4.8m/s | 0°C | 0% | 0hPa | 0V | 00:00:00 | 00:00:00 | 00:00:00 | |
| AKAW68 | 2026-08-30 11:55:31 | 50.04550 | 21.29082 | 89° | 58km/h | 11308m | 7.2m/s | 0°C | 0% | 0hPa | 0V | 00:00:00 | 00:00:00 | 00:00:00 | |
| MIELECB | 2026-08-30 11:55:22 | 50.04540 | 21.28882 | 93° | 51km/h | 11266m | 5.3m/s | 0°C | 0% | 0hPa | 0V | 00:00:00 | 00:00:00 | 00:00:00 | |
| SQ9PSP-11 | 2026-08-30 11:55:18 | 50.04542 | 21.28797 | 88° | 53km/h | 11248m | 3.7m/s | 0°C | 0% | 0hPa | 0V | 00:00:00 | 00:00:00 | 00:00:00 | |
| MIELECB | 2026-08-30 11:55:14 | 50.04541 | 21.28716 | 89° | 46km/h | 11227m | 2.9m/s | 0°C | 0% | 0hPa | 0V | 00:00:00 | 00:00:00 | 00:00:00 | |
| AKAW68 | 2026-08-30 11:55:11 | 50.04542 | 21.28661 | 91° | 49km/h | 11216m | 4.0m/s | 0°C | 0% | 0hPa | 0V | 00:00:00 | 00:00:00 | 00:00:00 | |
| MIELECB | 2026-08-30 11:55:08 | 50.04539 | 21.28603 | 90° | 49km/h | 11207m | 1.3m/s | 0°C | 0% | 0hPa | 0V | 00:00:00 | 00:00:00 | 00:00:00 | |
| SQ9PSP-11 | 2026-08-30 11:55:02 | 50.04536 | 21.28487 | 90° | 51km/h | 11179m | 4.2m/s | 0°C | 0% | 0hPa | 0V | 00:00:00 | 00:00:00 | 00:00:00 | |
| MIELECB | 2026-08-30 11:55:01 | 50.04536 | 21.28468 | 87° | 47km/h | 11175m | 5.2m/s | 0°C | 0% | 0hPa | 0V | 00:00:00 | 00:00:00 | 00:00:00 | |
| MIELECB | 2026-08-30 11:54:52 | 50.04536 | 21.28291 | 89° | 49km/h | 11136m | 7.1m/s | 0°C | 0% | 0hPa | 0V | 00:00:00 | 00:00:00 | 00:00:00 | |
| AKAW68 | 2026-08-30 11:54:51 | 50.04535 | 21.28272 | 88° | 49km/h | 11131m | 3.3m/s | 0°C | 0% | 0hPa | 0V | 00:00:00 | 00:00:00 | 00:00:00 | |
| SQ9PSP-11 | 2026-08-30 11:54:47 | 50.04535 | 21.28190 | 90° | 51km/h | 11113m | 2.5m/s | 0°C | 0% | 0hPa | 0V | 00:00:00 | 00:00:00 | 00:00:00 | |
| MIELECB | 2026-08-30 11:54:46 | 50.04535 | 21.28169 | 91° | 53km/h | 11109m | 5.1m/s | 0°C | 0% | 0hPa | 0V | 00:00:00 | 00:00:00 | 00:00:00 | |
| MIELECB | 2026-08-30 11:54:41 | 50.04534 | 21.28062 | 90° | 53km/h | 11087m | 4.8m/s | 0°C | 0% | 0hPa | 0V | 00:00:00 | 00:00:00 | 00:00:00 | |
| MIELECB | 2026-08-30 11:54:34 | 50.04532 | 21.27910 | 91° | 55km/h | 11058m | 7.3m/s | 0°C | 0% | 0hPa | 0V | 00:00:00 | 00:00:00 | 00:00:00 | |
| SQ9PSP-11 | 2026-08-30 11:54:31 | 50.04533 | 21.27843 | 92° | 60km/h | 11047m | 4.0m/s | 0°C | 0% | 0hPa | 0V | 00:00:00 | 00:00:00 | 00:00:00 | |
| AKAW68 | 2026-08-30 11:54:30 | 50.04533 | 21.27819 | 91° | 60km/h | 11042m | 6.6m/s | 0°C | 0% | 0hPa | 0V | 00:00:00 | 00:00:00 | 00:00:00 | |
| MIELECB | 2026-08-30 11:54:28 | 50.04532 | 21.27773 | 89° | 57km/h | 11033m | 5.9m/s | 0°C | 0% | 0hPa | 0V | 00:00:00 | 00:00:00 | 00:00:00 | |
| MIELECB | 2026-08-30 11:54:23 | 50.04531 | 21.27664 | 89° | 60km/h | 11011m | 6.0m/s | 0°C | 0% | 0hPa | 0V | 00:00:00 | 00:00:00 | 00:00:00 | |
| MIELECB | 2026-08-30 11:54:17 | 50.04526 | 21.27520 | 90° | 64km/h | 10987m | 3.5m/s | 0°C | 0% | 0hPa | 0V | 00:00:00 | 00:00:00 | 00:00:00 | |
| SQ9PSP-11 | 2026-08-30 11:54:16 | 50.04525 | 21.27496 | 88° | 58km/h | 10981m | 8.0m/s | 0°C | 0% | 0hPa | 0V | 00:00:00 | 00:00:00 | 00:00:00 | |
| MIELECB | 2026-08-30 11:54:11 | 50.04525 | 21.27380 | 93° | 62km/h | 10958m | 3.5m/s | 0°C | 0% | 0hPa | 0V | 00:00:00 | 00:00:00 | 00:00:00 | |
| AKAW68 | 2026-08-30 11:54:10 | 50.04525 | 21.27356 | 93° | 62km/h | 10954m | 4.4m/s | 0°C | 0% | 0hPa | 0V | 00:00:00 | 00:00:00 | 00:00:00 | |
| MIELECB | 2026-08-30 11:54:05 | 50.04525 | 21.27239 | 87° | 57km/h | 10932m | 4.9m/s | 0°C | 0% | 0hPa | 0V | 00:00:00 | 00:00:00 | 00:00:00 | |
| SQ9PSP-11 | 2026-08-30 11:54:00 | 50.04521 | 21.27119 | 87° | 60km/h | 10909m | 3.1m/s | 0°C | 0% | 0hPa | 0V | 00:00:00 | 00:00:00 | 00:00:00 | |
| MIELECB | 2026-08-30 11:53:59 | 50.04519 | 21.27096 | 87° | 57km/h | 10904m | 6.4m/s | 0°C | 0% | 0hPa | 0V | 00:00:00 | 00:00:00 | 00:00:00 | |
| MIELECB | 2026-08-30 11:53:54 | 50.04514 | 21.26993 | 91° | 57km/h | 10886m | 4.9m/s | 0°C | 0% | 0hPa | 0V | 00:00:00 | 00:00:00 | 00:00:00 | |
| AKAW68 | 2026-08-30 11:53:49 | 50.04511 | 21.26877 | 90° | 57km/h | 10862m | 5.7m/s | 0°C | 0% | 0hPa | 0V | 00:00:00 | 00:00:00 | 00:00:00 | |
| MIELECB | 2026-08-30 11:53:48 | 50.04512 | 21.26855 | 95° | 57km/h | 10857m | 5.4m/s | 0°C | 0% | 0hPa | 0V | 00:00:00 | 00:00:00 | 00:00:00 | |
| SQ9PSP-11 | 2026-08-30 11:53:45 | 50.04511 | 21.26790 | 85° | 57km/h | 10842m | 4.8m/s | 0°C | 0% | 0hPa | 0V | 00:00:00 | 00:00:00 | 00:00:00 | |
| MIELECB | 2026-08-30 11:53:43 | 50.04510 | 21.26748 | 93° | 53km/h | 10830m | 3.6m/s | 0°C | 0% | 0hPa | 0V | 00:00:00 | 00:00:00 | 00:00:00 | |
| MIELECB | 2026-08-30 11:53:37 | 50.04507 | 21.26620 | 87° | 55km/h | 10803m | 4.3m/s | 0°C | 0% | 0hPa | 0V | 00:00:00 | 00:00:00 | 00:00:00 | |
| MIELECB | 2026-08-30 11:53:31 | 50.04500 | 21.26508 | 85° | 44km/h | 10777m | 3.9m/s | 0°C | 0% | 0hPa | 0V | 00:00:00 | 00:00:00 | 00:00:00 | |
| SQ9PSP-11 | 2026-08-30 11:53:29 | 50.04497 | 21.26469 | 86° | 53km/h | 10769m | 4.6m/s | 0°C | 0% | 0hPa | 0V | 00:00:00 | 00:00:00 | 00:00:00 | |
| AKAW68 | 2026-08-30 11:53:28 | 50.04496 | 21.26448 | 86° | 57km/h | 10766m | 4.4m/s | 0°C | 0% | 0hPa | 0V | 00:00:00 | 00:00:00 | 00:00:00 | |
| MIELECB | 2026-08-30 11:53:26 | 50.04493 | 21.26402 | 85° | 57km/h | 10755m | 4.2m/s | 0°C | 0% | 0hPa | 0V | 00:00:00 | 00:00:00 | 00:00:00 | |
| MIELECB | 2026-08-30 11:53:20 | 50.04490 | 21.26290 | 81° | 49km/h | 10727m | 3.2m/s | 0°C | 0% | 0hPa | 0V | 00:00:00 | 00:00:00 | 00:00:00 | |
| MIELECB | 2026-08-30 11:53:15 | 50.04483 | 21.26180 | 92° | 57km/h | 10700m | 6.8m/s | 0°C | 0% | 0hPa | 0V | 00:00:00 | 00:00:00 | 00:00:00 | |
| SQ9PSP-11 | 2026-08-30 11:53:14 | 50.04483 | 21.26158 | 93° | 55km/h | 10695m | 4.9m/s | 0°C | 0% | 0hPa | 0V | 00:00:00 | 00:00:00 | 00:00:00 | |
| MIELECB | 2026-08-30 11:53:09 | 50.04484 | 21.26057 | 91° | 49km/h | 10674m | 5.6m/s | 0°C | 0% | 0hPa | 0V | 00:00:00 | 00:00:00 | 00:00:00 | |
| AKAW68 | 2026-08-30 11:53:07 | 50.04483 | 21.26016 | 86° | 53km/h | 10664m | 3.7m/s | 0°C | 0% | 0hPa | 0V | 00:00:00 | 00:00:00 | 00:00:00 | |
| MIELECB | 2026-08-30 11:53:04 | 50.04482 | 21.25953 | 88° | 55km/h | 10651m | 5.4m/s | 0°C | 0% | 0hPa | 0V | 00:00:00 | 00:00:00 | 00:00:00 | |
| MIELECB | 2026-08-30 11:52:58 | 50.04480 | 21.25825 | 91° | 55km/h | 10625m | 5.8m/s | 0°C | 0% | 0hPa | 0V | 00:00:00 | 00:00:00 | 00:00:00 | |
| OE3JTB-15 | 2026-08-30 11:52:57 | 50.04480 | 21.25803 | 92° | 55km/h | 10621m | 1.8m/s | 0°C | 0% | 0hPa | 0V | 00:00:00 | 00:00:00 | 00:00:00 | |
| MIELECB | 2026-08-30 11:52:52 | 50.04476 | 21.25696 | 86° | 53km/h | 10602m | 5.4m/s | 0°C | 0% | 0hPa | 0V | 00:00:00 | 00:00:00 | 00:00:00 | |
| MIELECB | 2026-08-30 11:52:47 | 50.04472 | 21.25590 | 91° | 55km/h | 10582m | 7.5m/s | 0°C | 0% | 0hPa | 0V | 00:00:00 | 00:00:00 | 00:00:00 | |
| AKAW68 | 2026-08-30 11:52:46 | 50.04472 | 21.25569 | 91° | 57km/h | 10577m | 3.4m/s | 0°C | 0% | 0hPa | 0V | 00:00:00 | 00:00:00 | 00:00:00 | |
| SQ9PSP-11 | 2026-08-30 11:52:43 | 50.04470 | 21.25504 | 87° | 55km/h | 10566m | 4.5m/s | 0°C | 0% | 0hPa | 0V | 00:00:00 | 00:00:00 | 00:00:00 | |
| MIELECB | 2026-08-30 11:52:41 | 50.04468 | 21.25460 | 87° | 57km/h | 10558m | 4.1m/s | 0°C | 0% | 0hPa | 0V | 00:00:00 | 00:00:00 | 00:00:00 | |
| MIELECB | 2026-08-30 11:52:36 | 50.04462 | 21.25350 | 88° | 57km/h | 10536m | 6.3m/s | 0°C | 0% | 0hPa | 0V | 00:00:00 | 00:00:00 | 00:00:00 | |
| MIELECB | 2026-08-30 11:52:30 | 50.04457 | 21.25219 | 84° | 55km/h | 10515m | 3.6m/s | 0°C | 0% | 0hPa | 0V | 00:00:00 | 00:00:00 | 00:00:00 | |
| SQ9PSP-11 | 2026-08-30 11:52:27 | 50.04456 | 21.25153 | 87° | 58km/h | 10500m | 7.8m/s | 0°C | 0% | 0hPa | 0V | 00:00:00 | 00:00:00 | 00:00:00 | |
| AKAW68 | 2026-08-30 11:52:25 | 50.04452 | 21.25106 | 84° | 58km/h | 10489m | 6.3m/s | 0°C | 0% | 0hPa | 0V | 00:00:00 | 00:00:00 | 00:00:00 | |
| MIELECB | 2026-08-30 11:52:24 | 50.04451 | 21.25084 | 87° | 55km/h | 10484m | 3.8m/s | 0°C | 0% | 0hPa | 0V | 00:00:00 | 00:00:00 | 00:00:00 | |
| MIELECB | 2026-08-30 11:52:18 | 50.04442 | 21.24952 | 85° | 62km/h | 10458m | 5.2m/s | 0°C | 0% | 0hPa | 0V | 00:00:00 | 00:00:00 | 00:00:00 | |
| SQ9PSP-11 | 2026-08-30 11:52:12 | 50.04433 | 21.24809 | 84° | 58km/h | 10429m | 6.3m/s | 0°C | 0% | 0hPa | 0V | 00:00:00 | 00:00:00 | 00:00:00 | |
| MIELECB | 2026-08-30 11:52:06 | 50.04423 | 21.24674 | 83° | 60km/h | 10403m | 3.7m/s | 0°C | 0% | 0hPa | 0V | 00:00:00 | 00:00:00 | 00:00:00 | |
| AKAW68 | 2026-08-30 11:52:05 | 50.04421 | 21.24651 | 87° | 57km/h | 10399m | 3.2m/s | 0°C | 0% | 0hPa | 0V | 00:00:00 | 00:00:00 | 00:00:00 | |
| MIELECB | 2026-08-30 11:52:01 | 50.04416 | 21.24560 | 84° | 58km/h | 10383m | 4.2m/s | 0°C | 0% | 0hPa | 0V | 00:00:00 | 00:00:00 | 00:00:00 | |
| SQ9PSP-11 | 2026-08-30 11:51:57 | 50.04408 | 21.24450 | 83° | 57km/h | 10363m | 6.3m/s | 0°C | 0% | 0hPa | 0V | 00:00:00 | 00:00:00 | 00:00:00 | |
| MIELECB | 2026-08-30 11:51:56 | 50.04408 | 21.24450 | 83° | 57km/h | 10363m | 6.3m/s | 0°C | 0% | 0hPa | 0V | 00:00:00 | 00:00:00 | 00:00:00 | |
| MIELECB | 2026-08-30 11:51:50 | 50.04403 | 21.24316 | 88° | 55km/h | 10342m | 3.8m/s | 0°C | 0% | 0hPa | 0V | 00:00:00 | 00:00:00 | 00:00:00 | |
| MIELECB | 2026-08-30 11:51:44 | 50.04395 | 21.24184 | 90° | 58km/h | 10314m | 3.5m/s | 0°C | 0% | 0hPa | 0V | 00:00:00 | 00:00:00 | 00:00:00 | |
| SQ9PSP-11 | 2026-08-30 11:51:41 | 50.04391 | 21.24114 | 87° | 58km/h | 10304m | 2.9m/s | 0°C | 0% | 0hPa | 0V | 00:00:00 | 00:00:00 | 00:00:00 | |
| MIELECB | 2026-08-30 11:51:39 | 50.04388 | 21.24070 | 84° | 55km/h | 10298m | 4.2m/s | 0°C | 0% | 0hPa | 0V | 00:00:00 | 00:00:00 | 00:00:00 | |
| MIELECB | 2026-08-30 11:51:33 | 50.04377 | 21.23940 | 83° | 57km/h | 10275m | 3.2m/s | 0°C | 0% | 0hPa | 0V | 00:00:00 | 00:00:00 | 00:00:00 | |
| MIELECB | 2026-08-30 11:51:28 | 50.04375 | 21.23819 | 94° | 62km/h | 10256m | 4.4m/s | 0°C | 0% | 0hPa | 0V | 00:00:00 | 00:00:00 | 00:00:00 | |
| SQ9PSP-11 | 2026-08-30 11:51:25 | 50.04373 | 21.23755 | 80° | 53km/h | 10245m | 6.0m/s | 0°C | 0% | 0hPa | 0V | 00:00:00 | 00:00:00 | 00:00:00 | |
| AKAW68 | 2026-08-30 11:51:24 | 50.04370 | 21.23735 | 76° | 55km/h | 10240m | 2.8m/s | 0°C | 0% | 0hPa | 0V | 00:00:00 | 00:00:00 | 00:00:00 | |
| MIELECB | 2026-08-30 11:51:22 | 50.04362 | 21.23693 | 81° | 53km/h | 10232m | 3.1m/s | 0°C | 0% | 0hPa | 0V | 00:00:00 | 00:00:00 | 00:00:00 | |
| MIELECB | 2026-08-30 11:51:16 | 50.04363 | 21.23560 | 84° | 53km/h | 10206m | 5.7m/s | 0°C | 0% | 0hPa | 0V | 00:00:00 | 00:00:00 | 00:00:00 | |
| MIELECB | 2026-08-30 11:51:11 | 50.04355 | 21.23461 | 89° | 55km/h | 10186m | 3.9m/s | 0°C | 0% | 0hPa | 0V | 00:00:00 | 00:00:00 | 00:00:00 | |
| SQ9PSP-11 | 2026-08-30 11:51:09 | 50.04355 | 21.23419 | 94° | 53km/h | 10177m | 2.9m/s | 0°C | 0% | 0hPa | 0V | 00:00:00 | 00:00:00 | 00:00:00 | |
| MIELECB | 2026-08-30 11:51:05 | 50.04358 | 21.23339 | 90° | 47km/h | 10160m | 4.0m/s | 0°C | 0% | 0hPa | 0V | 00:00:00 | 00:00:00 | 00:00:00 | |
| AKAW68 | 2026-08-30 11:51:04 | 50.04357 | 21.23321 | 87° | 46km/h | 10157m | 4.0m/s | 0°C | 0% | 0hPa | 0V | 00:00:00 | 00:00:00 | 00:00:00 | |
| MIELECB | 2026-08-30 11:51:00 | 50.04353 | 21.23245 | 91° | 46km/h | 10138m | 3.2m/s | 0°C | 0% | 0hPa | 0V | 00:00:00 | 00:00:00 | 00:00:00 | |
| SQ9PSP-11 | 2026-08-30 11:50:54 | 50.04354 | 21.23126 | 90° | 53km/h | 10114m | 7.1m/s | 0°C | 0% | 0hPa | 0V | 00:00:00 | 00:00:00 | 00:00:00 | |
| MIELECB | 2026-08-30 11:50:49 | 50.04353 | 21.23023 | 89° | 49km/h | 10093m | 6.5m/s | 0°C | 0% | 0hPa | 0V | 00:00:00 | 00:00:00 | 00:00:00 | |
| AKAW68 | 2026-08-30 11:50:43 | 50.04349 | 21.22905 | 86° | 46km/h | 10065m | 4.0m/s | 0°C | 0% | 0hPa | 0V | 00:00:00 | 00:00:00 | 00:00:00 | |
| SQ9PSP-11 | 2026-08-30 11:50:39 | 50.04346 | 21.22824 | 86° | 57km/h | 10053m | 4.6m/s | 0°C | 0% | 0hPa | 0V | 00:00:00 | 00:00:00 | 00:00:00 | |
| MIELECB | 2026-08-30 11:50:38 | 50.04345 | 21.22803 | 89° | 51km/h | 10048m | 6.3m/s | 0°C | 0% | 0hPa | 0V | 00:00:00 | 00:00:00 | 00:00:00 | |
| MIELECB | 2026-08-30 11:50:32 | 50.04342 | 21.22685 | 84° | 53km/h | 10022m | 6.3m/s | 0°C | 0% | 0hPa | 0V | 00:00:00 | 00:00:00 | 00:00:00 | |
| MIELECB | 2026-08-30 11:50:27 | 50.04341 | 21.22584 | 93° | 47km/h | 10003m | 4.0m/s | 0°C | 0% | 0hPa | 0V | 00:00:00 | 00:00:00 | 00:00:00 | |
| SQ9PSP-11 | 2026-08-30 11:50:24 | 50.04340 | 21.22527 | 85° | 49km/h | 9990m | 4.1m/s | 0°C | 0% | 0hPa | 0V | 00:00:00 | 00:00:00 | 00:00:00 | |
| AKAW68 | 2026-08-30 11:50:23 | 50.04339 | 21.22485 | 88° | 57km/h | 9979m | 4.1m/s | 0°C | 0% | 0hPa | 0V | 00:00:00 | 00:00:00 | 00:00:00 | |
| MIELECB | 2026-08-30 11:50:21 | 50.04338 | 21.22462 | 87° | 57km/h | 9974m | 6.7m/s | 0°C | 0% | 0hPa | 0V | 00:00:00 | 00:00:00 | 00:00:00 | |
| MIELECB | 2026-08-30 11:50:16 | 50.04339 | 21.22357 | 89° | 49km/h | 9954m | 4.0m/s | 0°C | 0% | 0hPa | 0V | 00:00:00 | 00:00:00 | 00:00:00 | |
| MIELECB | 2026-08-30 11:50:10 | 50.04334 | 21.22232 | 91° | 55km/h | 9928m | 7.1m/s | 0°C | 0% | 0hPa | 0V | 00:00:00 | 00:00:00 | 00:00:00 | |
| SQ9PSP-11 | 2026-08-30 11:50:08 | 50.04335 | 21.22188 | 93° | 53km/h | 9918m | 6.5m/s | 0°C | 0% | 0hPa | 0V | 00:00:00 | 00:00:00 | 00:00:00 | |
| MIELECB | 2026-08-30 11:50:05 | 50.04337 | 21.22127 | 95° | 51km/h | 9908m | 3.6m/s | 0°C | 0% | 0hPa | 0V | 00:00:00 | 00:00:00 | 00:00:00 | |
| AKAW68 | 2026-08-30 11:50:01 | 50.04335 | 21.22042 | 88° | 60km/h | 9892m | 3.4m/s | 0°C | 0% | 0hPa | 0V | 00:00:00 | 00:00:00 | 00:00:00 | |
| MIELECB | 2026-08-30 11:49:59 | 50.04333 | 21.21997 | 84° | 60km/h | 9883m | 3.7m/s | 0°C | 0% | 0hPa | 0V | 00:00:00 | 00:00:00 | 00:00:00 | |
| MIELECB | 2026-08-30 11:49:54 | 50.04330 | 21.21885 | 87° | 57km/h | 9863m | 3.6m/s | 0°C | 0% | 0hPa | 0V | 00:00:00 | 00:00:00 | 00:00:00 | |
| SQ9PSP-11 | 2026-08-30 11:49:52 | 50.04328 | 21.21840 | 88° | 57km/h | 9855m | 5.2m/s | 0°C | 0% | 0hPa | 0V | 00:00:00 | 00:00:00 | 00:00:00 | |
| MIELECB | 2026-08-30 11:49:48 | 50.04323 | 21.21753 | 88° | 58km/h | 9834m | 4.4m/s | 0°C | 0% | 0hPa | 0V | 00:00:00 | 00:00:00 | 00:00:00 | |
| MIELECB | 2026-08-30 11:49:42 | 50.04318 | 21.21621 | 82° | 57km/h | 9807m | 5.5m/s | 0°C | 0% | 0hPa | 0V | 00:00:00 | 00:00:00 | 00:00:00 | |
| AKAW68 | 2026-08-30 11:49:40 | 50.04314 | 21.21578 | 84° | 53km/h | 9798m | 6.4m/s | 0°C | 0% | 0hPa | 0V | 00:00:00 | 00:00:00 | 00:00:00 | |
| SQ9PSP-11 | 2026-08-30 11:49:37 | 50.04312 | 21.21509 | 90° | 62km/h | 9785m | 5.5m/s | 0°C | 0% | 0hPa | 0V | 00:00:00 | 00:00:00 | 00:00:00 | |
| MIELECB | 2026-08-30 11:49:36 | 50.04311 | 21.21484 | 85° | 66km/h | 9781m | 2.4m/s | 0°C | 0% | 0hPa | 0V | 00:00:00 | 00:00:00 | 00:00:00 | |
| MIELECB | 2026-08-30 11:49:31 | 50.04303 | 21.21368 | 85° | 49km/h | 9761m | 6.7m/s | 0°C | 0% | 0hPa | 0V | 00:00:00 | 00:00:00 | 00:00:00 | |
| MIELECB | 2026-08-30 11:49:25 | 50.04297 | 21.21231 | 90° | 55km/h | 9737m | 4.1m/s | 0°C | 0% | 0hPa | 0V | 00:00:00 | 00:00:00 | 00:00:00 | |
| SQ9PSP-11 | 2026-08-30 11:49:22 | 50.04294 | 21.21165 | 85° | 57km/h | 9726m | 3.3m/s | 0°C | 0% | 0hPa | 0V | 00:00:00 | 00:00:00 | 00:00:00 | |
| MIELECB | 2026-08-30 11:49:20 | 50.04292 | 21.21121 | 88° | 60km/h | 9717m | 8.5m/s | 0°C | 0% | 0hPa | 0V | 00:00:00 | 00:00:00 | 00:00:00 | |
| AKAW68 | 2026-08-30 11:49:19 | 50.04292 | 21.21096 | 90° | 66km/h | 9711m | 3.5m/s | 0°C | 0% | 0hPa | 0V | 00:00:00 | 00:00:00 | 00:00:00 | |
| MIELECB | 2026-08-30 11:49:14 | 50.04285 | 21.20973 | 90° | 55km/h | 9688m | 5.5m/s | 0°C | 0% | 0hPa | 0V | 00:00:00 | 00:00:00 | 00:00:00 | |
| SQ9PSP-11 | 2026-08-30 11:49:07 | 50.04280 | 21.20805 | 85° | 60km/h | 9655m | 4.9m/s | 0°C | 0% | 0hPa | 0V | 00:00:00 | 00:00:00 | 00:00:00 | |
| SQ9EZE-12 | 2026-08-30 11:49:03 | 50.04272 | 21.20711 | 80° | 62km/h | 9639m | 4.0m/s | 0°C | 0% | 0hPa | 0V | 00:00:00 | 00:00:00 | 00:00:00 | |
| AKAW68 | 2026-08-30 11:48:59 | 50.04265 | 21.20617 | 86° | 60km/h | 9625m | 4.3m/s | 0°C | 0% | 0hPa | 0V | 00:00:00 | 00:00:00 | 00:00:00 | |
| MIELECB | 2026-08-30 11:48:58 | 50.04264 | 21.20594 | 86° | 57km/h | 9620m | 6.7m/s | 0°C | 0% | 0hPa | 0V | 00:00:00 | 00:00:00 | 00:00:00 | |
| MIELECB | 2026-08-30 11:48:52 | 50.04258 | 21.20453 | 87° | 64km/h | 9593m | 5.4m/s | 0°C | 0% | 0hPa | 0V | 00:00:00 | 00:00:00 | 00:00:00 | |
| SQ9PSP-11 | 2026-08-30 11:48:51 | 50.04256 | 21.20428 | 84° | 66km/h | 9588m | 3.0m/s | 0°C | 0% | 0hPa | 0V | 00:00:00 | 00:00:00 | 00:00:00 | |
| SQ9EZE-12 | 2026-08-30 11:48:40 | 50.04232 | 21.20179 | 81° | 68km/h | 9541m | 3.0m/s | 0°C | 0% | 0hPa | 0V | 00:00:00 | 00:00:00 | 00:00:00 | |
| AKAW68 | 2026-08-30 11:48:38 | 50.04228 | 21.20130 | 89° | 57km/h | 9531m | 3.2m/s | 0°C | 0% | 0hPa | 0V | 00:00:00 | 00:00:00 | 00:00:00 | |
| SQ9PSP-11 | 2026-08-30 11:48:36 | 50.04229 | 21.20086 | 91° | 58km/h | 9523m | 2.8m/s | 0°C | 0% | 0hPa | 0V | 00:00:00 | 00:00:00 | 00:00:00 | |
| MIELECB | 2026-08-30 11:48:31 | 50.04215 | 21.19970 | 80° | 62km/h | 9500m | 4.6m/s | 0°C | 0% | 0hPa | 0V | 00:00:00 | 00:00:00 | 00:00:00 | |
| MIELECB | 2026-08-30 11:48:26 | 50.04203 | 21.19850 | 85° | 62km/h | 9481m | 8.1m/s | 0°C | 0% | 0hPa | 0V | 00:00:00 | 00:00:00 | 00:00:00 | |
| SQ9EZE-12 | 2026-08-30 11:48:24 | 50.04200 | 21.19804 | 87° | 58km/h | 9470m | 6.5m/s | 0°C | 0% | 0hPa | 0V | 00:00:00 | 00:00:00 | 00:00:00 | |
| SQ9PSP-11 | 2026-08-30 11:48:20 | 50.04192 | 21.19710 | 78° | 64km/h | 9450m | 5.1m/s | 0°C | 0% | 0hPa | 0V | 00:00:00 | 00:00:00 | 00:00:00 | |
| AKAW68 | 2026-08-30 11:48:18 | 50.04186 | 21.19658 | 85° | 66km/h | 9444m | 4.7m/s | 0°C | 0% | 0hPa | 0V | 00:00:00 | 00:00:00 | 00:00:00 | |
| MIELECB | 2026-08-30 11:48:15 | 50.04181 | 21.19586 | 86° | 60km/h | 9429m | 6.2m/s | 0°C | 0% | 0hPa | 0V | 00:00:00 | 00:00:00 | 00:00:00 | |
| SQ9EZE-12 | 2026-08-30 11:48:09 | 50.04164 | 21.19451 | 78° | 58km/h | 9401m | 5.6m/s | 0°C | 0% | 0hPa | 0V | 00:00:00 | 00:00:00 | 00:00:00 | |
| MIELECB | 2026-08-30 11:48:04 | 50.04155 | 21.19327 | 86° | 62km/h | 9377m | 2.6m/s | 0°C | 0% | 0hPa | 0V | 00:00:00 | 00:00:00 | 00:00:00 | |
| SQ9EZE-12 | 2026-08-30 11:47:53 | 50.04133 | 21.19078 | 88° | 62km/h | 9324m | 4.0m/s | 0°C | 0% | 0hPa | 0V | 00:00:00 | 00:00:00 | 00:00:00 | |
| MIELECB | 2026-08-30 11:47:51 | 50.04130 | 21.19026 | 87° | 69km/h | 9316m | 4.1m/s | 0°C | 0% | 0hPa | 0V | 00:00:00 | 00:00:00 | 00:00:00 | |
| SQ9PSP-11 | 2026-08-30 11:47:48 | 50.04124 | 21.18953 | 85° | 57km/h | 9305m | 2.8m/s | 0°C | 0% | 0hPa | 0V | 00:00:00 | 00:00:00 | 00:00:00 | |
| MIELECB | 2026-08-30 11:47:45 | 50.04117 | 21.18891 | 79° | 55km/h | 9291m | 3.5m/s | 0°C | 0% | 0hPa | 0V | 00:00:00 | 00:00:00 | 00:00:00 | |
| MIELECB | 2026-08-30 11:47:39 | 50.04104 | 21.18751 | 89° | 55km/h | 9266m | 3.8m/s | 0°C | 0% | 0hPa | 0V | 00:00:00 | 00:00:00 | 00:00:00 | |
| AKAW68 | 2026-08-30 11:47:37 | 50.04103 | 21.18709 | 87° | 55km/h | 9256m | 4.0m/s | 0°C | 0% | 0hPa | 0V | 00:00:00 | 00:00:00 | 00:00:00 | |
| MIELECB | 2026-08-30 11:47:34 | 50.04102 | 21.18645 | 87° | 57km/h | 9242m | 7.1m/s | 0°C | 0% | 0hPa | 0V | 00:00:00 | 00:00:00 | 00:00:00 | |
| SQ9PSP-11 | 2026-08-30 11:47:33 | 50.04101 | 21.18623 | 83° | 55km/h | 9237m | 3.6m/s | 0°C | 0% | 0hPa | 0V | 00:00:00 | 00:00:00 | 00:00:00 | |
| MIELECB | 2026-08-30 11:47:28 | 50.04088 | 21.18511 | 83° | 58km/h | 9213m | 5.9m/s | 0°C | 0% | 0hPa | 0V | 00:00:00 | 00:00:00 | 00:00:00 | |
| MIELECB | 2026-08-30 11:47:23 | 50.04084 | 21.18408 | 80° | 53km/h | 9190m | 3.0m/s | 0°C | 0% | 0hPa | 0V | 00:00:00 | 00:00:00 | 00:00:00 | |
| SQ9EZE-12 | 2026-08-30 11:47:20 | 50.04076 | 21.18341 | 80° | 58km/h | 9176m | 5.3m/s | 0°C | 0% | 0hPa | 0V | 00:00:00 | 00:00:00 | 00:00:00 | |
| MIELECB | 2026-08-30 11:47:18 | 50.04070 | 21.18297 | 80° | 55km/h | 9169m | 4.4m/s | 0°C | 0% | 0hPa | 0V | 00:00:00 | 00:00:00 | 00:00:00 | |
| SQ9PSP-11 | 2026-08-30 11:47:17 | 50.04067 | 21.18276 | 82° | 55km/h | 9166m | 2.5m/s | 0°C | 0% | 0hPa | 0V | 00:00:00 | 00:00:00 | 00:00:00 | |
| AKAW68 | 2026-08-30 11:47:16 | 50.04065 | 21.18255 | 83° | 55km/h | 9162m | 4.1m/s | 0°C | 0% | 0hPa | 0V | 00:00:00 | 00:00:00 | 00:00:00 | |
| MIELECB | 2026-08-30 11:47:12 | 50.04056 | 21.18173 | 84° | 51km/h | 9142m | 3.7m/s | 0°C | 0% | 0hPa | 0V | 00:00:00 | 00:00:00 | 00:00:00 | |
| MIELECB | 2026-08-30 11:47:07 | 50.04043 | 21.18074 | 79° | 57km/h | 9122m | 4.4m/s | 0°C | 0% | 0hPa | 0V | 00:00:00 | 00:00:00 | 00:00:00 | |
| SQ9EZE-12 | 2026-08-30 11:47:04 | 50.04034 | 21.18011 | 83° | 53km/h | 9110m | 1.8m/s | 0°C | 0% | 0hPa | 0V | 00:00:00 | 00:00:00 | 00:00:00 | |
| MIELECB | 2026-08-30 11:47:01 | 50.04029 | 21.17951 | 80° | 47km/h | 9097m | 2.9m/s | 0°C | 0% | 0hPa | 0V | 00:00:00 | 00:00:00 | 00:00:00 | |
| AKAW68 | 2026-08-30 11:46:55 | 50.04014 | 21.17834 | 77° | 47km/h | 9074m | 2.5m/s | 0°C | 0% | 0hPa | 0V | 00:00:00 | 00:00:00 | 00:00:00 | |
| MIELECB | 2026-08-30 11:46:50 | 50.04004 | 21.17739 | 85° | 55km/h | 9047m | 3.3m/s | 0°C | 0% | 0hPa | 0V | 00:00:00 | 00:00:00 | 00:00:00 | |
| SQ9EZE-12 | 2026-08-30 11:46:46 | 50.04000 | 21.17655 | 83° | 53km/h | 9031m | 2.4m/s | 0°C | 0% | 0hPa | 0V | 00:00:00 | 00:00:00 | 00:00:00 | |
| MIELECB | 2026-08-30 11:46:45 | 50.03998 | 21.17635 | 80° | 51km/h | 9027m | 4.8m/s | 0°C | 0% | 0hPa | 0V | 00:00:00 | 00:00:00 | 00:00:00 | |
| MIELECB | 2026-08-30 11:46:39 | 50.03990 | 21.17519 | 94° | 57km/h | 9002m | 4.1m/s | 0°C | 0% | 0hPa | 0V | 00:00:00 | 00:00:00 | 00:00:00 | |
| MIELECB | 2026-08-30 11:46:34 | 50.03985 | 21.17422 | 83° | 49km/h | 8985m | 2.5m/s | 0°C | 0% | 0hPa | 0V | 00:00:00 | 00:00:00 | 00:00:00 | |
| SQ9PSP-11 | 2026-08-30 11:46:30 | 50.03982 | 21.17340 | 88° | 55km/h | 8966m | 4.8m/s | 0°C | 0% | 0hPa | 0V | 00:00:00 | 00:00:00 | 00:00:00 | |
| SQ9EZE-12 | 2026-08-30 11:46:29 | 50.03980 | 21.17319 | 81° | 55km/h | 8962m | 3.2m/s | 0°C | 0% | 0hPa | 0V | 00:00:00 | 00:00:00 | 00:00:00 | |
| MIELECB | 2026-08-30 11:46:28 | 50.03978 | 21.17299 | 80° | 51km/h | 8957m | 7.1m/s | 0°C | 0% | 0hPa | 0V | 00:00:00 | 00:00:00 | 00:00:00 | |
| MIELECB | 2026-08-30 11:46:23 | 50.03972 | 21.17209 | 83° | 47km/h | 8933m | 3.3m/s | 0°C | 0% | 0hPa | 0V | 00:00:00 | 00:00:00 | 00:00:00 | |
| MIELECB | 2026-08-30 11:46:18 | 50.03965 | 21.17109 | 86° | 53km/h | 8908m | 5.9m/s | 0°C | 0% | 0hPa | 0V | 00:00:00 | 00:00:00 | 00:00:00 | |
| SQ9PSP-11 | 2026-08-30 11:46:14 | 50.03960 | 21.17027 | 84° | 49km/h | 8892m | 3.8m/s | 0°C | 0% | 0hPa | 0V | 00:00:00 | 00:00:00 | 00:00:00 | |
| MIELECB | 2026-08-30 11:46:13 | 50.03958 | 21.17007 | 84° | 49km/h | 8889m | 1.2m/s | 0°C | 0% | 0hPa | 0V | 00:00:00 | 00:00:00 | 00:00:00 | |
| SQ9EZE-12 | 2026-08-30 11:46:12 | 50.03956 | 21.16988 | 83° | 51km/h | 8886m | 4.0m/s | 0°C | 0% | 0hPa | 0V | 00:00:00 | 00:00:00 | 00:00:00 | |
| MIELECB | 2026-08-30 11:46:07 | 50.03950 | 21.16884 | 83° | 57km/h | 8863m | 5.3m/s | 0°C | 0% | 0hPa | 0V | 00:00:00 | 00:00:00 | 00:00:00 | |
| MIELECB | 2026-08-30 11:46:01 | 50.03943 | 21.16767 | 92° | 46km/h | 8836m | 6.1m/s | 0°C | 0% | 0hPa | 0V | 00:00:00 | 00:00:00 | 00:00:00 | |
| SQ9EZE-15 | 2026-08-30 11:46:00 | 50.03944 | 21.16748 | 93° | 53km/h | 8832m | 1.9m/s | 0°C | 0% | 0hPa | 0V | 00:00:00 | 00:00:00 | 00:00:00 | |
| SQ9PSP-11 | 2026-08-30 11:45:59 | 50.03944 | 21.16727 | 93° | 51km/h | 8829m | 4.5m/s | 0°C | 0% | 0hPa | 0V | 00:00:00 | 00:00:00 | 00:00:00 | |
| SQ9EZE-12 | 2026-08-30 11:45:56 | 50.03941 | 21.16668 | 82° | 53km/h | 8816m | 3.2m/s | 0°C | 0% | 0hPa | 0V | 00:00:00 | 00:00:00 | 00:00:00 | |
| MIELECB | 2026-08-30 11:45:55 | 50.03939 | 21.16647 | 80° | 51km/h | 8812m | 5.1m/s | 0°C | 0% | 0hPa | 0V | 00:00:00 | 00:00:00 | 00:00:00 | |
| AKAW68 | 2026-08-30 11:45:52 | 50.03932 | 21.16587 | 81° | 53km/h | 8802m | 2.6m/s | 0°C | 0% | 0hPa | 0V | 00:00:00 | 00:00:00 | 00:00:00 | |
| MIELECB | 2026-08-30 11:45:49 | 50.03926 | 21.16526 | 85° | 53km/h | 8791m | 4.0m/s | 0°C | 0% | 0hPa | 0V | 00:00:00 | 00:00:00 | 00:00:00 | |
| SQ9PSP-11 | 2026-08-30 11:45:44 | 50.03921 | 21.16428 | 87° | 46km/h | 8765m | 4.5m/s | 0°C | 0% | 0hPa | 0V | 00:00:00 | 00:00:00 | 00:00:00 | |
| MIELECB | 2026-08-30 11:45:43 | 50.03921 | 21.16410 | 87° | 46km/h | 8762m | 3.2m/s | 0°C | 0% | 0hPa | 0V | 00:00:00 | 00:00:00 | 00:00:00 | |
| SQ9EZE-15 | 2026-08-30 11:45:40 | 50.03915 | 21.16356 | 79° | 53km/h | 8749m | 5.5m/s | 0°C | 0% | 0hPa | 0V | 00:00:00 | 00:00:00 | 00:00:00 | |
| MIELECB | 2026-08-30 11:45:37 | 50.03913 | 21.16293 | 95° | 51km/h | 8734m | 2.3m/s | 0°C | 0% | 0hPa | 0V | 00:00:00 | 00:00:00 | 00:00:00 | |
| AKAW68 | 2026-08-30 11:45:32 | 50.03908 | 21.16199 | 82° | 47km/h | 8717m | 4.2m/s | 0°C | 0% | 0hPa | 0V | 00:00:00 | 00:00:00 | 00:00:00 | |
| MIELECB | 2026-08-30 11:45:31 | 50.03907 | 21.16179 | 84° | 55km/h | 8713m | 2.3m/s | 0°C | 0% | 0hPa | 0V | 00:00:00 | 00:00:00 | 00:00:00 | |
| SQ9PSP-11 | 2026-08-30 11:45:28 | 50.03903 | 21.16116 | 84° | 53km/h | 8702m | 6.0m/s | 0°C | 0% | 0hPa | 0V | 00:00:00 | 00:00:00 | 00:00:00 | |
| MIELECB | 2026-08-30 11:45:25 | 50.03899 | 21.16059 | 91° | 47km/h | 8691m | 2.8m/s | 0°C | 0% | 0hPa | 0V | 00:00:00 | 00:00:00 | 00:00:00 | |
| MIELECB | 2026-08-30 11:45:19 | 50.03894 | 21.15937 | 79° | 46km/h | 8663m | 3.6m/s | 0°C | 0% | 0hPa | 0V | 00:00:00 | 00:00:00 | 00:00:00 | |
| SQ9EZE-12 | 2026-08-30 11:45:17 | 50.03888 | 21.15903 | 72° | 46km/h | 8653m | 3.5m/s | 0°C | 0% | 0hPa | 0V | 00:00:00 | 00:00:00 | 00:00:00 | |
| MIELECB | 2026-08-30 11:45:14 | 50.03880 | 21.15852 | 81° | 47km/h | 8640m | 3.5m/s | 0°C | 0% | 0hPa | 0V | 00:00:00 | 00:00:00 | 00:00:00 | |
| GYPAP8-17 | 2026-08-30 11:45:12 | 50.03875 | 21.15812 | 80° | 53km/h | 8629m | 4.1m/s | 0°C | 0% | 0hPa | 0V | 00:00:00 | 00:00:00 | 00:00:00 | |
| AKAW68 | 2026-08-30 11:45:11 | 50.03873 | 21.15792 | 83° | 49km/h | 8624m | 5.6m/s | 0°C | 0% | 0hPa | 0V | 00:00:00 | 00:00:00 | 00:00:00 | |
| MIELECB | 2026-08-30 11:45:08 | 50.03869 | 21.15737 | 84° | 47km/h | 8610m | 1.1m/s | 0°C | 0% | 0hPa | 0V | 00:00:00 | 00:00:00 | 00:00:00 | |
| MIELECB | 2026-08-30 11:45:02 | 50.03846 | 21.15638 | 68° | 49km/h | 8587m | 1.2m/s | 0°C | 0% | 0hPa | 0V | 00:00:00 | 00:00:00 | 00:00:00 | |
| SQ9PSP-11 | 2026-08-30 11:44:57 | 50.03831 | 21.15540 | 78° | 47km/h | 8567m | 6.2m/s | 0°C | 0% | 0hPa | 0V | 00:00:00 | 00:00:00 | 00:00:00 | |
| MIELECB | 2026-08-30 11:44:56 | 50.03828 | 21.15523 | 72° | 44km/h | 8562m | 2.7m/s | 0°C | 0% | 0hPa | 0V | 00:00:00 | 00:00:00 | 00:00:00 | |
| MIELECB | 2026-08-30 11:44:51 | 50.03801 | 21.15440 | 73° | 49km/h | 8541m | 4.4m/s | 0°C | 0% | 0hPa | 0V | 00:00:00 | 00:00:00 | 00:00:00 | |
| AKAW68 | 2026-08-30 11:44:50 | 50.03798 | 21.15421 | 82° | 51km/h | 8537m | 2.8m/s | 0°C | 0% | 0hPa | 0V | 00:00:00 | 00:00:00 | 00:00:00 | |
| SQ9EZE-12 | 2026-08-30 11:44:48 | 50.03795 | 21.15381 | 86° | 51km/h | 8529m | 2.0m/s | 0°C | 0% | 0hPa | 0V | 00:00:00 | 00:00:00 | 00:00:00 | |
| MIELECB | 2026-08-30 11:44:45 | 50.03788 | 21.15323 | 68° | 46km/h | 8518m | 4.4m/s | 0°C | 0% | 0hPa | 0V | 00:00:00 | 00:00:00 | 00:00:00 | |
| GYPAP8-17 | 2026-08-30 11:44:41 | 50.03767 | 21.15257 | 71° | 47km/h | 8505m | 3.7m/s | 0°C | 0% | 0hPa | 0V | 00:00:00 | 00:00:00 | 00:00:00 | |
| MIELECB | 2026-08-30 11:44:39 | 50.03760 | 21.15222 | 79° | 47km/h | 8497m | 4.6m/s | 0°C | 0% | 0hPa | 0V | 00:00:00 | 00:00:00 | 00:00:00 | |
| MIELECB | 2026-08-30 11:44:33 | 50.03744 | 21.15113 | 63° | 40km/h | 8473m | 3.9m/s | 0°C | 0% | 0hPa | 0V | 00:00:00 | 00:00:00 | 00:00:00 | |
| AKAW68 | 2026-08-30 11:44:29 | 50.03727 | 21.15053 | 67° | 46km/h | 8454m | 4.1m/s | 0°C | 0% | 0hPa | 0V | 00:00:00 | 00:00:00 | 00:00:00 | |
| MIELECB | 2026-08-30 11:44:27 | 50.03719 | 21.15019 | 82° | 46km/h | 8442m | 4.0m/s | 0°C | 0% | 0hPa | 0V | 00:00:00 | 00:00:00 | 00:00:00 | |
| SQ9PSP-11 | 2026-08-30 11:44:26 | 50.03717 | 21.15002 | 79° | 40km/h | 8438m | 4.7m/s | 0°C | 0% | 0hPa | 0V | 00:00:00 | 00:00:00 | 00:00:00 | |
| MIELECB | 2026-08-30 11:44:22 | 50.03704 | 21.14942 | 63° | 49km/h | 8423m | 3.3m/s | 0°C | 0% | 0hPa | 0V | 00:00:00 | 00:00:00 | 00:00:00 | |
| MIELECB | 2026-08-30 11:44:17 | 50.03682 | 21.14858 | 84° | 40km/h | 8405m | 3.2m/s | 0°C | 0% | 0hPa | 0V | 00:00:00 | 00:00:00 | 00:00:00 | |
| MIELECB | 2026-08-30 11:44:11 | 50.03668 | 21.14771 | 65° | 42km/h | 8382m | 3.7m/s | 0°C | 0% | 0hPa | 0V | 00:00:00 | 00:00:00 | 00:00:00 | |
| AKAW68 | 2026-08-30 11:44:09 | 50.03659 | 21.14736 | 76° | 49km/h | 8372m | 3.0m/s | 0°C | 0% | 0hPa | 0V | 00:00:00 | 00:00:00 | 00:00:00 | |
| MIELECB | 2026-08-30 11:44:06 | 50.03655 | 21.14683 | 88° | 38km/h | 8364m | 2.2m/s | 0°C | 0% | 0hPa | 0V | 00:00:00 | 00:00:00 | 00:00:00 | |
| MIELECB | 2026-08-30 11:44:01 | 50.03637 | 21.14612 | 58° | 46km/h | 8344m | 6.8m/s | 0°C | 0% | 0hPa | 0V | 00:00:00 | 00:00:00 | 00:00:00 | |
| MIELECB | 2026-08-30 11:43:55 | 50.03624 | 21.14519 | 88° | 35km/h | 8319m | 7.4m/s | 0°C | 0% | 0hPa | 0V | 00:00:00 | 00:00:00 | 00:00:00 | |
| SQ9PSP-11 | 2026-08-30 11:43:54 | 50.03622 | 21.14504 | 74° | 44km/h | 8313m | 3.2m/s | 0°C | 0% | 0hPa | 0V | 00:00:00 | 00:00:00 | 00:00:00 | |
| MIELECB | 2026-08-30 11:43:50 | 50.03602 | 21.14436 | 72° | 47km/h | 8294m | 2.6m/s | 0°C | 0% | 0hPa | 0V | 00:00:00 | 00:00:00 | 00:00:00 | |
| AKAW68 | 2026-08-30 11:43:48 | 50.03597 | 21.14403 | 80° | 38km/h | 8286m | 3.2m/s | 0°C | 0% | 0hPa | 0V | 00:00:00 | 00:00:00 | 00:00:00 | |
| MIELECB | 2026-08-30 11:43:44 | 50.03588 | 21.14342 | 75° | 44km/h | 8266m | 3.7m/s | 0°C | 0% | 0hPa | 0V | 00:00:00 | 00:00:00 | 00:00:00 | |
| MIELECB | 2026-08-30 11:43:39 | 50.03568 | 21.14256 | 78° | 49km/h | 8247m | 2.0m/s | 0°C | 0% | 0hPa | 0V | 00:00:00 | 00:00:00 | 00:00:00 | |
| SQ9PSP-11 | 2026-08-30 11:43:38 | 50.03565 | 21.14237 | 78° | 49km/h | 8243m | 5.5m/s | 0°C | 0% | 0hPa | 0V | 00:00:00 | 00:00:00 | 00:00:00 | |
| MIELECB | 2026-08-30 11:43:33 | 50.03553 | 21.14151 | 83° | 47km/h | 8221m | 3.8m/s | 0°C | 0% | 0hPa | 0V | 00:00:00 | 00:00:00 | 00:00:00 | |
| AKAW68 | 2026-08-30 11:43:29 | 50.03538 | 21.14061 | 79° | 49km/h | 8202m | 5.3m/s | 0°C | 0% | 0hPa | 0V | 00:00:00 | 00:00:00 | 00:00:00 | |
| MIELECB | 2026-08-30 11:43:28 | 50.03538 | 21.14061 | 79° | 49km/h | 8202m | 5.3m/s | 0°C | 0% | 0hPa | 0V | 00:00:00 | 00:00:00 | 00:00:00 | |
| SQ9PSP-11 | 2026-08-30 11:43:22 | 50.03532 | 21.13952 | 75° | 42km/h | 8175m | 6.0m/s | 0°C | 0% | 0hPa | 0V | 00:00:00 | 00:00:00 | 00:00:00 | |
| MIELECB | 2026-08-30 11:43:15 | 50.03509 | 21.13840 | 90° | 40km/h | 8143m | 2.0m/s | 0°C | 0% | 0hPa | 0V | 00:00:00 | 00:00:00 | 00:00:00 | |
| MIELECB | 2026-08-30 11:43:10 | 50.03498 | 21.13749 | 70° | 49km/h | 8122m | 3.8m/s | 0°C | 0% | 0hPa | 0V | 00:00:00 | 00:00:00 | 00:00:00 | |
| AKAW68 | 2026-08-30 11:43:08 | 50.03490 | 21.13713 | 74° | 47km/h | 8116m | 4.9m/s | 0°C | 0% | 0hPa | 0V | 00:00:00 | 00:00:00 | 00:00:00 | |
| SQ9PSP-11 | 2026-08-30 11:43:07 | 50.03487 | 21.13696 | 76° | 42km/h | 8112m | 2.8m/s | 0°C | 0% | 0hPa | 0V | 00:00:00 | 00:00:00 | 00:00:00 | |
| MIELECB | 2026-08-30 11:43:03 | 50.03481 | 21.13628 | 82° | 47km/h | 8095m | 3.3m/s | 0°C | 0% | 0hPa | 0V | 00:00:00 | 00:00:00 | 00:00:00 | |
| MIELECB | 2026-08-30 11:42:58 | 50.03469 | 21.13552 | 81° | 35km/h | 8077m | 3.6m/s | 0°C | 0% | 0hPa | 0V | 00:00:00 | 00:00:00 | 00:00:00 | |
| MIELECB | 2026-08-30 11:42:52 | 50.03455 | 21.13460 | 77° | 44km/h | 8053m | 5.0m/s | 0°C | 0% | 0hPa | 0V | 00:00:00 | 00:00:00 | 00:00:00 | |
| SQ9PSP-11 | 2026-08-30 11:42:51 | 50.03453 | 21.13443 | 86° | 44km/h | 8049m | 2.5m/s | 0°C | 0% | 0hPa | 0V | 00:00:00 | 00:00:00 | 00:00:00 | |
| AKAW68 | 2026-08-30 11:42:47 | 50.03445 | 21.13379 | 69° | 37km/h | 8031m | 3.6m/s | 0°C | 0% | 0hPa | 0V | 00:00:00 | 00:00:00 | 00:00:00 | |
| MIELECB | 2026-08-30 11:42:42 | 50.03432 | 21.13292 | 86° | 53km/h | 8012m | 6.7m/s | 0°C | 0% | 0hPa | 0V | 00:00:00 | 00:00:00 | 00:00:00 | |
| SQ9EZE-14 | 2026-08-30 11:42:39 | 50.03428 | 21.13240 | 85° | 40km/h | 7999m | 3.8m/s | 0°C | 0% | 0hPa | 0V | 00:00:00 | 00:00:00 | 00:00:00 | |
| SQ9PSP-11 | 2026-08-30 11:42:36 | 50.03424 | 21.13190 | 81° | 47km/h | 7986m | 6.7m/s | 0°C | 0% | 0hPa | 0V | 00:00:00 | 00:00:00 | 00:00:00 | |
| AKAW68 | 2026-08-30 11:42:26 | 50.03418 | 21.13020 | 80° | 42km/h | 7945m | 4.5m/s | 0°C | 0% | 0hPa | 0V | 00:00:00 | 00:00:00 | 00:00:00 | |
| SQ9EZE-14 | 2026-08-30 11:42:24 | 50.03412 | 21.12988 | 71° | 40km/h | 7937m | 5.2m/s | 0°C | 0% | 0hPa | 0V | 00:00:00 | 00:00:00 | 00:00:00 | |
| MIELECB | 2026-08-30 11:42:15 | 50.03406 | 21.12833 | 81° | 38km/h | 7902m | 6.4m/s | 0°C | 0% | 0hPa | 0V | 00:00:00 | 00:00:00 | 00:00:00 | |
| MIELECB | 2026-08-30 11:42:08 | 50.03400 | 21.12717 | 90° | 40km/h | 7877m | 1.4m/s | 0°C | 0% | 0hPa | 0V | 00:00:00 | 00:00:00 | 00:00:00 | |
| AKAW68 | 2026-08-30 11:42:05 | 50.03400 | 21.12670 | 95° | 44km/h | 7869m | 3.5m/s | 0°C | 0% | 0hPa | 0V | 00:00:00 | 00:00:00 | 00:00:00 | |
| MIELECB | 2026-08-30 11:42:03 | 50.03401 | 21.12632 | 91° | 53km/h | 7860m | 3.1m/s | 0°C | 0% | 0hPa | 0V | 00:00:00 | 00:00:00 | 00:00:00 | |
| MIELECB | 2026-08-30 11:41:57 | 50.03393 | 21.12527 | 85° | 38km/h | 7833m | 1.8m/s | 0°C | 0% | 0hPa | 0V | 00:00:00 | 00:00:00 | 00:00:00 | |
| MIELECB | 2026-08-30 11:41:51 | 50.03396 | 21.12419 | 79° | 42km/h | 7808m | 3.4m/s | 0°C | 0% | 0hPa | 0V | 00:00:00 | 00:00:00 | 00:00:00 | |
| SQ9PSP-11 | 2026-08-30 11:41:49 | 50.03392 | 21.12389 | 81° | 40km/h | 7799m | 3.3m/s | 0°C | 0% | 0hPa | 0V | 00:00:00 | 00:00:00 | 00:00:00 | |
| MIELECB | 2026-08-30 11:41:45 | 50.03392 | 21.12321 | 95° | 49km/h | 7779m | 3.6m/s | 0°C | 0% | 0hPa | 0V | 00:00:00 | 00:00:00 | 00:00:00 | |
| AKAW68 | 2026-08-30 11:41:44 | 50.03393 | 21.12301 | 94° | 51km/h | 7775m | 4.6m/s | 0°C | 0% | 0hPa | 0V | 00:00:00 | 00:00:00 | 00:00:00 | |
| MIELECB | 2026-08-30 11:41:40 | 50.03390 | 21.12227 | 85° | 46km/h | 7759m | 7.9m/s | 0°C | 0% | 0hPa | 0V | 00:00:00 | 00:00:00 | 00:00:00 | |
| MIELECB | 2026-08-30 11:41:34 | 50.03385 | 21.12122 | 89° | 46km/h | 7732m | 3.8m/s | 0°C | 0% | 0hPa | 0V | 00:00:00 | 00:00:00 | 00:00:00 | |
| MIELECB | 2026-08-30 11:41:29 | 50.03379 | 21.12038 | 82° | 49km/h | 7711m | 3.5m/s | 0°C | 0% | 0hPa | 0V | 00:00:00 | 00:00:00 | 00:00:00 | |
| AKAW68 | 2026-08-30 11:41:24 | 50.03375 | 21.11951 | 80° | 40km/h | 7691m | 3.5m/s | 0°C | 0% | 0hPa | 0V | 00:00:00 | 00:00:00 | 00:00:00 | |
| MIELECB | 2026-08-30 11:41:23 | 50.03373 | 21.11935 | 81° | 42km/h | 7688m | 3.0m/s | 0°C | 0% | 0hPa | 0V | 00:00:00 | 00:00:00 | 00:00:00 | |
| MIELECB | 2026-08-30 11:41:18 | 50.03362 | 21.11852 | 78° | 42km/h | 7665m | 5.1m/s | 0°C | 0% | 0hPa | 0V | 00:00:00 | 00:00:00 | 00:00:00 | |
| MIELECB | 2026-08-30 11:41:13 | 50.03364 | 21.11769 | 86° | 46km/h | 7640m | 1.8m/s | 0°C | 0% | 0hPa | 0V | 00:00:00 | 00:00:00 | 00:00:00 | |
| MIELECB | 2026-08-30 11:41:07 | 50.03356 | 21.11661 | 93° | 47km/h | 7619m | 6.8m/s | 0°C | 0% | 0hPa | 0V | 00:00:00 | 00:00:00 | 00:00:00 | |
| SQ9PSP-11 | 2026-08-30 11:41:03 | 50.03356 | 21.11592 | 96° | 44km/h | 7598m | 4.7m/s | 0°C | 0% | 0hPa | 0V | 00:00:00 | 00:00:00 | 00:00:00 | |
| MIELECB | 2026-08-30 11:41:01 | 50.03358 | 21.11559 | 92° | 40km/h | 7588m | 6.6m/s | 0°C | 0% | 0hPa | 0V | 00:00:00 | 00:00:00 | 00:00:00 | |
| MIELECB | 2026-08-30 11:40:55 | 50.03344 | 21.11462 | 84° | 49km/h | 7562m | 3.2m/s | 0°C | 0% | 0hPa | 0V | 00:00:00 | 00:00:00 | 00:00:00 | |
| SQ9PSP-11 | 2026-08-30 11:40:47 | 50.03336 | 21.11318 | 82° | 44km/h | 7525m | 5.2m/s | 0°C | 0% | 0hPa | 0V | 00:00:00 | 00:00:00 | 00:00:00 | |
| AKAW68 | 2026-08-30 11:40:43 | 50.03336 | 21.11251 | 90° | 47km/h | 7507m | 4.3m/s | 0°C | 0% | 0hPa | 0V | 00:00:00 | 00:00:00 | 00:00:00 | |
| MIELECB | 2026-08-30 11:40:37 | 50.03323 | 21.11133 | 81° | 47km/h | 7480m | 2.5m/s | 0°C | 0% | 0hPa | 0V | 00:00:00 | 00:00:00 | 00:00:00 | |
| SQ9PSP-11 | 2026-08-30 11:40:32 | 50.03317 | 21.11042 | 76° | 42km/h | 7457m | 5.6m/s | 0°C | 0% | 0hPa | 0V | 00:00:00 | 00:00:00 | 00:00:00 | |
| MIELECB | 2026-08-30 11:40:31 | 50.03314 | 21.11026 | 73° | 42km/h | 7452m | 3.4m/s | 0°C | 0% | 0hPa | 0V | 00:00:00 | 00:00:00 | 00:00:00 | |
| MIELECB | 2026-08-30 11:40:26 | 50.03300 | 21.10946 | 73° | 44km/h | 7429m | 3.9m/s | 0°C | 0% | 0hPa | 0V | 00:00:00 | 00:00:00 | 00:00:00 | |
| AKAW68 | 2026-08-30 11:40:22 | 50.03288 | 21.10878 | 79° | 47km/h | 7417m | 5.3m/s | 0°C | 0% | 0hPa | 0V | 00:00:00 | 00:00:00 | 00:00:00 | |
| MIELECB | 2026-08-30 11:40:20 | 50.03283 | 21.10843 | 80° | 47km/h | 7408m | 6.0m/s | 0°C | 0% | 0hPa | 0V | 00:00:00 | 00:00:00 | 00:00:00 | |
| SQ9PSP-11 | 2026-08-30 11:40:17 | 50.03273 | 21.10784 | 74° | 55km/h | 7392m | 3.7m/s | 0°C | 0% | 0hPa | 0V | 00:00:00 | 00:00:00 | 00:00:00 | |
| MIELECB | 2026-08-30 11:40:15 | 50.03264 | 21.10744 | 73° | 53km/h | 7386m | 3.4m/s | 0°C | 0% | 0hPa | 0V | 00:00:00 | 00:00:00 | 00:00:00 | |
| MIELECB | 2026-08-30 11:40:09 | 50.03250 | 21.10630 | 74° | 46km/h | 7364m | 5.2m/s | 0°C | 0% | 0hPa | 0V | 00:00:00 | 00:00:00 | 00:00:00 | |
| MIELECB | 2026-08-30 11:40:03 | 50.03235 | 21.10521 | 86° | 42km/h | 7337m | 3.7m/s | 0°C | 0% | 0hPa | 0V | 00:00:00 | 00:00:00 | 00:00:00 | |
| AKAW68 | 2026-08-30 11:40:01 | 50.03234 | 21.10490 | 92° | 35km/h | 7328m | 2.2m/s | 0°C | 0% | 0hPa | 0V | 00:00:00 | 00:00:00 | 00:00:00 | |
| MIELECB | 2026-08-30 11:39:57 | 50.03225 | 21.10426 | 66° | 49km/h | 7311m | 3.5m/s | 0°C | 0% | 0hPa | 0V | 00:00:00 | 00:00:00 | 00:00:00 | |
| MIELECB | 2026-08-30 11:39:52 | 50.03211 | 21.10348 | 88° | 42km/h | 7292m | 3.5m/s | 0°C | 0% | 0hPa | 0V | 00:00:00 | 00:00:00 | 00:00:00 | |
| MIELECB | 2026-08-30 11:39:45 | 50.03194 | 21.10243 | 83° | 37km/h | 7264m | 2.7m/s | 0°C | 0% | 0hPa | 0V | 00:00:00 | 00:00:00 | 00:00:00 | |
| MIELECB | 2026-08-30 11:39:40 | 50.03187 | 21.10163 | 91° | 38km/h | 7244m | 4.3m/s | 0°C | 0% | 0hPa | 0V | 00:00:00 | 00:00:00 | 00:00:00 | |
| MIELECB | 2026-08-30 11:39:33 | 50.03175 | 21.10055 | 86° | 33km/h | 7213m | 3.9m/s | 0°C | 0% | 0hPa | 0V | 00:00:00 | 00:00:00 | 00:00:00 | |
| SQ9PSP-11 | 2026-08-30 11:39:30 | 50.03172 | 21.10010 | 86° | 40km/h | 7201m | 5.9m/s | 0°C | 0% | 0hPa | 0V | 00:00:00 | 00:00:00 | 00:00:00 | |
| MIELECB | 2026-08-30 11:39:24 | 50.03170 | 21.09937 | 92° | 46km/h | 7178m | 2.8m/s | 0°C | 0% | 0hPa | 0V | 00:00:00 | 00:00:00 | 00:00:00 | |
| MIELECB | 2026-08-30 11:39:19 | 50.03165 | 21.09863 | 83° | 33km/h | 7157m | 4.5m/s | 0°C | 0% | 0hPa | 0V | 00:00:00 | 00:00:00 | 00:00:00 | |
| SQ9PSP-11 | 2026-08-30 11:39:14 | 50.03158 | 21.09789 | 83° | 46km/h | 7127m | 9.1m/s | 0°C | 0% | 0hPa | 0V | 00:00:00 | 00:00:00 | 00:00:00 | |
| MIELECB | 2026-08-30 11:39:11 | 50.03151 | 21.09745 | 83° | 33km/h | 7108m | 3.9m/s | 0°C | 0% | 0hPa | 0V | 00:00:00 | 00:00:00 | 00:00:00 | |
| MIELECB | 2026-08-30 11:39:06 | 50.03144 | 21.09676 | 71° | 33km/h | 7084m | 6.9m/s | 0°C | 0% | 0hPa | 0V | 00:00:00 | 00:00:00 | 00:00:00 | |
| MIELECB | 2026-08-30 11:39:00 | 50.03138 | 21.09596 | 90° | 35km/h | 7051m | 3.2m/s | 0°C | 0% | 0hPa | 0V | 00:00:00 | 00:00:00 | 00:00:00 | |
| SQ9PSP-11 | 2026-08-30 11:38:59 | 50.03137 | 21.09580 | 85° | 44km/h | 7046m | 6.7m/s | 0°C | 0% | 0hPa | 0V | 00:00:00 | 00:00:00 | 00:00:00 | |
| AKAW68 | 2026-08-30 11:38:58 | 50.03135 | 21.09563 | 76° | 46km/h | 7040m | 3.8m/s | 0°C | 0% | 0hPa | 0V | 00:00:00 | 00:00:00 | 00:00:00 | |
| MIELECB | 2026-08-30 11:38:53 | 50.03128 | 21.09495 | 106° | 35km/h | 7020m | 3.6m/s | 0°C | 0% | 0hPa | 0V | 00:00:00 | 00:00:00 | 00:00:00 | |
| MIELECB | 2026-08-30 11:38:47 | 50.03115 | 21.09406 | 96° | 38km/h | 6993m | 3.3m/s | 0°C | 0% | 0hPa | 0V | 00:00:00 | 00:00:00 | 00:00:00 | |
| SQ9PSP-11 | 2026-08-30 11:38:43 | 50.03121 | 21.09353 | 76° | 35km/h | 6977m | 6.4m/s | 0°C | 0% | 0hPa | 0V | 00:00:00 | 00:00:00 | 00:00:00 | |
| MIELECB | 2026-08-30 11:38:41 | 50.03114 | 21.09323 | 70° | 47km/h | 6965m | 5.1m/s | 0°C | 0% | 0hPa | 0V | 00:00:00 | 00:00:00 | 00:00:00 | |
| AKAW68 | 2026-08-30 11:38:37 | 50.03104 | 21.09267 | 79° | 27km/h | 6947m | 3.5m/s | 0°C | 0% | 0hPa | 0V | 00:00:00 | 00:00:00 | 00:00:00 | |
| MIELECB | 2026-08-30 11:38:36 | 50.03103 | 21.09256 | 92° | 31km/h | 6941m | 6.6m/s | 0°C | 0% | 0hPa | 0V | 00:00:00 | 00:00:00 | 00:00:00 | |
| MIELECB | 2026-08-30 11:38:28 | 50.03097 | 21.09136 | 87° | 37km/h | 6902m | 4.2m/s | 0°C | 0% | 0hPa | 0V | 00:00:00 | 00:00:00 | 00:00:00 | |
| MIELECB | 2026-08-30 11:38:19 | 50.03092 | 21.09007 | 82° | 37km/h | 6859m | 4.4m/s | 0°C | 0% | 0hPa | 0V | 00:00:00 | 00:00:00 | 00:00:00 | |
| AKAW68 | 2026-08-30 11:38:16 | 50.03092 | 21.08954 | 97° | 44km/h | 6846m | 2.6m/s | 0°C | 0% | 0hPa | 0V | 00:00:00 | 00:00:00 | 00:00:00 | |
| SQ9PSP-11 | 2026-08-30 11:38:13 | 50.03092 | 21.08897 | 66° | 29km/h | 6827m | 4.0m/s | 0°C | 0% | 0hPa | 0V | 00:00:00 | 00:00:00 | 00:00:00 | |
| MIELECB | 2026-08-30 11:38:07 | 50.03091 | 21.08817 | 99° | 44km/h | 6806m | 4.0m/s | 0°C | 0% | 0hPa | 0V | 00:00:00 | 00:00:00 | 00:00:00 | |
| MIELECB | 2026-08-30 11:38:01 | 50.03088 | 21.08735 | 88° | 46km/h | 6778m | 4.3m/s | 0°C | 0% | 0hPa | 0V | 00:00:00 | 00:00:00 | 00:00:00 | |
| SQ9EZE-12 | 2026-08-30 11:38:00 | 50.03086 | 21.08717 | 82° | 49km/h | 6773m | 4.5m/s | 0°C | 0% | 0hPa | 0V | 00:00:00 | 00:00:00 | 00:00:00 | |
| SQ9PSP-11 | 2026-08-30 11:37:57 | 50.03085 | 21.08666 | 104° | 33km/h | 6756m | 5.3m/s | 0°C | 0% | 0hPa | 0V | 00:00:00 | 00:00:00 | 00:00:00 | |
| MIELECB | 2026-08-30 11:37:42 | 50.03073 | 21.08447 | 91° | 38km/h | 6682m | 4.9m/s | 0°C | 0% | 0hPa | 0V | 00:00:00 | 00:00:00 | 00:00:00 | |
| AKAW68 | 2026-08-30 11:37:36 | 50.03076 | 21.08361 | 73° | 35km/h | 6657m | 3.2m/s | 0°C | 0% | 0hPa | 0V | 00:00:00 | 00:00:00 | 00:00:00 | |
| SQ9PSP-11 | 2026-08-30 11:37:26 | 50.03061 | 21.08204 | 80° | 53km/h | 6611m | 4.0m/s | 0°C | 0% | 0hPa | 0V | 00:00:00 | 00:00:00 | 00:00:00 | |
| SQ9EZE-12 | 2026-08-30 11:37:15 | 50.03046 | 21.08020 | 76° | 42km/h | 6566m | 3.8m/s | 0°C | 0% | 0hPa | 0V | 00:00:00 | 00:00:00 | 00:00:00 | |
| AKAW68 | 2026-08-30 11:37:12 | 50.03042 | 21.07974 | 93° | 44km/h | 6548m | 4.4m/s | 0°C | 0% | 0hPa | 0V | 00:00:00 | 00:00:00 | 00:00:00 | |
| SQ9PSP-11 | 2026-08-30 11:37:10 | 50.03041 | 21.07940 | 85° | 44km/h | 6538m | 5.5m/s | 0°C | 0% | 0hPa | 0V | 00:00:00 | 00:00:00 | 00:00:00 | |
| MIELECB | 2026-08-30 11:36:57 | 50.03024 | 21.07719 | 91° | 42km/h | 6475m | 5.1m/s | 0°C | 0% | 0hPa | 0V | 00:00:00 | 00:00:00 | 00:00:00 | |
| SQ9PSP-11 | 2026-08-30 11:36:55 | 50.03021 | 21.07687 | 77° | 40km/h | 6466m | 5.3m/s | 0°C | 0% | 0hPa | 0V | 00:00:00 | 00:00:00 | 00:00:00 | |
| AKAW68 | 2026-08-30 11:36:52 | 50.03016 | 21.07645 | 87° | 33km/h | 6452m | 3.7m/s | 0°C | 0% | 0hPa | 0V | 00:00:00 | 00:00:00 | 00:00:00 | |
| MIELECB | 2026-08-30 11:36:50 | 50.03014 | 21.07617 | 82° | 40km/h | 6445m | 3.6m/s | 0°C | 0% | 0hPa | 0V | 00:00:00 | 00:00:00 | 00:00:00 | |
| MIELECB | 2026-08-30 11:36:40 | 50.03000 | 21.07450 | 83° | 37km/h | 6399m | 3.2m/s | 0°C | 0% | 0hPa | 0V | 00:00:00 | 00:00:00 | 00:00:00 | |
| SQ9PSP-11 | 2026-08-30 11:36:39 | 50.02999 | 21.07435 | 89° | 42km/h | 6395m | 4.4m/s | 0°C | 0% | 0hPa | 0V | 00:00:00 | 00:00:00 | 00:00:00 | |
| MIELECB | 2026-08-30 11:36:32 | 50.02996 | 21.07311 | 93° | 38km/h | 6357m | 4.1m/s | 0°C | 0% | 0hPa | 0V | 00:00:00 | 00:00:00 | 00:00:00 | |
| SQ9EZE-12 | 2026-08-30 11:36:26 | 50.02988 | 21.07213 | 83° | 51km/h | 6333m | 6.4m/s | 0°C | 0% | 0hPa | 0V | 00:00:00 | 00:00:00 | 00:00:00 | |
| SQ9PSP-11 | 2026-08-30 11:36:24 | 50.02988 | 21.07184 | 103° | 27km/h | 6322m | 5.5m/s | 0°C | 0% | 0hPa | 0V | 00:00:00 | 00:00:00 | 00:00:00 | |
| MIELECB | 2026-08-30 11:36:18 | 50.02988 | 21.07077 | 95° | 60km/h | 6297m | 3.2m/s | 0°C | 0% | 0hPa | 0V | 00:00:00 | 00:00:00 | 00:00:00 | |
| MIELECB | 2026-08-30 11:36:13 | 50.02999 | 21.06985 | 108° | 49km/h | 6271m | 4.8m/s | 0°C | 0% | 0hPa | 0V | 00:00:00 | 00:00:00 | 00:00:00 | |
| AKAW68 | 2026-08-30 11:36:11 | 50.03006 | 21.06947 | 109° | 53km/h | 6261m | 3.4m/s | 0°C | 0% | 0hPa | 0V | 00:00:00 | 00:00:00 | 00:00:00 | |
| SQ9PSP-11 | 2026-08-30 11:36:09 | 50.03013 | 21.06912 | 109° | 40km/h | 6251m | 3.2m/s | 0°C | 0% | 0hPa | 0V | 00:00:00 | 00:00:00 | 00:00:00 | |
| MIELECB | 2026-08-30 11:36:08 | 50.03018 | 21.06880 | 97° | 46km/h | 6241m | 2.2m/s | 0°C | 0% | 0hPa | 0V | 00:00:00 | 00:00:00 | 00:00:00 | |
| MIELECB | 2026-08-30 11:35:56 | 50.03046 | 21.06669 | 105° | 49km/h | 6189m | 3.9m/s | 0°C | 0% | 0hPa | 0V | 00:00:00 | 00:00:00 | 00:00:00 | |
| SQ9PSP-11 | 2026-08-30 11:35:53 | 50.03058 | 21.06614 | 119° | 47km/h | 6178m | 4.2m/s | 0°C | 0% | 0hPa | 0V | 00:00:00 | 00:00:00 | 00:00:00 | |
| AKAW68 | 2026-08-30 11:35:51 | 50.03070 | 21.06577 | 114° | 53km/h | 6168m | 3.9m/s | 0°C | 0% | 0hPa | 0V | 00:00:00 | 00:00:00 | 00:00:00 | |
| MIELECB | 2026-08-30 11:35:44 | 50.03093 | 21.06432 | 117° | 55km/h | 6139m | 4.1m/s | 0°C | 0% | 0hPa | 0V | 00:00:00 | 00:00:00 | 00:00:00 | |
| SQ9PSP-11 | 2026-08-30 11:35:38 | 50.03115 | 21.06309 | 101° | 47km/h | 6115m | 4.6m/s | 0°C | 0% | 0hPa | 0V | 00:00:00 | 00:00:00 | 00:00:00 | |
| MIELECB | 2026-08-30 11:35:37 | 50.03117 | 21.06290 | 104° | 51km/h | 6111m | 2.0m/s | 0°C | 0% | 0hPa | 0V | 00:00:00 | 00:00:00 | 00:00:00 | |
| MIELECB | 2026-08-30 11:35:32 | 50.03137 | 21.06188 | 100° | 66km/h | 6088m | 4.2m/s | 0°C | 0% | 0hPa | 0V | 00:00:00 | 00:00:00 | 00:00:00 | |
| AKAW68 | 2026-08-30 11:35:31 | 50.03139 | 21.06163 | 97° | 62km/h | 6084m | 4.3m/s | 0°C | 0% | 0hPa | 0V | 00:00:00 | 00:00:00 | 00:00:00 | |
| MIELECB | 2026-08-30 11:35:26 | 50.03156 | 21.06059 | 109° | 60km/h | 6060m | 4.7m/s | 0°C | 0% | 0hPa | 0V | 00:00:00 | 00:00:00 | 00:00:00 | |
| SQ9EZE-12 | 2026-08-30 11:35:24 | 50.03164 | 21.06009 | 102° | 69km/h | 6051m | 4.3m/s | 0°C | 0% | 0hPa | 0V | 00:00:00 | 00:00:00 | 00:00:00 | |
| SQ9PSP-11 | 2026-08-30 11:35:22 | 50.03168 | 21.05959 | 98° | 58km/h | 6044m | 4.0m/s | 0°C | 0% | 0hPa | 0V | 00:00:00 | 00:00:00 | 00:00:00 | |
| MIELECB | 2026-08-30 11:35:21 | 50.03170 | 21.05937 | 102° | 53km/h | 6040m | 3.5m/s | 0°C | 0% | 0hPa | 0V | 00:00:00 | 00:00:00 | 00:00:00 | |
| MIELECB | 2026-08-30 11:35:15 | 50.03186 | 21.05817 | 97° | 55km/h | 6016m | 5.3m/s | 0°C | 0% | 0hPa | 0V | 00:00:00 | 00:00:00 | 00:00:00 | |
| AKAW68 | 2026-08-30 11:35:10 | 50.03198 | 21.05700 | 104° | 64km/h | 5993m | 2.1m/s | 0°C | 0% | 0hPa | 0V | 00:00:00 | 00:00:00 | 00:00:00 | |
| MIELECB | 2026-08-30 11:35:09 | 50.03202 | 21.05677 | 107° | 58km/h | 5990m | 4.1m/s | 0°C | 0% | 0hPa | 0V | 00:00:00 | 00:00:00 | 00:00:00 | |
| SQ9PSP-11 | 2026-08-30 11:35:06 | 50.03211 | 21.05619 | 101° | 51km/h | 5978m | 2.9m/s | 0°C | 0% | 0hPa | 0V | 00:00:00 | 00:00:00 | 00:00:00 | |
| MIELECB | 2026-08-30 11:35:04 | 50.03219 | 21.05573 | 109° | 66km/h | 5970m | 5.4m/s | 0°C | 0% | 0hPa | 0V | 00:00:00 | 00:00:00 | 00:00:00 | |
| MIELECB | 2026-08-30 11:34:58 | 50.03239 | 21.05447 | 93° | 58km/h | 5948m | 5.8m/s | 0°C | 0% | 0hPa | 0V | 00:00:00 | 00:00:00 | 00:00:00 | |
| SQ9PSP-11 | 2026-08-30 11:34:50 | 50.03268 | 21.05265 | 106° | 49km/h | 5911m | 5.3m/s | 0°C | 0% | 0hPa | 0V | 00:00:00 | 00:00:00 | 00:00:00 | |
| AKAW68 | 2026-08-30 11:34:49 | 50.03271 | 21.05246 | 104° | 51km/h | 5906m | 5.0m/s | 0°C | 0% | 0hPa | 0V | 00:00:00 | 00:00:00 | 00:00:00 | |
| SQ9EZE-12 | 2026-08-30 11:34:48 | 50.03273 | 21.05226 | 95° | 55km/h | 5902m | 3.7m/s | 0°C | 0% | 0hPa | 0V | 00:00:00 | 00:00:00 | 00:00:00 | |
| SQ9EZE-12 | 2026-08-30 11:34:32 | 50.03312 | 21.04869 | 105° | 49km/h | 5839m | 4.7m/s | 0°C | 0% | 0hPa | 0V | 00:00:00 | 00:00:00 | 00:00:00 | |
| AKAW68 | 2026-08-30 11:34:29 | 50.03320 | 21.04814 | 97° | 58km/h | 5829m | 4.9m/s | 0°C | 0% | 0hPa | 0V | 00:00:00 | 00:00:00 | 00:00:00 | |
| MIELECB | 2026-08-30 11:34:19 | 50.03359 | 21.04589 | 105° | 51km/h | 5784m | 2.4m/s | 0°C | 0% | 0hPa | 0V | 00:00:00 | 00:00:00 | 00:00:00 | |
| MIELECB | 2026-08-30 11:34:13 | 50.03369 | 21.04456 | 111° | 64km/h | 5758m | 3.5m/s | 0°C | 0% | 0hPa | 0V | 00:00:00 | 00:00:00 | 00:00:00 | |
| MIELECB | 2026-08-30 11:34:08 | 50.03387 | 21.04359 | 100° | 49km/h | 5735m | 3.6m/s | 0°C | 0% | 0hPa | 0V | 00:00:00 | 00:00:00 | 00:00:00 | |
| SQ9EZE-12 | 2026-08-30 11:34:04 | 50.03397 | 21.04272 | 106° | 55km/h | 5719m | 6.3m/s | 0°C | 0% | 0hPa | 0V | 00:00:00 | 00:00:00 | 00:00:00 | |
| SQ9PSP-11 | 2026-08-30 11:34:03 | 50.03401 | 21.04252 | 109° | 51km/h | 5714m | 3.9m/s | 0°C | 0% | 0hPa | 0V | 00:00:00 | 00:00:00 | 00:00:00 | |
| MIELECB | 2026-08-30 11:34:02 | 50.03405 | 21.04234 | 112° | 51km/h | 5710m | 3.1m/s | 0°C | 0% | 0hPa | 0V | 00:00:00 | 00:00:00 | 00:00:00 | |
| MIELECB | 2026-08-30 11:33:57 | 50.03414 | 21.04134 | 106° | 55km/h | 5692m | 4.5m/s | 0°C | 0% | 0hPa | 0V | 00:00:00 | 00:00:00 | 00:00:00 | |
| MIELECB | 2026-08-30 11:33:49 | 50.03436 | 21.03980 | 107° | 51km/h | 5660m | 6.1m/s | 0°C | 0% | 0hPa | 0V | 00:00:00 | 00:00:00 | 00:00:00 | |
| AKAW68 | 2026-08-30 11:33:48 | 50.03439 | 21.03960 | 103° | 51km/h | 5655m | 4.2m/s | 0°C | 0% | 0hPa | 0V | 00:00:00 | 00:00:00 | 00:00:00 | |
| SQ9EZE-12 | 2026-08-30 11:33:47 | 50.03441 | 21.03940 | 97° | 51km/h | 5651m | 3.8m/s | 0°C | 0% | 0hPa | 0V | 00:00:00 | 00:00:00 | 00:00:00 | |
| SQ9PSP-11 | 2026-08-30 11:33:32 | 50.03479 | 21.03645 | 94° | 68km/h | 5591m | 6.5m/s | 0°C | 0% | 0hPa | 0V | 00:00:00 | 00:00:00 | 00:00:00 | |
| SQ9EZE-12 | 2026-08-30 11:33:30 | 50.03482 | 21.03593 | 96° | 60km/h | 5581m | 3.8m/s | 0°C | 0% | 0hPa | 0V | 00:00:00 | 00:00:00 | 00:00:00 | |
| AKAW68 | 2026-08-30 11:33:27 | 50.03486 | 21.03537 | 108° | 38km/h | 5564m | 4.6m/s | 0°C | 0% | 0hPa | 0V | 00:00:00 | 00:00:00 | 00:00:00 | |
| MIELECB | 2026-08-30 11:33:23 | 50.03502 | 21.03476 | 99° | 49km/h | 5542m | 7.2m/s | 0°C | 0% | 0hPa | 0V | 00:00:00 | 00:00:00 | 00:00:00 | |
| SQ9PSP-11 | 2026-08-30 11:33:17 | 50.03502 | 21.03357 | 103° | 35km/h | 5514m | 4.9m/s | 0°C | 0% | 0hPa | 0V | 00:00:00 | 00:00:00 | 00:00:00 | |
| SQ9EZE-12 | 2026-08-30 11:33:15 | 50.03505 | 21.03334 | 94° | 31km/h | 5507m | 1.2m/s | 0°C | 0% | 0hPa | 0V | 00:00:00 | 00:00:00 | 00:00:00 | |
| AKAW68 | 2026-08-30 11:33:06 | 50.03519 | 21.03175 | 95° | 55km/h | 5459m | 7.7m/s | 0°C | 0% | 0hPa | 0V | 00:00:00 | 00:00:00 | 00:00:00 | |
| SQ9PSP-11 | 2026-08-30 11:33:01 | 50.03521 | 21.03093 | 84° | 37km/h | 5432m | 4.9m/s | 0°C | 0% | 0hPa | 0V | 00:00:00 | 00:00:00 | 00:00:00 | |
| SQ9PSP-11 | 2026-08-30 11:32:45 | 50.03522 | 21.02803 | 80° | 38km/h | 5350m | 5.3m/s | 0°C | 0% | 0hPa | 0V | 00:00:00 | 00:00:00 | 00:00:00 | |
| MIELECB | 2026-08-30 11:32:35 | 50.03512 | 21.02635 | 72° | 44km/h | 5307m | 4.5m/s | 0°C | 0% | 0hPa | 0V | 00:00:00 | 00:00:00 | 00:00:00 | |
| MIELECB | 2026-08-30 11:32:30 | 50.03513 | 21.02551 | 89° | 42km/h | 5282m | 3.8m/s | 0°C | 0% | 0hPa | 0V | 00:00:00 | 00:00:00 | 00:00:00 | |
| SQ9EZE-12 | 2026-08-30 11:32:25 | 50.03502 | 21.02465 | 76° | 42km/h | 5261m | 4.1m/s | 0°C | 0% | 0hPa | 0V | 00:00:00 | 00:00:00 | 00:00:00 | |
| MIELECB | 2026-08-30 11:32:24 | 50.03501 | 21.02449 | 83° | 40km/h | 5258m | 1.9m/s | 0°C | 0% | 0hPa | 0V | 00:00:00 | 00:00:00 | 00:00:00 | |
| MIELECB | 2026-08-30 11:32:18 | 50.03489 | 21.02349 | 71° | 47km/h | 5232m | 4.2m/s | 0°C | 0% | 0hPa | 0V | 00:00:00 | 00:00:00 | 00:00:00 | |
| SQ9PSP-11 | 2026-08-30 11:32:15 | 50.03486 | 21.02302 | 93° | 46km/h | 5220m | 4.0m/s | 0°C | 0% | 0hPa | 0V | 00:00:00 | 00:00:00 | 00:00:00 | |
| MIELECB | 2026-08-30 11:32:12 | 50.03485 | 21.02249 | 76° | 38km/h | 5206m | 4.1m/s | 0°C | 0% | 0hPa | 0V | 00:00:00 | 00:00:00 | 00:00:00 | |
| MIELECB | 2026-08-30 11:32:04 | 50.03473 | 21.02118 | 64° | 35km/h | 5169m | 3.6m/s | 0°C | 0% | 0hPa | 0V | 00:00:00 | 00:00:00 | 00:00:00 | |
| AKAW68 | 2026-08-30 11:32:03 | 50.03471 | 21.02105 | 81° | 37km/h | 5165m | 5.4m/s | 0°C | 0% | 0hPa | 0V | 00:00:00 | 00:00:00 | 00:00:00 | |
| MIELECB | 2026-08-30 11:31:59 | 50.03466 | 21.02028 | 79° | 49km/h | 5147m | 3.8m/s | 0°C | 0% | 0hPa | 0V | 00:00:00 | 00:00:00 | 00:00:00 | |
| MIELECB | 2026-08-30 11:31:53 | 50.03468 | 21.01932 | 92° | 46km/h | 5122m | 2.0m/s | 0°C | 0% | 0hPa | 0V | 00:00:00 | 00:00:00 | 00:00:00 | |
| SQ9EZE-12 | 2026-08-30 11:31:51 | 50.03468 | 21.01898 | 86° | 38km/h | 5112m | 4.2m/s | 0°C | 0% | 0hPa | 0V | 00:00:00 | 00:00:00 | 00:00:00 | |
| AKAW68 | 2026-08-30 11:31:43 | 50.03456 | 21.01767 | 91° | 31km/h | 5077m | 4.5m/s | 0°C | 0% | 0hPa | 0V | 00:00:00 | 00:00:00 | 00:00:00 | |
| SQ9EZE-12 | 2026-08-30 11:31:34 | 50.03449 | 21.01626 | 75° | 42km/h | 5037m | 4.2m/s | 0°C | 0% | 0hPa | 0V | 00:00:00 | 00:00:00 | 00:00:00 | |
| SQ9PSP-11 | 2026-08-30 11:31:28 | 50.03444 | 21.01541 | 84° | 38km/h | 5008m | 6.7m/s | 0°C | 0% | 0hPa | 0V | 00:00:00 | 00:00:00 | 00:00:00 | |
| AKAW68 | 2026-08-30 11:31:23 | 50.03434 | 21.01460 | 92° | 37km/h | 4984m | 4.8m/s | 0°C | 0% | 0hPa | 0V | 00:00:00 | 00:00:00 | 00:00:00 | |
| SQ9PSP-11 | 2026-08-30 11:31:12 | 50.03424 | 21.01285 | 77° | 35km/h | 4932m | 2.7m/s | 0°C | 0% | 0hPa | 0V | 00:00:00 | 00:00:00 | 00:00:00 | |
| SQ9EZE-12 | 2026-08-30 11:31:09 | 50.03423 | 21.01237 | 92° | 46km/h | 4919m | 4.5m/s | 0°C | 0% | 0hPa | 0V | 00:00:00 | 00:00:00 | 00:00:00 | |
| AKAW68 | 2026-08-30 11:31:02 | 50.03416 | 21.01116 | 100° | 42km/h | 4887m | 3.5m/s | 0°C | 0% | 0hPa | 0V | 00:00:00 | 00:00:00 | 00:00:00 | |
| SQ9PSP-11 | 2026-08-30 11:30:57 | 50.03414 | 21.01043 | 66° | 38km/h | 4866m | 4.1m/s | 0°C | 0% | 0hPa | 0V | 00:00:00 | 00:00:00 | 00:00:00 | |
| SQ9EZE-12 | 2026-08-30 11:30:54 | 50.03406 | 21.01008 | 93° | 33km/h | 4854m | 4.4m/s | 0°C | 0% | 0hPa | 0V | 00:00:00 | 00:00:00 | 00:00:00 | |
| AKAW68 | 2026-08-30 11:30:41 | 50.03400 | 21.00820 | 93° | 31km/h | 4786m | 3.7m/s | 0°C | 0% | 0hPa | 0V | 00:00:00 | 00:00:00 | 00:00:00 | |
| SQ9PSP-11 | 2026-08-30 11:30:26 | 50.03383 | 21.00616 | 72° | 31km/h | 4712m | 4.4m/s | 0°C | 0% | 0hPa | 0V | 00:00:00 | 00:00:00 | 00:00:00 | |
| SQ9EZE-12 | 2026-08-30 11:30:24 | 50.03383 | 21.00590 | 97° | 33km/h | 4703m | 6.4m/s | 0°C | 0% | 0hPa | 0V | 00:00:00 | 00:00:00 | 00:00:00 | |
| AKAW68 | 2026-08-30 11:30:21 | 50.03377 | 21.00530 | 65° | 40km/h | 4684m | 2.9m/s | 0°C | 0% | 0hPa | 0V | 00:00:00 | 00:00:00 | 00:00:00 | |
| SQ9PSP-11 | 2026-08-30 11:30:10 | 50.03366 | 21.00385 | 89° | 38km/h | 4642m | 3.7m/s | 0°C | 0% | 0hPa | 0V | 00:00:00 | 00:00:00 | 00:00:00 | |
| AKAW68 | 2026-08-30 11:29:59 | 50.03358 | 21.00227 | 93° | 42km/h | 4586m | 4.2m/s | 0°C | 0% | 0hPa | 0V | 00:00:00 | 00:00:00 | 00:00:00 | |
| SQ9EZE-12 | 2026-08-30 11:29:56 | 50.03360 | 21.00163 | 94° | 40km/h | 4563m | 4.4m/s | 0°C | 0% | 0hPa | 0V | 00:00:00 | 00:00:00 | 00:00:00 | |
| SQ9PSP-11 | 2026-08-30 11:29:55 | 50.03360 | 21.00163 | 94° | 40km/h | 4563m | 4.4m/s | 0°C | 0% | 0hPa | 0V | 00:00:00 | 00:00:00 | 00:00:00 | |
| SQ9PSP-11 | 2026-08-30 11:29:39 | 50.03344 | 20.99912 | 76° | 29km/h | 4480m | 4.9m/s | 0°C | 0% | 0hPa | 0V | 00:00:00 | 00:00:00 | 00:00:00 | |
| AKAW68 | 2026-08-30 11:29:37 | 50.03344 | 20.99884 | 96° | 49km/h | 4467m | 6.4m/s | 0°C | 0% | 0hPa | 0V | 00:00:00 | 00:00:00 | 00:00:00 | |
| SQ9PSP-11 | 2026-08-30 11:29:23 | 50.03349 | 20.99673 | 74° | 40km/h | 4393m | 4.5m/s | 0°C | 0% | 0hPa | 0V | 00:00:00 | 00:00:00 | 00:00:00 | |
| AKAW68 | 2026-08-30 11:29:17 | 50.03353 | 20.99575 | 100° | 49km/h | 4354m | 3.9m/s | 0°C | 0% | 0hPa | 0V | 00:00:00 | 00:00:00 | 00:00:00 | |
| SQ9PSP-11 | 2026-08-30 11:29:08 | 50.03356 | 20.99477 | 84° | 35km/h | 4314m | 5.5m/s | 0°C | 0% | 0hPa | 0V | 00:00:00 | 00:00:00 | 00:00:00 | |
| SQ9EZE-12 | 2026-08-30 11:28:55 | 50.03362 | 20.99296 | 92° | 53km/h | 4245m | 2.1m/s | 0°C | 0% | 0hPa | 0V | 00:00:00 | 00:00:00 | 00:00:00 | |
| SQ9PSP-11 | 2026-08-30 11:28:53 | 50.03365 | 20.99255 | 100° | 44km/h | 4238m | 6.4m/s | 0°C | 0% | 0hPa | 0V | 00:00:00 | 00:00:00 | 00:00:00 | |
| MIELECB | 2026-08-30 11:28:47 | 50.03373 | 20.99181 | 88° | 29km/h | 4201m | 6.6m/s | 0°C | 0% | 0hPa | 0V | 00:00:00 | 00:00:00 | 00:00:00 | |
| SQ9PSP-11 | 2026-08-30 11:28:38 | 50.03386 | 20.99054 | 93° | 35km/h | 4152m | 3.7m/s | 0°C | 0% | 0hPa | 0V | 00:00:00 | 00:00:00 | 00:00:00 | |
| AKAW68 | 2026-08-30 11:28:33 | 50.03399 | 20.98982 | 97° | 42km/h | 4124m | 3.6m/s | 0°C | 0% | 0hPa | 0V | 00:00:00 | 00:00:00 | 00:00:00 | |
| SQ9PSP-11 | 2026-08-30 11:28:22 | 50.03412 | 20.98831 | 120° | 37km/h | 4065m | 3.7m/s | 0°C | 0% | 0hPa | 0V | 00:00:00 | 00:00:00 | 00:00:00 | |
| AKAW68 | 2026-08-30 11:28:12 | 50.03430 | 20.98700 | 100° | 44km/h | 4011m | 3.3m/s | 0°C | 0% | 0hPa | 0V | 00:00:00 | 00:00:00 | 00:00:00 | |
| SQ9PSP-11 | 2026-08-30 11:28:07 | 50.03434 | 20.98634 | 94° | 38km/h | 3982m | 3.4m/s | 0°C | 0% | 0hPa | 0V | 00:00:00 | 00:00:00 | 00:00:00 | |
| SQ9PSP-11 | 2026-08-30 11:27:52 | 50.03468 | 20.98444 | 113° | 46km/h | 3890m | 5.5m/s | 0°C | 0% | 0hPa | 0V | 00:00:00 | 00:00:00 | 00:00:00 | |
| SQ9PSP-11 | 2026-08-30 11:27:37 | 50.03519 | 20.98273 | 120° | 29km/h | 3809m | 5.4m/s | 0°C | 0% | 0hPa | 0V | 00:00:00 | 00:00:00 | 00:00:00 | |
| AKAW68 | 2026-08-30 11:27:32 | 50.03527 | 20.98217 | 96° | 35km/h | 3776m | 6.7m/s | 0°C | 0% | 0hPa | 0V | 00:00:00 | 00:00:00 | 00:00:00 | |
| SQ9PSP-11 | 2026-08-30 11:27:21 | 50.03556 | 20.98082 | 118° | 27km/h | 3713m | 5.6m/s | 0°C | 0% | 0hPa | 0V | 00:00:00 | 00:00:00 | 00:00:00 | |
| SQ9PSP-11 | 2026-08-30 11:27:05 | 50.03588 | 20.97930 | 110° | 42km/h | 3621m | 3.1m/s | 0°C | 0% | 0hPa | 0V | 00:00:00 | 00:00:00 | 00:00:00 | |
| AKAW68 | 2026-08-30 11:26:55 | 50.03604 | 20.97794 | 120° | 20km/h | 3574m | 4.6m/s | 0°C | 0% | 0hPa | 0V | 00:00:00 | 00:00:00 | 00:00:00 | |
| SQ9PSP-11 | 2026-08-30 11:26:49 | 50.03599 | 20.97748 | 79° | 9km/h | 3545m | 4.7m/s | 0°C | 0% | 0hPa | 0V | 00:00:00 | 00:00:00 | 00:00:00 | |
| SQ9PSP-11 | 2026-08-30 11:26:32 | 50.03621 | 20.97569 | 85° | 42km/h | 3457m | 2.4m/s | 0°C | 0% | 0hPa | 0V | 00:00:00 | 00:00:00 | 00:00:00 | |
| AKAW68 | 2026-08-30 11:26:24 | 50.03626 | 20.97456 | 120° | 26km/h | 3421m | 4.0m/s | 0°C | 0% | 0hPa | 0V | 00:00:00 | 00:00:00 | 00:00:00 | |
| SQ9EZE-12 | 2026-08-30 11:26:17 | 50.03638 | 20.97377 | 127° | 33km/h | 3392m | 3.0m/s | 0°C | 0% | 0hPa | 0V | 00:00:00 | 00:00:00 | 00:00:00 | |
| SQ9PSP-11 | 2026-08-30 11:26:16 | 50.03643 | 20.97366 | 125° | 35km/h | 3388m | 2.9m/s | 0°C | 0% | 0hPa | 0V | 00:00:00 | 00:00:00 | 00:00:00 | |
| AKAW68 | 2026-08-30 11:26:03 | 50.03639 | 20.97195 | 60° | 37km/h | 3333m | 3.1m/s | 0°C | 0% | 0hPa | 0V | 00:00:00 | 00:00:00 | 00:00:00 | |
| SQ9PSP-11 | 2026-08-30 11:25:58 | 50.03619 | 20.97149 | 86° | 35km/h | 3312m | 3.6m/s | 0°C | 0% | 0hPa | 0V | 00:00:00 | 00:00:00 | 00:00:00 | |
| SQ9PSP-11 | 2026-08-30 11:25:41 | 50.03606 | 20.96945 | 69° | 44km/h | 3228m | 3.5m/s | 0°C | 0% | 0hPa | 0V | 00:00:00 | 00:00:00 | 00:00:00 | |
| AKAW68 | 2026-08-30 11:25:39 | 50.03598 | 20.96912 | 79° | 42km/h | 3222m | 1.4m/s | 0°C | 0% | 0hPa | 0V | 00:00:00 | 00:00:00 | 00:00:00 | |
| SQ9EZE-12 | 2026-08-30 11:25:38 | 50.03596 | 20.96896 | 85° | 42km/h | 3218m | 4.9m/s | 0°C | 0% | 0hPa | 0V | 00:00:00 | 00:00:00 | 00:00:00 | |
| SQ9PSP-11 | 2026-08-30 11:25:11 | 50.03590 | 20.96563 | 70° | 42km/h | 3082m | 4.5m/s | 0°C | 0% | 0hPa | 0V | 00:00:00 | 00:00:00 | 00:00:00 | |
| SQ9EZE-12 | 2026-08-30 11:24:59 | 50.03584 | 20.96450 | 104° | 35km/h | 3028m | 4.2m/s | 0°C | 0% | 0hPa | 0V | 00:00:00 | 00:00:00 | 00:00:00 | |
| SQ9PSP-11 | 2026-08-30 11:24:56 | 50.03593 | 20.96409 | 99° | 33km/h | 3016m | 5.1m/s | 0°C | 0% | 0hPa | 0V | 00:00:00 | 00:00:00 | 00:00:00 | |
| AKAW68 | 2026-08-30 11:24:38 | 50.03550 | 20.96225 | 68° | 33km/h | 2930m | 3.9m/s | 0°C | 0% | 0hPa | 0V | 00:00:00 | 00:00:00 | 00:00:00 | |
| AKAW68 | 2026-08-30 11:24:17 | 50.03525 | 20.96047 | 70° | 24km/h | 2836m | 5.4m/s | 0°C | 0% | 0hPa | 0V | 00:00:00 | 00:00:00 | 00:00:00 | |
| AKAW68 | 2026-08-30 11:23:48 | 50.03542 | 20.95803 | 112° | 33km/h | 2684m | 3.6m/s | 0°C | 0% | 0hPa | 0V | 00:00:00 | 00:00:00 | 00:00:00 | |
| MIELECB | 2026-08-30 11:23:46 | 50.03547 | 20.95782 | 98° | 27km/h | 2676m | 5.0m/s | 0°C | 0% | 0hPa | 0V | 00:00:00 | 00:00:00 | 00:00:00 | |
| SQ9PSP-11 | 2026-08-30 11:22:51 | 50.03568 | 20.95193 | 46° | 24km/h | 2440m | 1.6m/s | 0°C | 0% | 0hPa | 0V | 00:00:00 | 00:00:00 | 00:00:00 | |
| SQ9PSP-11 | 2026-08-30 11:22:21 | 50.03564 | 20.95084 | 122° | 24km/h | 2311m | 4.6m/s | 0°C | 0% | 0hPa | 0V | 00:00:00 | 00:00:00 | 00:00:00 | |
| SQ9PSP-11 | 2026-08-30 11:21:59 | 50.03537 | 20.94897 | 103° | 11km/h | 2202m | 2.0m/s | 0°C | 0% | 0hPa | 0V | 00:00:00 | 00:00:00 | 00:00:00 |